<?xml version="1.0" encoding="UTF-8" standalone="no" ?>
<gpx xmlns="http://www.topografix.com/GPX/1/1" xmlns:xsi="http://www.w3.org/2001/XMLSchema-instance" xsi:schemaLocation="http://www.topografix.com/GPX/1/1 http://www.topografix.com/GPX/1/1/gpx.xsd" version="1.1" creator="VisuGPX - https://www.visugpx.com">
  <metadata>
    <name>2022-01-11 15:08</name>
    <desc><![CDATA[
<p>Heure de départ: 01/11/2022 15:08<br/>Heure d'arrivée: 01/11/2022 16:37<br/>Distance: 14,4 km (01:28)<br/>Temps déplacement: 01:21<br/>Vitesse moyenne: 9,76 km/h<br/>Vitesse moyenne mouv.: 10,66 km/h<br/>Vitesse Max.: 37,51 km/h<br/>Altitude minimale: 134 m<br/>Altitude maximale: 319 m<br/>Vitesse de montée: 456,4 m/h<br/>Vitesse de descente: -1014,8 m/h<br/>Gain d'altitude: 382 m<br/>Perte d'altitude: -485 m<br/>Temps de montée: 00:50<br/>Temps de descente: 00:28<br/></p><hr align="center" width="480" style="height: 2px; width: 517px"/>]]></desc>
  </metadata>
  <wpt lat="47.64472" lon="6.18332">
    <ele>230.9</ele>
    <name><![CDATA[0000402]]></name>
    <type><![CDATA[Point de départ]]></type>
  </wpt>
  <wpt lat="47.64428" lon="6.18323">
    <ele>224.3</ele>
    <name><![CDATA[0000403]]></name>
    <desc><![CDATA[<p><br /><h3>Nom: Segment: 1</h3><br />Heure de départ: 01/11/2022 15:08<br/>Heure d'arrivée: 01/11/2022 16:37<br/>Distance: 14,4km (01:28)<br/>Temps déplacement: 01:21<br/>Vitesse moyenne: 9,76 km/h<br/>Vitesse moyenne mouv.: 10,11 km/h<br/>Vitesse Max.: 37,51 km/h<br/>Altitude minimale: 134 m<br/>Altitude maximale: 319 m<br/>Vitesse de montée: 1156,4 m/h<br/>Vitesse de descente: -1607,9 m/h<br/>Gain d'altitude: 813 m<br/>Perte d'altitude: -916 m<br/>Temps de montée: 00:42<br/>Temps de descente: 00:34<br/></p>]]></desc>
    <type><![CDATA[Point d'arrivée]]></type>
  </wpt>
  <trk>
    <name><![CDATA[2022-01-11 15:08]]></name>
    <desc><![CDATA[<p>Heure de départ: 01/11/2022 15:08<br/>Heure d'arrivée: 01/11/2022 16:37<br/>Distance: 14,4 km (01:28)<br/>Temps déplacement: 01:21<br/>Vitesse moyenne: 9,76 km/h<br/>Vitesse moyenne mouv.: 10,66 km/h<br/>Vitesse Max.: 37,51 km/h<br/>Altitude minimale: 134 m<br/>Altitude maximale: 319 m<br/>Vitesse de montée: 456,4 m/h<br/>Vitesse de descente: -1014,8 m/h<br/>Gain d'altitude: 382 m<br/>Perte d'altitude: -485 m<br/>Temps de montée: 00:50<br/>Temps de descente: 00:28<br/></p><hr align="center" width="480" style="height: 2px; width: 517px"/>]]></desc>
    <trkseg>
      <trkpt lat="47.64472" lon="6.18332">
        <ele>230.9</ele>
        <time>2022-01-11T14:08:32Z</time>
      </trkpt>
      <trkpt lat="47.64457" lon="6.18314">
        <ele>226.6</ele>
        <time>2022-01-11T14:08:40Z</time>
      </trkpt>
      <trkpt lat="47.64456" lon="6.18305">
        <ele>225.7</ele>
        <time>2022-01-11T14:08:46Z</time>
      </trkpt>
      <trkpt lat="47.64454" lon="6.183">
        <ele>225</ele>
        <time>2022-01-11T14:08:48Z</time>
      </trkpt>
      <trkpt lat="47.6445" lon="6.18295">
        <ele>224.3</ele>
        <time>2022-01-11T14:08:50Z</time>
      </trkpt>
      <trkpt lat="47.64445" lon="6.18292">
        <ele>223.5</ele>
        <time>2022-01-11T14:08:52Z</time>
      </trkpt>
      <trkpt lat="47.6444" lon="6.18287">
        <ele>223.2</ele>
        <time>2022-01-11T14:08:54Z</time>
      </trkpt>
      <trkpt lat="47.64434" lon="6.18282">
        <ele>222.8</ele>
        <time>2022-01-11T14:08:56Z</time>
      </trkpt>
      <trkpt lat="47.6443" lon="6.18279">
        <ele>222.5</ele>
        <time>2022-01-11T14:08:58Z</time>
      </trkpt>
      <trkpt lat="47.64425" lon="6.18275">
        <ele>222.3</ele>
        <time>2022-01-11T14:09:00Z</time>
      </trkpt>
      <trkpt lat="47.64424" lon="6.18284">
        <ele>222.5</ele>
        <time>2022-01-11T14:09:17Z</time>
      </trkpt>
      <trkpt lat="47.64427" lon="6.18292">
        <ele>222.9</ele>
        <time>2022-01-11T14:09:19Z</time>
      </trkpt>
      <trkpt lat="47.6443" lon="6.18297">
        <ele>223.2</ele>
        <time>2022-01-11T14:09:21Z</time>
      </trkpt>
      <trkpt lat="47.64435" lon="6.18304">
        <ele>223.6</ele>
        <time>2022-01-11T14:09:24Z</time>
      </trkpt>
      <trkpt lat="47.64439" lon="6.18307">
        <ele>223.9</ele>
        <time>2022-01-11T14:09:27Z</time>
      </trkpt>
      <trkpt lat="47.64444" lon="6.183">
        <ele>223.8</ele>
        <time>2022-01-11T14:09:30Z</time>
      </trkpt>
      <trkpt lat="47.64448" lon="6.18293">
        <ele>223.9</ele>
        <time>2022-01-11T14:09:32Z</time>
      </trkpt>
      <trkpt lat="47.64452" lon="6.18287">
        <ele>224</ele>
        <time>2022-01-11T14:09:34Z</time>
      </trkpt>
      <trkpt lat="47.64456" lon="6.18281">
        <ele>224</ele>
        <time>2022-01-11T14:09:36Z</time>
      </trkpt>
      <trkpt lat="47.6446" lon="6.18276">
        <ele>224</ele>
        <time>2022-01-11T14:09:38Z</time>
      </trkpt>
      <trkpt lat="47.64463" lon="6.1827">
        <ele>223.9</ele>
        <time>2022-01-11T14:09:40Z</time>
      </trkpt>
      <trkpt lat="47.64466" lon="6.18265">
        <ele>223.8</ele>
        <time>2022-01-11T14:09:42Z</time>
      </trkpt>
      <trkpt lat="47.64472" lon="6.18257">
        <ele>223.5</ele>
        <time>2022-01-11T14:09:44Z</time>
      </trkpt>
      <trkpt lat="47.64477" lon="6.18247">
        <ele>224</ele>
        <time>2022-01-11T14:09:46Z</time>
      </trkpt>
      <trkpt lat="47.6448" lon="6.1824">
        <ele>224.4</ele>
        <time>2022-01-11T14:09:47Z</time>
      </trkpt>
      <trkpt lat="47.64483" lon="6.18234">
        <ele>224.7</ele>
        <time>2022-01-11T14:09:48Z</time>
      </trkpt>
      <trkpt lat="47.64487" lon="6.18225">
        <ele>224.7</ele>
        <time>2022-01-11T14:09:50Z</time>
      </trkpt>
      <trkpt lat="47.6449" lon="6.18217">
        <ele>224.6</ele>
        <time>2022-01-11T14:09:52Z</time>
      </trkpt>
      <trkpt lat="47.64493" lon="6.18208">
        <ele>224.3</ele>
        <time>2022-01-11T14:09:54Z</time>
      </trkpt>
      <trkpt lat="47.64496" lon="6.18199">
        <ele>224</ele>
        <time>2022-01-11T14:09:56Z</time>
      </trkpt>
      <trkpt lat="47.64499" lon="6.18188">
        <ele>223.7</ele>
        <time>2022-01-11T14:09:58Z</time>
      </trkpt>
      <trkpt lat="47.64499" lon="6.18174">
        <ele>223.2</ele>
        <time>2022-01-11T14:10:00Z</time>
      </trkpt>
      <trkpt lat="47.64498" lon="6.18167">
        <ele>222.9</ele>
        <time>2022-01-11T14:10:01Z</time>
      </trkpt>
      <trkpt lat="47.64496" lon="6.18161">
        <ele>222.9</ele>
        <time>2022-01-11T14:10:02Z</time>
      </trkpt>
      <trkpt lat="47.64494" lon="6.18154">
        <ele>222.9</ele>
        <time>2022-01-11T14:10:03Z</time>
      </trkpt>
      <trkpt lat="47.64491" lon="6.18144">
        <ele>222.9</ele>
        <time>2022-01-11T14:10:05Z</time>
      </trkpt>
      <trkpt lat="47.6449" lon="6.18133">
        <ele>222.9</ele>
        <time>2022-01-11T14:10:07Z</time>
      </trkpt>
      <trkpt lat="47.6449" lon="6.18122">
        <ele>222.8</ele>
        <time>2022-01-11T14:10:09Z</time>
      </trkpt>
      <trkpt lat="47.64492" lon="6.18111">
        <ele>222.7</ele>
        <time>2022-01-11T14:10:11Z</time>
      </trkpt>
      <trkpt lat="47.64494" lon="6.18103">
        <ele>222.8</ele>
        <time>2022-01-11T14:10:13Z</time>
      </trkpt>
      <trkpt lat="47.64496" lon="6.18095">
        <ele>222.9</ele>
        <time>2022-01-11T14:10:15Z</time>
      </trkpt>
      <trkpt lat="47.64498" lon="6.18087">
        <ele>223</ele>
        <time>2022-01-11T14:10:17Z</time>
      </trkpt>
      <trkpt lat="47.645" lon="6.18081">
        <ele>223.1</ele>
        <time>2022-01-11T14:10:19Z</time>
      </trkpt>
      <trkpt lat="47.64502" lon="6.18073">
        <ele>223.6</ele>
        <time>2022-01-11T14:10:21Z</time>
      </trkpt>
      <trkpt lat="47.64504" lon="6.18065">
        <ele>224</ele>
        <time>2022-01-11T14:10:23Z</time>
      </trkpt>
      <trkpt lat="47.64505" lon="6.18059">
        <ele>224.3</ele>
        <time>2022-01-11T14:10:25Z</time>
      </trkpt>
      <trkpt lat="47.64504" lon="6.18052">
        <ele>224.1</ele>
        <time>2022-01-11T14:10:27Z</time>
      </trkpt>
      <trkpt lat="47.645" lon="6.18048">
        <ele>223.7</ele>
        <time>2022-01-11T14:10:29Z</time>
      </trkpt>
      <trkpt lat="47.64493" lon="6.18044">
        <ele>223.4</ele>
        <time>2022-01-11T14:10:31Z</time>
      </trkpt>
      <trkpt lat="47.64488" lon="6.18041">
        <ele>223.3</ele>
        <time>2022-01-11T14:10:36Z</time>
      </trkpt>
      <trkpt lat="47.64474" lon="6.18031">
        <ele>223</ele>
        <time>2022-01-11T14:10:36Z</time>
      </trkpt>
      <trkpt lat="47.64466" lon="6.18026">
        <ele>223</ele>
        <time>2022-01-11T14:10:38Z</time>
      </trkpt>
      <trkpt lat="47.64458" lon="6.18019">
        <ele>223</ele>
        <time>2022-01-11T14:10:40Z</time>
      </trkpt>
      <trkpt lat="47.64452" lon="6.1801">
        <ele>223</ele>
        <time>2022-01-11T14:10:42Z</time>
      </trkpt>
      <trkpt lat="47.64447" lon="6.18002">
        <ele>223</ele>
        <time>2022-01-11T14:10:44Z</time>
      </trkpt>
      <trkpt lat="47.64442" lon="6.17994">
        <ele>222.7</ele>
        <time>2022-01-11T14:10:46Z</time>
      </trkpt>
      <trkpt lat="47.6444" lon="6.17987">
        <ele>222.5</ele>
        <time>2022-01-11T14:10:48Z</time>
      </trkpt>
      <trkpt lat="47.6444" lon="6.17996">
        <ele>222.7</ele>
        <time>2022-01-11T14:10:53Z</time>
      </trkpt>
      <trkpt lat="47.64443" lon="6.18001">
        <ele>222.9</ele>
        <time>2022-01-11T14:10:55Z</time>
      </trkpt>
      <trkpt lat="47.64447" lon="6.18009">
        <ele>223</ele>
        <time>2022-01-11T14:10:57Z</time>
      </trkpt>
      <trkpt lat="47.64452" lon="6.18018">
        <ele>223</ele>
        <time>2022-01-11T14:10:59Z</time>
      </trkpt>
      <trkpt lat="47.64457" lon="6.18026">
        <ele>223</ele>
        <time>2022-01-11T14:11:01Z</time>
      </trkpt>
      <trkpt lat="47.64462" lon="6.18033">
        <ele>222.9</ele>
        <time>2022-01-11T14:11:03Z</time>
      </trkpt>
      <trkpt lat="47.64466" lon="6.18039">
        <ele>222.9</ele>
        <time>2022-01-11T14:11:05Z</time>
      </trkpt>
      <trkpt lat="47.64472" lon="6.18044">
        <ele>223</ele>
        <time>2022-01-11T14:11:07Z</time>
      </trkpt>
      <trkpt lat="47.64477" lon="6.18048">
        <ele>223.1</ele>
        <time>2022-01-11T14:11:09Z</time>
      </trkpt>
      <trkpt lat="47.64483" lon="6.18051">
        <ele>223.3</ele>
        <time>2022-01-11T14:11:11Z</time>
      </trkpt>
      <trkpt lat="47.64488" lon="6.18053">
        <ele>223.5</ele>
        <time>2022-01-11T14:11:13Z</time>
      </trkpt>
      <trkpt lat="47.64494" lon="6.18055">
        <ele>223.8</ele>
        <time>2022-01-11T14:11:15Z</time>
      </trkpt>
      <trkpt lat="47.645" lon="6.18055">
        <ele>224</ele>
        <time>2022-01-11T14:11:17Z</time>
      </trkpt>
      <trkpt lat="47.64506" lon="6.18054">
        <ele>224.4</ele>
        <time>2022-01-11T14:11:19Z</time>
      </trkpt>
      <trkpt lat="47.64511" lon="6.18053">
        <ele>224.7</ele>
        <time>2022-01-11T14:11:21Z</time>
      </trkpt>
      <trkpt lat="47.64517" lon="6.1805">
        <ele>225</ele>
        <time>2022-01-11T14:11:23Z</time>
      </trkpt>
      <trkpt lat="47.64522" lon="6.18044">
        <ele>225.2</ele>
        <time>2022-01-11T14:11:25Z</time>
      </trkpt>
      <trkpt lat="47.64528" lon="6.18038">
        <ele>225.3</ele>
        <time>2022-01-11T14:11:27Z</time>
      </trkpt>
      <trkpt lat="47.64531" lon="6.18033">
        <ele>225.7</ele>
        <time>2022-01-11T14:11:29Z</time>
      </trkpt>
      <trkpt lat="47.64535" lon="6.18028">
        <ele>226</ele>
        <time>2022-01-11T14:11:31Z</time>
      </trkpt>
      <trkpt lat="47.64538" lon="6.18022">
        <ele>226.4</ele>
        <time>2022-01-11T14:11:33Z</time>
      </trkpt>
      <trkpt lat="47.6454" lon="6.18016">
        <ele>226.6</ele>
        <time>2022-01-11T14:11:35Z</time>
      </trkpt>
      <trkpt lat="47.64544" lon="6.18007">
        <ele>226.9</ele>
        <time>2022-01-11T14:11:38Z</time>
      </trkpt>
      <trkpt lat="47.64548" lon="6.17997">
        <ele>227</ele>
        <time>2022-01-11T14:11:41Z</time>
      </trkpt>
      <trkpt lat="47.6455" lon="6.1799">
        <ele>226.7</ele>
        <time>2022-01-11T14:11:43Z</time>
      </trkpt>
      <trkpt lat="47.64552" lon="6.1798">
        <ele>226.2</ele>
        <time>2022-01-11T14:11:45Z</time>
      </trkpt>
      <trkpt lat="47.64553" lon="6.17973">
        <ele>225.9</ele>
        <time>2022-01-11T14:11:46Z</time>
      </trkpt>
      <trkpt lat="47.64555" lon="6.17965">
        <ele>225.7</ele>
        <time>2022-01-11T14:11:47Z</time>
      </trkpt>
      <trkpt lat="47.64557" lon="6.17952">
        <ele>225.4</ele>
        <time>2022-01-11T14:11:49Z</time>
      </trkpt>
      <trkpt lat="47.6456" lon="6.17943">
        <ele>225</ele>
        <time>2022-01-11T14:11:50Z</time>
      </trkpt>
      <trkpt lat="47.64562" lon="6.17936">
        <ele>224.4</ele>
        <time>2022-01-11T14:11:51Z</time>
      </trkpt>
      <trkpt lat="47.64568" lon="6.17925">
        <ele>223.7</ele>
        <time>2022-01-11T14:11:53Z</time>
      </trkpt>
      <trkpt lat="47.64573" lon="6.17919">
        <ele>223.5</ele>
        <time>2022-01-11T14:11:54Z</time>
      </trkpt>
      <trkpt lat="47.64579" lon="6.17912">
        <ele>223.4</ele>
        <time>2022-01-11T14:11:55Z</time>
      </trkpt>
      <trkpt lat="47.64586" lon="6.17905">
        <ele>223.2</ele>
        <time>2022-01-11T14:11:56Z</time>
      </trkpt>
      <trkpt lat="47.64592" lon="6.17899">
        <ele>222.9</ele>
        <time>2022-01-11T14:11:57Z</time>
      </trkpt>
      <trkpt lat="47.64598" lon="6.17894">
        <ele>222.8</ele>
        <time>2022-01-11T14:11:58Z</time>
      </trkpt>
      <trkpt lat="47.64604" lon="6.17891">
        <ele>222.8</ele>
        <time>2022-01-11T14:11:59Z</time>
      </trkpt>
      <trkpt lat="47.6461" lon="6.17888">
        <ele>223</ele>
        <time>2022-01-11T14:12:00Z</time>
      </trkpt>
      <trkpt lat="47.64616" lon="6.17886">
        <ele>223</ele>
        <time>2022-01-11T14:12:01Z</time>
      </trkpt>
      <trkpt lat="47.64621" lon="6.17885">
        <ele>223</ele>
        <time>2022-01-11T14:12:02Z</time>
      </trkpt>
      <trkpt lat="47.64626" lon="6.17885">
        <ele>222.9</ele>
        <time>2022-01-11T14:12:03Z</time>
      </trkpt>
      <trkpt lat="47.64631" lon="6.17886">
        <ele>222.9</ele>
        <time>2022-01-11T14:12:04Z</time>
      </trkpt>
      <trkpt lat="47.64636" lon="6.17887">
        <ele>222.9</ele>
        <time>2022-01-11T14:12:05Z</time>
      </trkpt>
      <trkpt lat="47.64639" lon="6.17894">
        <ele>223.2</ele>
        <time>2022-01-11T14:12:10Z</time>
      </trkpt>
      <trkpt lat="47.64645" lon="6.17896">
        <ele>223.2</ele>
        <time>2022-01-11T14:12:12Z</time>
      </trkpt>
      <trkpt lat="47.64651" lon="6.17898">
        <ele>223.2</ele>
        <time>2022-01-11T14:12:13Z</time>
      </trkpt>
      <trkpt lat="47.64656" lon="6.179">
        <ele>223.2</ele>
        <time>2022-01-11T14:12:14Z</time>
      </trkpt>
      <trkpt lat="47.6467" lon="6.17906">
        <ele>223</ele>
        <time>2022-01-11T14:12:18Z</time>
      </trkpt>
      <trkpt lat="47.64682" lon="6.17917">
        <ele>223</ele>
        <time>2022-01-11T14:12:22Z</time>
      </trkpt>
      <trkpt lat="47.64686" lon="6.17922">
        <ele>223.2</ele>
        <time>2022-01-11T14:12:24Z</time>
      </trkpt>
      <trkpt lat="47.64694" lon="6.17933">
        <ele>223</ele>
        <time>2022-01-11T14:12:27Z</time>
      </trkpt>
      <trkpt lat="47.64698" lon="6.17938">
        <ele>223</ele>
        <time>2022-01-11T14:12:28Z</time>
      </trkpt>
      <trkpt lat="47.64702" lon="6.17945">
        <ele>223</ele>
        <time>2022-01-11T14:12:30Z</time>
      </trkpt>
      <trkpt lat="47.64711" lon="6.17958">
        <ele>223.6</ele>
        <time>2022-01-11T14:12:34Z</time>
      </trkpt>
      <trkpt lat="47.64714" lon="6.17963">
        <ele>223.6</ele>
        <time>2022-01-11T14:12:35Z</time>
      </trkpt>
      <trkpt lat="47.64718" lon="6.17971">
        <ele>223.4</ele>
        <time>2022-01-11T14:12:37Z</time>
      </trkpt>
      <trkpt lat="47.64725" lon="6.17984">
        <ele>223.8</ele>
        <time>2022-01-11T14:12:37Z</time>
      </trkpt>
      <trkpt lat="47.64728" lon="6.17991">
        <ele>224.1</ele>
        <time>2022-01-11T14:12:42Z</time>
      </trkpt>
      <trkpt lat="47.64732" lon="6.17997">
        <ele>224.2</ele>
        <time>2022-01-11T14:12:43Z</time>
      </trkpt>
      <trkpt lat="47.64735" lon="6.18003">
        <ele>224.4</ele>
        <time>2022-01-11T14:12:45Z</time>
      </trkpt>
      <trkpt lat="47.64743" lon="6.18018">
        <ele>224.8</ele>
        <time>2022-01-11T14:12:45Z</time>
      </trkpt>
      <trkpt lat="47.64746" lon="6.18024">
        <ele>224.6</ele>
        <time>2022-01-11T14:12:50Z</time>
      </trkpt>
      <trkpt lat="47.64754" lon="6.18036">
        <ele>224.9</ele>
        <time>2022-01-11T14:12:53Z</time>
      </trkpt>
      <trkpt lat="47.64758" lon="6.18042">
        <ele>225.2</ele>
        <time>2022-01-11T14:12:54Z</time>
      </trkpt>
      <trkpt lat="47.64761" lon="6.18046">
        <ele>225.2</ele>
        <time>2022-01-11T14:12:55Z</time>
      </trkpt>
      <trkpt lat="47.64766" lon="6.18051">
        <ele>224.9</ele>
        <time>2022-01-11T14:12:57Z</time>
      </trkpt>
      <trkpt lat="47.6477" lon="6.18056">
        <ele>224.4</ele>
        <time>2022-01-11T14:12:58Z</time>
      </trkpt>
      <trkpt lat="47.64783" lon="6.18065">
        <ele>224.5</ele>
        <time>2022-01-11T14:13:02Z</time>
      </trkpt>
      <trkpt lat="47.64793" lon="6.1807">
        <ele>224.7</ele>
        <time>2022-01-11T14:13:05Z</time>
      </trkpt>
      <trkpt lat="47.64803" lon="6.18073">
        <ele>224.4</ele>
        <time>2022-01-11T14:13:08Z</time>
      </trkpt>
      <trkpt lat="47.64814" lon="6.18075">
        <ele>224.5</ele>
        <time>2022-01-11T14:13:08Z</time>
      </trkpt>
      <trkpt lat="47.64818" lon="6.18075">
        <ele>224.6</ele>
        <time>2022-01-11T14:13:13Z</time>
      </trkpt>
      <trkpt lat="47.64829" lon="6.18078">
        <ele>224.8</ele>
        <time>2022-01-11T14:13:13Z</time>
      </trkpt>
      <trkpt lat="47.64836" lon="6.18079">
        <ele>224.9</ele>
        <time>2022-01-11T14:13:19Z</time>
      </trkpt>
      <trkpt lat="47.64842" lon="6.18081">
        <ele>224.9</ele>
        <time>2022-01-11T14:13:22Z</time>
      </trkpt>
      <trkpt lat="47.64848" lon="6.18082">
        <ele>225</ele>
        <time>2022-01-11T14:13:24Z</time>
      </trkpt>
      <trkpt lat="47.64859" lon="6.18086">
        <ele>225.3</ele>
        <time>2022-01-11T14:13:28Z</time>
      </trkpt>
      <trkpt lat="47.64864" lon="6.18087">
        <ele>225.3</ele>
        <time>2022-01-11T14:13:30Z</time>
      </trkpt>
      <trkpt lat="47.6487" lon="6.18088">
        <ele>225.2</ele>
        <time>2022-01-11T14:13:32Z</time>
      </trkpt>
      <trkpt lat="47.64874" lon="6.18089">
        <ele>225.1</ele>
        <time>2022-01-11T14:13:33Z</time>
      </trkpt>
      <trkpt lat="47.64881" lon="6.18091">
        <ele>224.9</ele>
        <time>2022-01-11T14:13:35Z</time>
      </trkpt>
      <trkpt lat="47.64888" lon="6.18093">
        <ele>224.7</ele>
        <time>2022-01-11T14:13:37Z</time>
      </trkpt>
      <trkpt lat="47.64901" lon="6.18096">
        <ele>224.9</ele>
        <time>2022-01-11T14:13:41Z</time>
      </trkpt>
      <trkpt lat="47.64913" lon="6.18099">
        <ele>225.2</ele>
        <time>2022-01-11T14:13:41Z</time>
      </trkpt>
      <trkpt lat="47.64919" lon="6.181">
        <ele>225.4</ele>
        <time>2022-01-11T14:13:46Z</time>
      </trkpt>
      <trkpt lat="47.64926" lon="6.18102">
        <ele>225.7</ele>
        <time>2022-01-11T14:13:48Z</time>
      </trkpt>
      <trkpt lat="47.6493" lon="6.18102">
        <ele>225.8</ele>
        <time>2022-01-11T14:13:50Z</time>
      </trkpt>
      <trkpt lat="47.64942" lon="6.18104">
        <ele>226</ele>
        <time>2022-01-11T14:13:50Z</time>
      </trkpt>
      <trkpt lat="47.64947" lon="6.18104">
        <ele>226.1</ele>
        <time>2022-01-11T14:13:55Z</time>
      </trkpt>
      <trkpt lat="47.64958" lon="6.18104">
        <ele>226.7</ele>
        <time>2022-01-11T14:13:55Z</time>
      </trkpt>
      <trkpt lat="47.64964" lon="6.18103">
        <ele>226.8</ele>
        <time>2022-01-11T14:14:00Z</time>
      </trkpt>
      <trkpt lat="47.64969" lon="6.18101">
        <ele>226.7</ele>
        <time>2022-01-11T14:14:02Z</time>
      </trkpt>
      <trkpt lat="47.64981" lon="6.18099">
        <ele>226.5</ele>
        <time>2022-01-11T14:14:02Z</time>
      </trkpt>
      <trkpt lat="47.64988" lon="6.18099">
        <ele>226.5</ele>
        <time>2022-01-11T14:14:07Z</time>
      </trkpt>
      <trkpt lat="47.64999" lon="6.18098">
        <ele>226.6</ele>
        <time>2022-01-11T14:14:10Z</time>
      </trkpt>
      <trkpt lat="47.65004" lon="6.18098">
        <ele>226.5</ele>
        <time>2022-01-11T14:14:11Z</time>
      </trkpt>
      <trkpt lat="47.65015" lon="6.18097">
        <ele>226</ele>
        <time>2022-01-11T14:14:14Z</time>
      </trkpt>
      <trkpt lat="47.65021" lon="6.18098">
        <ele>225.8</ele>
        <time>2022-01-11T14:14:16Z</time>
      </trkpt>
      <trkpt lat="47.65027" lon="6.18098">
        <ele>225.6</ele>
        <time>2022-01-11T14:14:18Z</time>
      </trkpt>
      <trkpt lat="47.65038" lon="6.18098">
        <ele>225.8</ele>
        <time>2022-01-11T14:14:21Z</time>
      </trkpt>
      <trkpt lat="47.65051" lon="6.18099">
        <ele>226.2</ele>
        <time>2022-01-11T14:14:25Z</time>
      </trkpt>
      <trkpt lat="47.65057" lon="6.181">
        <ele>226.4</ele>
        <time>2022-01-11T14:14:27Z</time>
      </trkpt>
      <trkpt lat="47.65064" lon="6.18102">
        <ele>226.1</ele>
        <time>2022-01-11T14:14:29Z</time>
      </trkpt>
      <trkpt lat="47.6507" lon="6.18103">
        <ele>225.7</ele>
        <time>2022-01-11T14:14:31Z</time>
      </trkpt>
      <trkpt lat="47.65076" lon="6.18104">
        <ele>225.4</ele>
        <time>2022-01-11T14:14:33Z</time>
      </trkpt>
      <trkpt lat="47.65082" lon="6.18105">
        <ele>224.9</ele>
        <time>2022-01-11T14:14:35Z</time>
      </trkpt>
      <trkpt lat="47.65088" lon="6.18105">
        <ele>224.9</ele>
        <time>2022-01-11T14:14:36Z</time>
      </trkpt>
      <trkpt lat="47.65101" lon="6.18106">
        <ele>225.3</ele>
        <time>2022-01-11T14:14:37Z</time>
      </trkpt>
      <trkpt lat="47.65106" lon="6.18104">
        <ele>225.4</ele>
        <time>2022-01-11T14:14:39Z</time>
      </trkpt>
      <trkpt lat="47.65113" lon="6.18103">
        <ele>225.5</ele>
        <time>2022-01-11T14:14:41Z</time>
      </trkpt>
      <trkpt lat="47.65119" lon="6.18101">
        <ele>225.8</ele>
        <time>2022-01-11T14:14:43Z</time>
      </trkpt>
      <trkpt lat="47.65126" lon="6.18097">
        <ele>225.9</ele>
        <time>2022-01-11T14:14:45Z</time>
      </trkpt>
      <trkpt lat="47.65132" lon="6.18093">
        <ele>225.5</ele>
        <time>2022-01-11T14:14:47Z</time>
      </trkpt>
      <trkpt lat="47.65139" lon="6.18088">
        <ele>224.8</ele>
        <time>2022-01-11T14:14:49Z</time>
      </trkpt>
      <trkpt lat="47.65145" lon="6.18082">
        <ele>224.7</ele>
        <time>2022-01-11T14:14:51Z</time>
      </trkpt>
      <trkpt lat="47.65151" lon="6.18075">
        <ele>225.1</ele>
        <time>2022-01-11T14:14:53Z</time>
      </trkpt>
      <trkpt lat="47.65156" lon="6.18069">
        <ele>225.3</ele>
        <time>2022-01-11T14:14:55Z</time>
      </trkpt>
      <trkpt lat="47.65161" lon="6.18061">
        <ele>225.1</ele>
        <time>2022-01-11T14:14:57Z</time>
      </trkpt>
      <trkpt lat="47.65165" lon="6.18054">
        <ele>224.8</ele>
        <time>2022-01-11T14:14:59Z</time>
      </trkpt>
      <trkpt lat="47.65169" lon="6.18048">
        <ele>225</ele>
        <time>2022-01-11T14:15:01Z</time>
      </trkpt>
      <trkpt lat="47.65172" lon="6.18041">
        <ele>225.1</ele>
        <time>2022-01-11T14:15:03Z</time>
      </trkpt>
      <trkpt lat="47.65175" lon="6.18035">
        <ele>225</ele>
        <time>2022-01-11T14:15:05Z</time>
      </trkpt>
      <trkpt lat="47.65179" lon="6.1803">
        <ele>225</ele>
        <time>2022-01-11T14:15:07Z</time>
      </trkpt>
      <trkpt lat="47.65183" lon="6.18024">
        <ele>225.1</ele>
        <time>2022-01-11T14:15:11Z</time>
      </trkpt>
      <trkpt lat="47.65187" lon="6.18019">
        <ele>225.2</ele>
        <time>2022-01-11T14:15:13Z</time>
      </trkpt>
      <trkpt lat="47.65191" lon="6.18012">
        <ele>225.3</ele>
        <time>2022-01-11T14:15:16Z</time>
      </trkpt>
      <trkpt lat="47.65195" lon="6.18008">
        <ele>225.3</ele>
        <time>2022-01-11T14:15:18Z</time>
      </trkpt>
      <trkpt lat="47.65201" lon="6.18002">
        <ele>225.6</ele>
        <time>2022-01-11T14:15:21Z</time>
      </trkpt>
      <trkpt lat="47.65207" lon="6.17997">
        <ele>225.8</ele>
        <time>2022-01-11T14:15:24Z</time>
      </trkpt>
      <trkpt lat="47.65211" lon="6.17993">
        <ele>225.9</ele>
        <time>2022-01-11T14:15:26Z</time>
      </trkpt>
      <trkpt lat="47.65216" lon="6.17989">
        <ele>226.1</ele>
        <time>2022-01-11T14:15:28Z</time>
      </trkpt>
      <trkpt lat="47.65221" lon="6.17986">
        <ele>226.4</ele>
        <time>2022-01-11T14:15:30Z</time>
      </trkpt>
      <trkpt lat="47.65226" lon="6.17984">
        <ele>226.4</ele>
        <time>2022-01-11T14:15:32Z</time>
      </trkpt>
      <trkpt lat="47.65231" lon="6.17982">
        <ele>226.4</ele>
        <time>2022-01-11T14:15:34Z</time>
      </trkpt>
      <trkpt lat="47.65237" lon="6.17981">
        <ele>226.3</ele>
        <time>2022-01-11T14:15:36Z</time>
      </trkpt>
      <trkpt lat="47.65243" lon="6.17981">
        <ele>226.3</ele>
        <time>2022-01-11T14:15:38Z</time>
      </trkpt>
      <trkpt lat="47.65248" lon="6.17981">
        <ele>226.3</ele>
        <time>2022-01-11T14:15:40Z</time>
      </trkpt>
      <trkpt lat="47.65254" lon="6.17984">
        <ele>226.2</ele>
        <time>2022-01-11T14:15:42Z</time>
      </trkpt>
      <trkpt lat="47.65261" lon="6.17988">
        <ele>226</ele>
        <time>2022-01-11T14:15:44Z</time>
      </trkpt>
      <trkpt lat="47.65267" lon="6.17994">
        <ele>226</ele>
        <time>2022-01-11T14:15:46Z</time>
      </trkpt>
      <trkpt lat="47.65272" lon="6.18">
        <ele>226.2</ele>
        <time>2022-01-11T14:15:48Z</time>
      </trkpt>
      <trkpt lat="47.65277" lon="6.18008">
        <ele>226</ele>
        <time>2022-01-11T14:15:50Z</time>
      </trkpt>
      <trkpt lat="47.65281" lon="6.18016">
        <ele>225.8</ele>
        <time>2022-01-11T14:15:52Z</time>
      </trkpt>
      <trkpt lat="47.65285" lon="6.18026">
        <ele>225.7</ele>
        <time>2022-01-11T14:15:54Z</time>
      </trkpt>
      <trkpt lat="47.65288" lon="6.18037">
        <ele>225.8</ele>
        <time>2022-01-11T14:15:56Z</time>
      </trkpt>
      <trkpt lat="47.6529" lon="6.18048">
        <ele>226</ele>
        <time>2022-01-11T14:15:58Z</time>
      </trkpt>
      <trkpt lat="47.65291" lon="6.18059">
        <ele>226.1</ele>
        <time>2022-01-11T14:16:00Z</time>
      </trkpt>
      <trkpt lat="47.65293" lon="6.1807">
        <ele>226.1</ele>
        <time>2022-01-11T14:16:02Z</time>
      </trkpt>
      <trkpt lat="47.65295" lon="6.18082">
        <ele>226.2</ele>
        <time>2022-01-11T14:16:04Z</time>
      </trkpt>
      <trkpt lat="47.65296" lon="6.18093">
        <ele>226.1</ele>
        <time>2022-01-11T14:16:06Z</time>
      </trkpt>
      <trkpt lat="47.65298" lon="6.18104">
        <ele>226</ele>
        <time>2022-01-11T14:16:08Z</time>
      </trkpt>
      <trkpt lat="47.653" lon="6.18114">
        <ele>225.9</ele>
        <time>2022-01-11T14:16:10Z</time>
      </trkpt>
      <trkpt lat="47.65303" lon="6.18124">
        <ele>226</ele>
        <time>2022-01-11T14:16:12Z</time>
      </trkpt>
      <trkpt lat="47.65306" lon="6.18135">
        <ele>225.8</ele>
        <time>2022-01-11T14:16:14Z</time>
      </trkpt>
      <trkpt lat="47.65309" lon="6.18144">
        <ele>226</ele>
        <time>2022-01-11T14:16:16Z</time>
      </trkpt>
      <trkpt lat="47.65313" lon="6.18153">
        <ele>226.1</ele>
        <time>2022-01-11T14:16:18Z</time>
      </trkpt>
      <trkpt lat="47.65316" lon="6.18161">
        <ele>226.1</ele>
        <time>2022-01-11T14:16:20Z</time>
      </trkpt>
      <trkpt lat="47.6532" lon="6.18168">
        <ele>226</ele>
        <time>2022-01-11T14:16:22Z</time>
      </trkpt>
      <trkpt lat="47.65325" lon="6.18175">
        <ele>226.3</ele>
        <time>2022-01-11T14:16:24Z</time>
      </trkpt>
      <trkpt lat="47.6533" lon="6.18181">
        <ele>226.4</ele>
        <time>2022-01-11T14:16:26Z</time>
      </trkpt>
      <trkpt lat="47.65334" lon="6.18187">
        <ele>226.4</ele>
        <time>2022-01-11T14:16:28Z</time>
      </trkpt>
      <trkpt lat="47.65339" lon="6.18193">
        <ele>226.5</ele>
        <time>2022-01-11T14:16:30Z</time>
      </trkpt>
      <trkpt lat="47.65344" lon="6.18199">
        <ele>226.6</ele>
        <time>2022-01-11T14:16:32Z</time>
      </trkpt>
      <trkpt lat="47.65349" lon="6.18205">
        <ele>226.6</ele>
        <time>2022-01-11T14:16:34Z</time>
      </trkpt>
      <trkpt lat="47.65354" lon="6.18209">
        <ele>226.6</ele>
        <time>2022-01-11T14:16:36Z</time>
      </trkpt>
      <trkpt lat="47.65359" lon="6.18214">
        <ele>226.6</ele>
        <time>2022-01-11T14:16:38Z</time>
      </trkpt>
      <trkpt lat="47.65363" lon="6.18219">
        <ele>226.6</ele>
        <time>2022-01-11T14:16:40Z</time>
      </trkpt>
      <trkpt lat="47.65369" lon="6.18223">
        <ele>226.6</ele>
        <time>2022-01-11T14:16:42Z</time>
      </trkpt>
      <trkpt lat="47.65373" lon="6.18228">
        <ele>226.8</ele>
        <time>2022-01-11T14:16:44Z</time>
      </trkpt>
      <trkpt lat="47.65378" lon="6.18233">
        <ele>227.2</ele>
        <time>2022-01-11T14:16:46Z</time>
      </trkpt>
      <trkpt lat="47.65383" lon="6.18237">
        <ele>227.4</ele>
        <time>2022-01-11T14:16:48Z</time>
      </trkpt>
      <trkpt lat="47.65388" lon="6.1824">
        <ele>227.7</ele>
        <time>2022-01-11T14:16:50Z</time>
      </trkpt>
      <trkpt lat="47.65394" lon="6.18245">
        <ele>228</ele>
        <time>2022-01-11T14:16:52Z</time>
      </trkpt>
      <trkpt lat="47.65399" lon="6.18248">
        <ele>228.1</ele>
        <time>2022-01-11T14:16:54Z</time>
      </trkpt>
      <trkpt lat="47.65404" lon="6.18251">
        <ele>228.1</ele>
        <time>2022-01-11T14:16:56Z</time>
      </trkpt>
      <trkpt lat="47.6541" lon="6.18254">
        <ele>228</ele>
        <time>2022-01-11T14:16:59Z</time>
      </trkpt>
      <trkpt lat="47.65415" lon="6.18256">
        <ele>228</ele>
        <time>2022-01-11T14:17:01Z</time>
      </trkpt>
      <trkpt lat="47.65421" lon="6.1826">
        <ele>228.4</ele>
        <time>2022-01-11T14:17:04Z</time>
      </trkpt>
      <trkpt lat="47.65426" lon="6.18262">
        <ele>228.8</ele>
        <time>2022-01-11T14:17:06Z</time>
      </trkpt>
      <trkpt lat="47.65432" lon="6.18264">
        <ele>229.1</ele>
        <time>2022-01-11T14:17:09Z</time>
      </trkpt>
      <trkpt lat="47.65437" lon="6.18267">
        <ele>229.4</ele>
        <time>2022-01-11T14:17:12Z</time>
      </trkpt>
      <trkpt lat="47.65442" lon="6.18269">
        <ele>229.7</ele>
        <time>2022-01-11T14:17:15Z</time>
      </trkpt>
      <trkpt lat="47.65448" lon="6.1827">
        <ele>230.1</ele>
        <time>2022-01-11T14:17:18Z</time>
      </trkpt>
      <trkpt lat="47.65454" lon="6.18271">
        <ele>230.3</ele>
        <time>2022-01-11T14:17:21Z</time>
      </trkpt>
      <trkpt lat="47.65459" lon="6.18271">
        <ele>230.5</ele>
        <time>2022-01-11T14:17:24Z</time>
      </trkpt>
      <trkpt lat="47.65463" lon="6.18271">
        <ele>230.6</ele>
        <time>2022-01-11T14:17:27Z</time>
      </trkpt>
      <trkpt lat="47.65468" lon="6.18272">
        <ele>231</ele>
        <time>2022-01-11T14:17:32Z</time>
      </trkpt>
      <trkpt lat="47.65473" lon="6.18272">
        <ele>231.3</ele>
        <time>2022-01-11T14:17:35Z</time>
      </trkpt>
      <trkpt lat="47.65478" lon="6.18271">
        <ele>231.4</ele>
        <time>2022-01-11T14:17:38Z</time>
      </trkpt>
      <trkpt lat="47.65483" lon="6.1827">
        <ele>231.7</ele>
        <time>2022-01-11T14:17:41Z</time>
      </trkpt>
      <trkpt lat="47.65489" lon="6.18267">
        <ele>231.9</ele>
        <time>2022-01-11T14:17:42Z</time>
      </trkpt>
      <trkpt lat="47.65494" lon="6.18266">
        <ele>232.2</ele>
        <time>2022-01-11T14:17:47Z</time>
      </trkpt>
      <trkpt lat="47.65499" lon="6.18264">
        <ele>232.4</ele>
        <time>2022-01-11T14:17:48Z</time>
      </trkpt>
      <trkpt lat="47.65504" lon="6.18262">
        <ele>232.5</ele>
        <time>2022-01-11T14:17:53Z</time>
      </trkpt>
      <trkpt lat="47.65514" lon="6.18256">
        <ele>232.7</ele>
        <time>2022-01-11T14:17:56Z</time>
      </trkpt>
      <trkpt lat="47.65519" lon="6.18256">
        <ele>232.9</ele>
        <time>2022-01-11T14:17:58Z</time>
      </trkpt>
      <trkpt lat="47.65524" lon="6.18254">
        <ele>233.1</ele>
        <time>2022-01-11T14:18:01Z</time>
      </trkpt>
      <trkpt lat="47.6553" lon="6.18252">
        <ele>233.4</ele>
        <time>2022-01-11T14:18:04Z</time>
      </trkpt>
      <trkpt lat="47.65535" lon="6.1825">
        <ele>233.5</ele>
        <time>2022-01-11T14:18:07Z</time>
      </trkpt>
      <trkpt lat="47.6554" lon="6.18247">
        <ele>233.5</ele>
        <time>2022-01-11T14:18:10Z</time>
      </trkpt>
      <trkpt lat="47.65545" lon="6.18244">
        <ele>233.7</ele>
        <time>2022-01-11T14:18:13Z</time>
      </trkpt>
      <trkpt lat="47.6555" lon="6.18243">
        <ele>234</ele>
        <time>2022-01-11T14:18:16Z</time>
      </trkpt>
      <trkpt lat="47.65556" lon="6.18239">
        <ele>234.2</ele>
        <time>2022-01-11T14:18:19Z</time>
      </trkpt>
      <trkpt lat="47.65561" lon="6.18236">
        <ele>234.4</ele>
        <time>2022-01-11T14:18:22Z</time>
      </trkpt>
      <trkpt lat="47.65565" lon="6.18232">
        <ele>234.3</ele>
        <time>2022-01-11T14:18:27Z</time>
      </trkpt>
      <trkpt lat="47.65569" lon="6.18228">
        <ele>234.1</ele>
        <time>2022-01-11T14:18:29Z</time>
      </trkpt>
      <trkpt lat="47.65573" lon="6.18224">
        <ele>233.8</ele>
        <time>2022-01-11T14:18:31Z</time>
      </trkpt>
      <trkpt lat="47.65577" lon="6.18219">
        <ele>233.6</ele>
        <time>2022-01-11T14:18:33Z</time>
      </trkpt>
      <trkpt lat="47.65582" lon="6.18214">
        <ele>233.6</ele>
        <time>2022-01-11T14:18:35Z</time>
      </trkpt>
      <trkpt lat="47.6559" lon="6.18201">
        <ele>233.6</ele>
        <time>2022-01-11T14:18:38Z</time>
      </trkpt>
      <trkpt lat="47.65593" lon="6.18196">
        <ele>233.4</ele>
        <time>2022-01-11T14:18:39Z</time>
      </trkpt>
      <trkpt lat="47.65604" lon="6.18183">
        <ele>232.3</ele>
        <time>2022-01-11T14:18:42Z</time>
      </trkpt>
      <trkpt lat="47.65618" lon="6.18174">
        <ele>232.5</ele>
        <time>2022-01-11T14:18:45Z</time>
      </trkpt>
      <trkpt lat="47.65624" lon="6.18174">
        <ele>233.2</ele>
        <time>2022-01-11T14:18:46Z</time>
      </trkpt>
      <trkpt lat="47.6563" lon="6.18173">
        <ele>233.8</ele>
        <time>2022-01-11T14:18:47Z</time>
      </trkpt>
      <trkpt lat="47.65635" lon="6.18172">
        <ele>234.1</ele>
        <time>2022-01-11T14:18:48Z</time>
      </trkpt>
      <trkpt lat="47.65641" lon="6.18168">
        <ele>234.4</ele>
        <time>2022-01-11T14:18:50Z</time>
      </trkpt>
      <trkpt lat="47.65647" lon="6.18164">
        <ele>234.6</ele>
        <time>2022-01-11T14:18:52Z</time>
      </trkpt>
      <trkpt lat="47.65656" lon="6.18158">
        <ele>234.9</ele>
        <time>2022-01-11T14:18:57Z</time>
      </trkpt>
      <trkpt lat="47.6566" lon="6.18153">
        <ele>234.9</ele>
        <time>2022-01-11T14:18:59Z</time>
      </trkpt>
      <trkpt lat="47.65665" lon="6.18149">
        <ele>234.9</ele>
        <time>2022-01-11T14:19:01Z</time>
      </trkpt>
      <trkpt lat="47.65669" lon="6.18145">
        <ele>235</ele>
        <time>2022-01-11T14:19:04Z</time>
      </trkpt>
      <trkpt lat="47.65673" lon="6.18142">
        <ele>235.1</ele>
        <time>2022-01-11T14:19:06Z</time>
      </trkpt>
      <trkpt lat="47.65681" lon="6.1813">
        <ele>234.9</ele>
        <time>2022-01-11T14:19:08Z</time>
      </trkpt>
      <trkpt lat="47.65685" lon="6.18124">
        <ele>234.8</ele>
        <time>2022-01-11T14:19:12Z</time>
      </trkpt>
      <trkpt lat="47.65688" lon="6.18117">
        <ele>234.7</ele>
        <time>2022-01-11T14:19:14Z</time>
      </trkpt>
      <trkpt lat="47.65693" lon="6.18107">
        <ele>234.7</ele>
        <time>2022-01-11T14:19:16Z</time>
      </trkpt>
      <trkpt lat="47.65696" lon="6.181">
        <ele>234.8</ele>
        <time>2022-01-11T14:19:18Z</time>
      </trkpt>
      <trkpt lat="47.65699" lon="6.18094">
        <ele>235</ele>
        <time>2022-01-11T14:19:20Z</time>
      </trkpt>
      <trkpt lat="47.65703" lon="6.18088">
        <ele>235.2</ele>
        <time>2022-01-11T14:19:22Z</time>
      </trkpt>
      <trkpt lat="47.65711" lon="6.18078">
        <ele>235.4</ele>
        <time>2022-01-11T14:19:27Z</time>
      </trkpt>
      <trkpt lat="47.65715" lon="6.18073">
        <ele>235.5</ele>
        <time>2022-01-11T14:19:29Z</time>
      </trkpt>
      <trkpt lat="47.65719" lon="6.18068">
        <ele>235.6</ele>
        <time>2022-01-11T14:19:32Z</time>
      </trkpt>
      <trkpt lat="47.65729" lon="6.18059">
        <ele>236.6</ele>
        <time>2022-01-11T14:19:35Z</time>
      </trkpt>
      <trkpt lat="47.65734" lon="6.18056">
        <ele>237.2</ele>
        <time>2022-01-11T14:19:40Z</time>
      </trkpt>
      <trkpt lat="47.65738" lon="6.18053">
        <ele>237.7</ele>
        <time>2022-01-11T14:19:43Z</time>
      </trkpt>
      <trkpt lat="47.65744" lon="6.18049">
        <ele>238.1</ele>
        <time>2022-01-11T14:19:44Z</time>
      </trkpt>
      <trkpt lat="47.6575" lon="6.18046">
        <ele>238.6</ele>
        <time>2022-01-11T14:19:49Z</time>
      </trkpt>
      <trkpt lat="47.65755" lon="6.18043">
        <ele>238.9</ele>
        <time>2022-01-11T14:19:52Z</time>
      </trkpt>
      <trkpt lat="47.65765" lon="6.1804">
        <ele>239.9</ele>
        <time>2022-01-11T14:19:54Z</time>
      </trkpt>
      <trkpt lat="47.65769" lon="6.18036">
        <ele>240</ele>
        <time>2022-01-11T14:19:59Z</time>
      </trkpt>
      <trkpt lat="47.65774" lon="6.18032">
        <ele>240</ele>
        <time>2022-01-11T14:20:02Z</time>
      </trkpt>
      <trkpt lat="47.65778" lon="6.18029">
        <ele>240.1</ele>
        <time>2022-01-11T14:20:04Z</time>
      </trkpt>
      <trkpt lat="47.65782" lon="6.18026">
        <ele>240.3</ele>
        <time>2022-01-11T14:20:06Z</time>
      </trkpt>
      <trkpt lat="47.65786" lon="6.18022">
        <ele>240.2</ele>
        <time>2022-01-11T14:20:08Z</time>
      </trkpt>
      <trkpt lat="47.65796" lon="6.18014">
        <ele>240.1</ele>
        <time>2022-01-11T14:20:10Z</time>
      </trkpt>
      <trkpt lat="47.65801" lon="6.1801">
        <ele>240</ele>
        <time>2022-01-11T14:20:14Z</time>
      </trkpt>
      <trkpt lat="47.65807" lon="6.18005">
        <ele>239.8</ele>
        <time>2022-01-11T14:20:16Z</time>
      </trkpt>
      <trkpt lat="47.65821" lon="6.17994">
        <ele>238.9</ele>
        <time>2022-01-11T14:20:18Z</time>
      </trkpt>
      <trkpt lat="47.65825" lon="6.17991">
        <ele>238.7</ele>
        <time>2022-01-11T14:20:21Z</time>
      </trkpt>
      <trkpt lat="47.65834" lon="6.17984">
        <ele>238.2</ele>
        <time>2022-01-11T14:20:23Z</time>
      </trkpt>
      <trkpt lat="47.65842" lon="6.17978">
        <ele>237.6</ele>
        <time>2022-01-11T14:20:25Z</time>
      </trkpt>
      <trkpt lat="47.65848" lon="6.17973">
        <ele>237.1</ele>
        <time>2022-01-11T14:20:26Z</time>
      </trkpt>
      <trkpt lat="47.65854" lon="6.1797">
        <ele>236.8</ele>
        <time>2022-01-11T14:20:27Z</time>
      </trkpt>
      <trkpt lat="47.65882" lon="6.17962">
        <ele>235.4</ele>
        <time>2022-01-11T14:20:28Z</time>
      </trkpt>
      <trkpt lat="47.65889" lon="6.17963">
        <ele>235.3</ele>
        <time>2022-01-11T14:20:29Z</time>
      </trkpt>
      <trkpt lat="47.65894" lon="6.17966">
        <ele>235.4</ele>
        <time>2022-01-11T14:20:30Z</time>
      </trkpt>
      <trkpt lat="47.65899" lon="6.1797">
        <ele>235.5</ele>
        <time>2022-01-11T14:20:31Z</time>
      </trkpt>
      <trkpt lat="47.65903" lon="6.17974">
        <ele>235.7</ele>
        <time>2022-01-11T14:20:32Z</time>
      </trkpt>
      <trkpt lat="47.6591" lon="6.17981">
        <ele>236.2</ele>
        <time>2022-01-11T14:20:34Z</time>
      </trkpt>
      <trkpt lat="47.65917" lon="6.17984">
        <ele>236.3</ele>
        <time>2022-01-11T14:20:38Z</time>
      </trkpt>
      <trkpt lat="47.65927" lon="6.17991">
        <ele>237</ele>
        <time>2022-01-11T14:20:40Z</time>
      </trkpt>
      <trkpt lat="47.65931" lon="6.17995">
        <ele>237.4</ele>
        <time>2022-01-11T14:20:45Z</time>
      </trkpt>
      <trkpt lat="47.65942" lon="6.18004">
        <ele>238.3</ele>
        <time>2022-01-11T14:20:48Z</time>
      </trkpt>
      <trkpt lat="47.65945" lon="6.18008">
        <ele>238.6</ele>
        <time>2022-01-11T14:20:51Z</time>
      </trkpt>
      <trkpt lat="47.65949" lon="6.18013">
        <ele>238.8</ele>
        <time>2022-01-11T14:20:54Z</time>
      </trkpt>
      <trkpt lat="47.65953" lon="6.18017">
        <ele>239.1</ele>
        <time>2022-01-11T14:20:57Z</time>
      </trkpt>
      <trkpt lat="47.65958" lon="6.18022">
        <ele>239.5</ele>
        <time>2022-01-11T14:21:01Z</time>
      </trkpt>
      <trkpt lat="47.65963" lon="6.18026">
        <ele>239.9</ele>
        <time>2022-01-11T14:21:05Z</time>
      </trkpt>
      <trkpt lat="47.65968" lon="6.18031">
        <ele>240.3</ele>
        <time>2022-01-11T14:21:09Z</time>
      </trkpt>
      <trkpt lat="47.65973" lon="6.18034">
        <ele>240.7</ele>
        <time>2022-01-11T14:21:13Z</time>
      </trkpt>
      <trkpt lat="47.65977" lon="6.1804">
        <ele>241.3</ele>
        <time>2022-01-11T14:21:18Z</time>
      </trkpt>
      <trkpt lat="47.65981" lon="6.18045">
        <ele>241.8</ele>
        <time>2022-01-11T14:21:22Z</time>
      </trkpt>
      <trkpt lat="47.65985" lon="6.18049">
        <ele>242.3</ele>
        <time>2022-01-11T14:21:26Z</time>
      </trkpt>
      <trkpt lat="47.65989" lon="6.18054">
        <ele>242.8</ele>
        <time>2022-01-11T14:21:30Z</time>
      </trkpt>
      <trkpt lat="47.65993" lon="6.18059">
        <ele>243.3</ele>
        <time>2022-01-11T14:21:34Z</time>
      </trkpt>
      <trkpt lat="47.65997" lon="6.18064">
        <ele>243.6</ele>
        <time>2022-01-11T14:21:39Z</time>
      </trkpt>
      <trkpt lat="47.66" lon="6.18068">
        <ele>243.9</ele>
        <time>2022-01-11T14:21:43Z</time>
      </trkpt>
      <trkpt lat="47.66004" lon="6.18073">
        <ele>244.3</ele>
        <time>2022-01-11T14:21:47Z</time>
      </trkpt>
      <trkpt lat="47.66007" lon="6.18079">
        <ele>244.7</ele>
        <time>2022-01-11T14:21:51Z</time>
      </trkpt>
      <trkpt lat="47.6601" lon="6.18084">
        <ele>245.1</ele>
        <time>2022-01-11T14:21:55Z</time>
      </trkpt>
      <trkpt lat="47.66014" lon="6.1809">
        <ele>245.8</ele>
        <time>2022-01-11T14:22:00Z</time>
      </trkpt>
      <trkpt lat="47.66017" lon="6.18095">
        <ele>246.4</ele>
        <time>2022-01-11T14:22:04Z</time>
      </trkpt>
      <trkpt lat="47.66021" lon="6.18096">
        <ele>246.4</ele>
        <time>2022-01-11T14:22:08Z</time>
      </trkpt>
      <trkpt lat="47.66026" lon="6.18098">
        <ele>246.7</ele>
        <time>2022-01-11T14:22:12Z</time>
      </trkpt>
      <trkpt lat="47.6603" lon="6.18103">
        <ele>247.2</ele>
        <time>2022-01-11T14:22:16Z</time>
      </trkpt>
      <trkpt lat="47.66035" lon="6.18103">
        <ele>247.4</ele>
        <time>2022-01-11T14:22:20Z</time>
      </trkpt>
      <trkpt lat="47.6604" lon="6.18107">
        <ele>248</ele>
        <time>2022-01-11T14:22:26Z</time>
      </trkpt>
      <trkpt lat="47.66049" lon="6.18111">
        <ele>248.7</ele>
        <time>2022-01-11T14:22:29Z</time>
      </trkpt>
      <trkpt lat="47.66055" lon="6.18112">
        <ele>249.1</ele>
        <time>2022-01-11T14:22:32Z</time>
      </trkpt>
      <trkpt lat="47.6606" lon="6.18115">
        <ele>249.5</ele>
        <time>2022-01-11T14:22:35Z</time>
      </trkpt>
      <trkpt lat="47.66065" lon="6.18118">
        <ele>249.9</ele>
        <time>2022-01-11T14:22:38Z</time>
      </trkpt>
      <trkpt lat="47.6607" lon="6.1812">
        <ele>250.3</ele>
        <time>2022-01-11T14:22:41Z</time>
      </trkpt>
      <trkpt lat="47.66075" lon="6.18122">
        <ele>250.6</ele>
        <time>2022-01-11T14:22:44Z</time>
      </trkpt>
      <trkpt lat="47.6608" lon="6.18123">
        <ele>250.7</ele>
        <time>2022-01-11T14:22:47Z</time>
      </trkpt>
      <trkpt lat="47.66085" lon="6.18125">
        <ele>251</ele>
        <time>2022-01-11T14:22:50Z</time>
      </trkpt>
      <trkpt lat="47.6609" lon="6.18128">
        <ele>251.5</ele>
        <time>2022-01-11T14:22:53Z</time>
      </trkpt>
      <trkpt lat="47.66095" lon="6.18131">
        <ele>251.9</ele>
        <time>2022-01-11T14:22:56Z</time>
      </trkpt>
      <trkpt lat="47.661" lon="6.18133">
        <ele>252.2</ele>
        <time>2022-01-11T14:22:59Z</time>
      </trkpt>
      <trkpt lat="47.66105" lon="6.18136">
        <ele>252.6</ele>
        <time>2022-01-11T14:23:02Z</time>
      </trkpt>
      <trkpt lat="47.66109" lon="6.18139">
        <ele>253</ele>
        <time>2022-01-11T14:23:05Z</time>
      </trkpt>
      <trkpt lat="47.66115" lon="6.18142">
        <ele>253.2</ele>
        <time>2022-01-11T14:23:09Z</time>
      </trkpt>
      <trkpt lat="47.66121" lon="6.18146">
        <ele>253.4</ele>
        <time>2022-01-11T14:23:13Z</time>
      </trkpt>
      <trkpt lat="47.66126" lon="6.18148">
        <ele>253.4</ele>
        <time>2022-01-11T14:23:17Z</time>
      </trkpt>
      <trkpt lat="47.66131" lon="6.1815">
        <ele>253.5</ele>
        <time>2022-01-11T14:23:21Z</time>
      </trkpt>
      <trkpt lat="47.66136" lon="6.18152">
        <ele>253.5</ele>
        <time>2022-01-11T14:23:25Z</time>
      </trkpt>
      <trkpt lat="47.6614" lon="6.18155">
        <ele>253.7</ele>
        <time>2022-01-11T14:23:29Z</time>
      </trkpt>
      <trkpt lat="47.66145" lon="6.18158">
        <ele>254</ele>
        <time>2022-01-11T14:23:33Z</time>
      </trkpt>
      <trkpt lat="47.6615" lon="6.1816">
        <ele>254.3</ele>
        <time>2022-01-11T14:23:36Z</time>
      </trkpt>
      <trkpt lat="47.66155" lon="6.18164">
        <ele>254.7</ele>
        <time>2022-01-11T14:23:40Z</time>
      </trkpt>
      <trkpt lat="47.66159" lon="6.18168">
        <ele>255.2</ele>
        <time>2022-01-11T14:23:43Z</time>
      </trkpt>
      <trkpt lat="47.66163" lon="6.18173">
        <ele>255.7</ele>
        <time>2022-01-11T14:23:46Z</time>
      </trkpt>
      <trkpt lat="47.66168" lon="6.18177">
        <ele>256.1</ele>
        <time>2022-01-11T14:23:50Z</time>
      </trkpt>
      <trkpt lat="47.66171" lon="6.18182">
        <ele>256.5</ele>
        <time>2022-01-11T14:23:53Z</time>
      </trkpt>
      <trkpt lat="47.66176" lon="6.18187">
        <ele>256.8</ele>
        <time>2022-01-11T14:23:57Z</time>
      </trkpt>
      <trkpt lat="47.66179" lon="6.18191">
        <ele>257.1</ele>
        <time>2022-01-11T14:24:06Z</time>
      </trkpt>
      <trkpt lat="47.66183" lon="6.18197">
        <ele>257.7</ele>
        <time>2022-01-11T14:24:07Z</time>
      </trkpt>
      <trkpt lat="47.66187" lon="6.18202">
        <ele>258.1</ele>
        <time>2022-01-11T14:24:11Z</time>
      </trkpt>
      <trkpt lat="47.66191" lon="6.18207">
        <ele>258.5</ele>
        <time>2022-01-11T14:24:15Z</time>
      </trkpt>
      <trkpt lat="47.66195" lon="6.18212">
        <ele>258.9</ele>
        <time>2022-01-11T14:24:19Z</time>
      </trkpt>
      <trkpt lat="47.66199" lon="6.18218">
        <ele>259</ele>
        <time>2022-01-11T14:24:23Z</time>
      </trkpt>
      <trkpt lat="47.66202" lon="6.18223">
        <ele>259.2</ele>
        <time>2022-01-11T14:24:26Z</time>
      </trkpt>
      <trkpt lat="47.66206" lon="6.18228">
        <ele>259.5</ele>
        <time>2022-01-11T14:24:30Z</time>
      </trkpt>
      <trkpt lat="47.66209" lon="6.18234">
        <ele>259.7</ele>
        <time>2022-01-11T14:24:34Z</time>
      </trkpt>
      <trkpt lat="47.66212" lon="6.1824">
        <ele>260.1</ele>
        <time>2022-01-11T14:24:38Z</time>
      </trkpt>
      <trkpt lat="47.66214" lon="6.18246">
        <ele>260.4</ele>
        <time>2022-01-11T14:24:42Z</time>
      </trkpt>
      <trkpt lat="47.66217" lon="6.18253">
        <ele>260.8</ele>
        <time>2022-01-11T14:24:46Z</time>
      </trkpt>
      <trkpt lat="47.6622" lon="6.18259">
        <ele>261.2</ele>
        <time>2022-01-11T14:24:50Z</time>
      </trkpt>
      <trkpt lat="47.66223" lon="6.18266">
        <ele>261.6</ele>
        <time>2022-01-11T14:24:54Z</time>
      </trkpt>
      <trkpt lat="47.66226" lon="6.18271">
        <ele>262</ele>
        <time>2022-01-11T14:24:58Z</time>
      </trkpt>
      <trkpt lat="47.66227" lon="6.18278">
        <ele>262.4</ele>
        <time>2022-01-11T14:25:02Z</time>
      </trkpt>
      <trkpt lat="47.66229" lon="6.18285">
        <ele>262.8</ele>
        <time>2022-01-11T14:25:06Z</time>
      </trkpt>
      <trkpt lat="47.66229" lon="6.18293">
        <ele>263.3</ele>
        <time>2022-01-11T14:25:10Z</time>
      </trkpt>
      <trkpt lat="47.66229" lon="6.18301">
        <ele>264</ele>
        <time>2022-01-11T14:25:15Z</time>
      </trkpt>
      <trkpt lat="47.66226" lon="6.18307">
        <ele>264.7</ele>
        <time>2022-01-11T14:25:18Z</time>
      </trkpt>
      <trkpt lat="47.66221" lon="6.1831">
        <ele>265.6</ele>
        <time>2022-01-11T14:25:22Z</time>
      </trkpt>
      <trkpt lat="47.66217" lon="6.18312">
        <ele>266.3</ele>
        <time>2022-01-11T14:25:29Z</time>
      </trkpt>
      <trkpt lat="47.66212" lon="6.18312">
        <ele>266.8</ele>
        <time>2022-01-11T14:25:30Z</time>
      </trkpt>
      <trkpt lat="47.66207" lon="6.18311">
        <ele>267.3</ele>
        <time>2022-01-11T14:25:34Z</time>
      </trkpt>
      <trkpt lat="47.66202" lon="6.18311">
        <ele>267.8</ele>
        <time>2022-01-11T14:25:39Z</time>
      </trkpt>
      <trkpt lat="47.66197" lon="6.18308">
        <ele>267.9</ele>
        <time>2022-01-11T14:25:43Z</time>
      </trkpt>
      <trkpt lat="47.66192" lon="6.18305">
        <ele>268.2</ele>
        <time>2022-01-11T14:25:48Z</time>
      </trkpt>
      <trkpt lat="47.66188" lon="6.18303">
        <ele>268.5</ele>
        <time>2022-01-11T14:25:52Z</time>
      </trkpt>
      <trkpt lat="47.66183" lon="6.183">
        <ele>268.8</ele>
        <time>2022-01-11T14:25:56Z</time>
      </trkpt>
      <trkpt lat="47.66177" lon="6.18298">
        <ele>269.2</ele>
        <time>2022-01-11T14:26:00Z</time>
      </trkpt>
      <trkpt lat="47.66173" lon="6.18296">
        <ele>269.6</ele>
        <time>2022-01-11T14:26:03Z</time>
      </trkpt>
      <trkpt lat="47.66168" lon="6.18293">
        <ele>269.9</ele>
        <time>2022-01-11T14:26:06Z</time>
      </trkpt>
      <trkpt lat="47.66163" lon="6.1829">
        <ele>270.1</ele>
        <time>2022-01-11T14:26:11Z</time>
      </trkpt>
      <trkpt lat="47.66159" lon="6.18286">
        <ele>270.2</ele>
        <time>2022-01-11T14:26:15Z</time>
      </trkpt>
      <trkpt lat="47.66154" lon="6.18283">
        <ele>270.4</ele>
        <time>2022-01-11T14:26:19Z</time>
      </trkpt>
      <trkpt lat="47.66148" lon="6.18279">
        <ele>270.5</ele>
        <time>2022-01-11T14:26:23Z</time>
      </trkpt>
      <trkpt lat="47.66143" lon="6.18277">
        <ele>270.6</ele>
        <time>2022-01-11T14:26:27Z</time>
      </trkpt>
      <trkpt lat="47.66138" lon="6.18275">
        <ele>270.7</ele>
        <time>2022-01-11T14:26:30Z</time>
      </trkpt>
      <trkpt lat="47.66134" lon="6.18273">
        <ele>270.7</ele>
        <time>2022-01-11T14:26:33Z</time>
      </trkpt>
      <trkpt lat="47.66129" lon="6.1827">
        <ele>270.7</ele>
        <time>2022-01-11T14:26:36Z</time>
      </trkpt>
      <trkpt lat="47.66123" lon="6.18269">
        <ele>270.8</ele>
        <time>2022-01-11T14:26:39Z</time>
      </trkpt>
      <trkpt lat="47.66117" lon="6.18267">
        <ele>270.9</ele>
        <time>2022-01-11T14:26:42Z</time>
      </trkpt>
      <trkpt lat="47.66113" lon="6.18264">
        <ele>270.9</ele>
        <time>2022-01-11T14:26:44Z</time>
      </trkpt>
      <trkpt lat="47.66106" lon="6.18263">
        <ele>271</ele>
        <time>2022-01-11T14:26:47Z</time>
      </trkpt>
      <trkpt lat="47.661" lon="6.1826">
        <ele>270.9</ele>
        <time>2022-01-11T14:26:50Z</time>
      </trkpt>
      <trkpt lat="47.66095" lon="6.18259">
        <ele>270.8</ele>
        <time>2022-01-11T14:26:52Z</time>
      </trkpt>
      <trkpt lat="47.66091" lon="6.18258">
        <ele>270.8</ele>
        <time>2022-01-11T14:26:54Z</time>
      </trkpt>
      <trkpt lat="47.66086" lon="6.18257">
        <ele>270.8</ele>
        <time>2022-01-11T14:26:56Z</time>
      </trkpt>
      <trkpt lat="47.66081" lon="6.18257">
        <ele>270.7</ele>
        <time>2022-01-11T14:26:58Z</time>
      </trkpt>
      <trkpt lat="47.66076" lon="6.18256">
        <ele>270.7</ele>
        <time>2022-01-11T14:27:00Z</time>
      </trkpt>
      <trkpt lat="47.66071" lon="6.18256">
        <ele>270.7</ele>
        <time>2022-01-11T14:27:02Z</time>
      </trkpt>
      <trkpt lat="47.66066" lon="6.18255">
        <ele>270.6</ele>
        <time>2022-01-11T14:27:04Z</time>
      </trkpt>
      <trkpt lat="47.6606" lon="6.18255">
        <ele>270.5</ele>
        <time>2022-01-11T14:27:07Z</time>
      </trkpt>
      <trkpt lat="47.66053" lon="6.18255">
        <ele>270.6</ele>
        <time>2022-01-11T14:27:10Z</time>
      </trkpt>
      <trkpt lat="47.66049" lon="6.18255">
        <ele>270.5</ele>
        <time>2022-01-11T14:27:12Z</time>
      </trkpt>
      <trkpt lat="47.66043" lon="6.18255">
        <ele>270.4</ele>
        <time>2022-01-11T14:27:14Z</time>
      </trkpt>
      <trkpt lat="47.66038" lon="6.18255">
        <ele>270.4</ele>
        <time>2022-01-11T14:27:16Z</time>
      </trkpt>
      <trkpt lat="47.66033" lon="6.18255">
        <ele>270.4</ele>
        <time>2022-01-11T14:27:18Z</time>
      </trkpt>
      <trkpt lat="47.66028" lon="6.18256">
        <ele>270.4</ele>
        <time>2022-01-11T14:27:20Z</time>
      </trkpt>
      <trkpt lat="47.66023" lon="6.18256">
        <ele>270.5</ele>
        <time>2022-01-11T14:27:22Z</time>
      </trkpt>
      <trkpt lat="47.66018" lon="6.18256">
        <ele>270.5</ele>
        <time>2022-01-11T14:27:24Z</time>
      </trkpt>
      <trkpt lat="47.66013" lon="6.18255">
        <ele>270.3</ele>
        <time>2022-01-11T14:27:26Z</time>
      </trkpt>
      <trkpt lat="47.66008" lon="6.18251">
        <ele>270.1</ele>
        <time>2022-01-11T14:27:28Z</time>
      </trkpt>
      <trkpt lat="47.66004" lon="6.18247">
        <ele>269.8</ele>
        <time>2022-01-11T14:27:30Z</time>
      </trkpt>
      <trkpt lat="47.65998" lon="6.18243">
        <ele>269.4</ele>
        <time>2022-01-11T14:27:32Z</time>
      </trkpt>
      <trkpt lat="47.65994" lon="6.18242">
        <ele>269</ele>
        <time>2022-01-11T14:27:37Z</time>
      </trkpt>
      <trkpt lat="47.65989" lon="6.1824">
        <ele>268.6</ele>
        <time>2022-01-11T14:27:38Z</time>
      </trkpt>
      <trkpt lat="47.65984" lon="6.18238">
        <ele>268.2</ele>
        <time>2022-01-11T14:27:39Z</time>
      </trkpt>
      <trkpt lat="47.65978" lon="6.18236">
        <ele>267.8</ele>
        <time>2022-01-11T14:27:40Z</time>
      </trkpt>
      <trkpt lat="47.65972" lon="6.18234">
        <ele>267.4</ele>
        <time>2022-01-11T14:27:41Z</time>
      </trkpt>
      <trkpt lat="47.65966" lon="6.18232">
        <ele>267.1</ele>
        <time>2022-01-11T14:27:42Z</time>
      </trkpt>
      <trkpt lat="47.65961" lon="6.18229">
        <ele>266.8</ele>
        <time>2022-01-11T14:27:43Z</time>
      </trkpt>
      <trkpt lat="47.65935" lon="6.18207">
        <ele>264.7</ele>
        <time>2022-01-11T14:27:43Z</time>
      </trkpt>
      <trkpt lat="47.65928" lon="6.18202">
        <ele>264.4</ele>
        <time>2022-01-11T14:27:44Z</time>
      </trkpt>
      <trkpt lat="47.6592" lon="6.18199">
        <ele>264.2</ele>
        <time>2022-01-11T14:27:45Z</time>
      </trkpt>
      <trkpt lat="47.65913" lon="6.18197">
        <ele>264.1</ele>
        <time>2022-01-11T14:27:46Z</time>
      </trkpt>
      <trkpt lat="47.65907" lon="6.18195">
        <ele>264</ele>
        <time>2022-01-11T14:27:47Z</time>
      </trkpt>
      <trkpt lat="47.659" lon="6.18193">
        <ele>263.9</ele>
        <time>2022-01-11T14:27:48Z</time>
      </trkpt>
      <trkpt lat="47.65893" lon="6.18192">
        <ele>263.8</ele>
        <time>2022-01-11T14:27:49Z</time>
      </trkpt>
      <trkpt lat="47.65887" lon="6.1819">
        <ele>263.7</ele>
        <time>2022-01-11T14:27:50Z</time>
      </trkpt>
      <trkpt lat="47.65881" lon="6.18189">
        <ele>263.6</ele>
        <time>2022-01-11T14:27:51Z</time>
      </trkpt>
      <trkpt lat="47.65875" lon="6.18187">
        <ele>263.6</ele>
        <time>2022-01-11T14:27:52Z</time>
      </trkpt>
      <trkpt lat="47.6587" lon="6.18185">
        <ele>263.6</ele>
        <time>2022-01-11T14:27:53Z</time>
      </trkpt>
      <trkpt lat="47.65865" lon="6.18184">
        <ele>263.6</ele>
        <time>2022-01-11T14:27:54Z</time>
      </trkpt>
      <trkpt lat="47.6586" lon="6.18183">
        <ele>263.6</ele>
        <time>2022-01-11T14:27:55Z</time>
      </trkpt>
      <trkpt lat="47.65855" lon="6.18183">
        <ele>263.6</ele>
        <time>2022-01-11T14:27:56Z</time>
      </trkpt>
      <trkpt lat="47.65849" lon="6.18189">
        <ele>263.8</ele>
        <time>2022-01-11T14:27:58Z</time>
      </trkpt>
      <trkpt lat="47.65846" lon="6.18198">
        <ele>264.2</ele>
        <time>2022-01-11T14:28:00Z</time>
      </trkpt>
      <trkpt lat="47.65846" lon="6.18205">
        <ele>264.8</ele>
        <time>2022-01-11T14:28:02Z</time>
      </trkpt>
      <trkpt lat="47.65848" lon="6.18214">
        <ele>265.4</ele>
        <time>2022-01-11T14:28:05Z</time>
      </trkpt>
      <trkpt lat="47.6585" lon="6.18221">
        <ele>265.9</ele>
        <time>2022-01-11T14:28:08Z</time>
      </trkpt>
      <trkpt lat="47.6585" lon="6.18229">
        <ele>266.3</ele>
        <time>2022-01-11T14:28:12Z</time>
      </trkpt>
      <trkpt lat="47.65845" lon="6.18234">
        <ele>266.6</ele>
        <time>2022-01-11T14:28:17Z</time>
      </trkpt>
      <trkpt lat="47.6584" lon="6.18235">
        <ele>266.8</ele>
        <time>2022-01-11T14:28:20Z</time>
      </trkpt>
      <trkpt lat="47.65834" lon="6.18238">
        <ele>267.1</ele>
        <time>2022-01-11T14:28:23Z</time>
      </trkpt>
      <trkpt lat="47.6583" lon="6.18241">
        <ele>267.2</ele>
        <time>2022-01-11T14:28:25Z</time>
      </trkpt>
      <trkpt lat="47.65825" lon="6.18244">
        <ele>267.3</ele>
        <time>2022-01-11T14:28:27Z</time>
      </trkpt>
      <trkpt lat="47.6582" lon="6.18247">
        <ele>267.3</ele>
        <time>2022-01-11T14:28:29Z</time>
      </trkpt>
      <trkpt lat="47.65814" lon="6.18249">
        <ele>267.3</ele>
        <time>2022-01-11T14:28:31Z</time>
      </trkpt>
      <trkpt lat="47.65808" lon="6.18251">
        <ele>267.2</ele>
        <time>2022-01-11T14:28:33Z</time>
      </trkpt>
      <trkpt lat="47.65802" lon="6.18255">
        <ele>267.2</ele>
        <time>2022-01-11T14:28:35Z</time>
      </trkpt>
      <trkpt lat="47.65794" lon="6.18259">
        <ele>267.2</ele>
        <time>2022-01-11T14:28:37Z</time>
      </trkpt>
      <trkpt lat="47.65787" lon="6.18262">
        <ele>267.2</ele>
        <time>2022-01-11T14:28:39Z</time>
      </trkpt>
      <trkpt lat="47.6578" lon="6.18266">
        <ele>267.2</ele>
        <time>2022-01-11T14:28:41Z</time>
      </trkpt>
      <trkpt lat="47.65773" lon="6.18271">
        <ele>267.2</ele>
        <time>2022-01-11T14:28:43Z</time>
      </trkpt>
      <trkpt lat="47.65766" lon="6.18277">
        <ele>267</ele>
        <time>2022-01-11T14:28:45Z</time>
      </trkpt>
      <trkpt lat="47.6576" lon="6.18282">
        <ele>266.9</ele>
        <time>2022-01-11T14:28:47Z</time>
      </trkpt>
      <trkpt lat="47.65753" lon="6.18289">
        <ele>266.6</ele>
        <time>2022-01-11T14:28:49Z</time>
      </trkpt>
      <trkpt lat="47.65747" lon="6.18297">
        <ele>266.5</ele>
        <time>2022-01-11T14:28:51Z</time>
      </trkpt>
      <trkpt lat="47.6574" lon="6.18303">
        <ele>266.5</ele>
        <time>2022-01-11T14:28:53Z</time>
      </trkpt>
      <trkpt lat="47.65735" lon="6.18309">
        <ele>266.7</ele>
        <time>2022-01-11T14:28:55Z</time>
      </trkpt>
      <trkpt lat="47.6573" lon="6.18315">
        <ele>267</ele>
        <time>2022-01-11T14:28:57Z</time>
      </trkpt>
      <trkpt lat="47.65724" lon="6.18321">
        <ele>267.2</ele>
        <time>2022-01-11T14:29:02Z</time>
      </trkpt>
      <trkpt lat="47.6572" lon="6.18327">
        <ele>267.5</ele>
        <time>2022-01-11T14:29:04Z</time>
      </trkpt>
      <trkpt lat="47.65717" lon="6.18332">
        <ele>267.9</ele>
        <time>2022-01-11T14:29:06Z</time>
      </trkpt>
      <trkpt lat="47.65712" lon="6.18339">
        <ele>268.6</ele>
        <time>2022-01-11T14:29:08Z</time>
      </trkpt>
      <trkpt lat="47.65709" lon="6.18345">
        <ele>269.3</ele>
        <time>2022-01-11T14:29:08Z</time>
      </trkpt>
      <trkpt lat="47.65707" lon="6.18352">
        <ele>270</ele>
        <time>2022-01-11T14:29:15Z</time>
      </trkpt>
      <trkpt lat="47.65704" lon="6.1836">
        <ele>270.8</ele>
        <time>2022-01-11T14:29:18Z</time>
      </trkpt>
      <trkpt lat="47.657" lon="6.18365">
        <ele>271.6</ele>
        <time>2022-01-11T14:29:22Z</time>
      </trkpt>
      <trkpt lat="47.65695" lon="6.18371">
        <ele>272.4</ele>
        <time>2022-01-11T14:29:25Z</time>
      </trkpt>
      <trkpt lat="47.65691" lon="6.18377">
        <ele>273.3</ele>
        <time>2022-01-11T14:29:29Z</time>
      </trkpt>
      <trkpt lat="47.65687" lon="6.1838">
        <ele>273.7</ele>
        <time>2022-01-11T14:29:32Z</time>
      </trkpt>
      <trkpt lat="47.65681" lon="6.18383">
        <ele>274.2</ele>
        <time>2022-01-11T14:29:35Z</time>
      </trkpt>
      <trkpt lat="47.65675" lon="6.18386">
        <ele>274.5</ele>
        <time>2022-01-11T14:29:39Z</time>
      </trkpt>
      <trkpt lat="47.65669" lon="6.18386">
        <ele>274.7</ele>
        <time>2022-01-11T14:29:42Z</time>
      </trkpt>
      <trkpt lat="47.65662" lon="6.18388">
        <ele>274.6</ele>
        <time>2022-01-11T14:29:44Z</time>
      </trkpt>
      <trkpt lat="47.65654" lon="6.18389">
        <ele>274.6</ele>
        <time>2022-01-11T14:29:46Z</time>
      </trkpt>
      <trkpt lat="47.65649" lon="6.1839">
        <ele>274.5</ele>
        <time>2022-01-11T14:29:48Z</time>
      </trkpt>
      <trkpt lat="47.65644" lon="6.18391">
        <ele>274.5</ele>
        <time>2022-01-11T14:29:49Z</time>
      </trkpt>
      <trkpt lat="47.65637" lon="6.18393">
        <ele>274.5</ele>
        <time>2022-01-11T14:29:51Z</time>
      </trkpt>
      <trkpt lat="47.65632" lon="6.18394">
        <ele>274.5</ele>
        <time>2022-01-11T14:29:53Z</time>
      </trkpt>
      <trkpt lat="47.65622" lon="6.18398">
        <ele>274.7</ele>
        <time>2022-01-11T14:29:56Z</time>
      </trkpt>
      <trkpt lat="47.65618" lon="6.184">
        <ele>274.9</ele>
        <time>2022-01-11T14:29:58Z</time>
      </trkpt>
      <trkpt lat="47.65612" lon="6.18404">
        <ele>275.2</ele>
        <time>2022-01-11T14:30:00Z</time>
      </trkpt>
      <trkpt lat="47.65608" lon="6.18407">
        <ele>275.4</ele>
        <time>2022-01-11T14:30:02Z</time>
      </trkpt>
      <trkpt lat="47.65597" lon="6.18411">
        <ele>275.2</ele>
        <time>2022-01-11T14:30:03Z</time>
      </trkpt>
      <trkpt lat="47.65593" lon="6.18413">
        <ele>275.1</ele>
        <time>2022-01-11T14:30:05Z</time>
      </trkpt>
      <trkpt lat="47.65588" lon="6.18415">
        <ele>275.1</ele>
        <time>2022-01-11T14:30:10Z</time>
      </trkpt>
      <trkpt lat="47.65577" lon="6.18419">
        <ele>274.6</ele>
        <time>2022-01-11T14:30:11Z</time>
      </trkpt>
      <trkpt lat="47.65572" lon="6.1842">
        <ele>274.2</ele>
        <time>2022-01-11T14:30:16Z</time>
      </trkpt>
      <trkpt lat="47.6556" lon="6.18425">
        <ele>273.4</ele>
        <time>2022-01-11T14:30:20Z</time>
      </trkpt>
      <trkpt lat="47.65548" lon="6.1843">
        <ele>272.9</ele>
        <time>2022-01-11T14:30:23Z</time>
      </trkpt>
      <trkpt lat="47.65543" lon="6.18432">
        <ele>272.8</ele>
        <time>2022-01-11T14:30:24Z</time>
      </trkpt>
      <trkpt lat="47.65536" lon="6.18435">
        <ele>272.6</ele>
        <time>2022-01-11T14:30:25Z</time>
      </trkpt>
      <trkpt lat="47.65531" lon="6.18439">
        <ele>272.6</ele>
        <time>2022-01-11T14:30:27Z</time>
      </trkpt>
      <trkpt lat="47.65525" lon="6.18442">
        <ele>272.5</ele>
        <time>2022-01-11T14:30:28Z</time>
      </trkpt>
      <trkpt lat="47.6552" lon="6.18445">
        <ele>272.5</ele>
        <time>2022-01-11T14:30:29Z</time>
      </trkpt>
      <trkpt lat="47.65515" lon="6.18449">
        <ele>272.4</ele>
        <time>2022-01-11T14:30:30Z</time>
      </trkpt>
      <trkpt lat="47.65505" lon="6.18457">
        <ele>272.3</ele>
        <time>2022-01-11T14:30:33Z</time>
      </trkpt>
      <trkpt lat="47.655" lon="6.18461">
        <ele>272.2</ele>
        <time>2022-01-11T14:30:34Z</time>
      </trkpt>
      <trkpt lat="47.65493" lon="6.18466">
        <ele>272</ele>
        <time>2022-01-11T14:30:36Z</time>
      </trkpt>
      <trkpt lat="47.65488" lon="6.18469">
        <ele>271.9</ele>
        <time>2022-01-11T14:30:37Z</time>
      </trkpt>
      <trkpt lat="47.65484" lon="6.18473">
        <ele>271.8</ele>
        <time>2022-01-11T14:30:38Z</time>
      </trkpt>
      <trkpt lat="47.65478" lon="6.18477">
        <ele>271.6</ele>
        <time>2022-01-11T14:30:40Z</time>
      </trkpt>
      <trkpt lat="47.65473" lon="6.18481">
        <ele>271.4</ele>
        <time>2022-01-11T14:30:41Z</time>
      </trkpt>
      <trkpt lat="47.65469" lon="6.18484">
        <ele>271.2</ele>
        <time>2022-01-11T14:30:42Z</time>
      </trkpt>
      <trkpt lat="47.65459" lon="6.18492">
        <ele>270.7</ele>
        <time>2022-01-11T14:30:45Z</time>
      </trkpt>
      <trkpt lat="47.65452" lon="6.18497">
        <ele>270.5</ele>
        <time>2022-01-11T14:30:47Z</time>
      </trkpt>
      <trkpt lat="47.65447" lon="6.18502">
        <ele>270.3</ele>
        <time>2022-01-11T14:30:49Z</time>
      </trkpt>
      <trkpt lat="47.65441" lon="6.18507">
        <ele>270.3</ele>
        <time>2022-01-11T14:30:51Z</time>
      </trkpt>
      <trkpt lat="47.65436" lon="6.18511">
        <ele>270.4</ele>
        <time>2022-01-11T14:30:53Z</time>
      </trkpt>
      <trkpt lat="47.65431" lon="6.18517">
        <ele>270.6</ele>
        <time>2022-01-11T14:30:55Z</time>
      </trkpt>
      <trkpt lat="47.65427" lon="6.18522">
        <ele>270.8</ele>
        <time>2022-01-11T14:30:57Z</time>
      </trkpt>
      <trkpt lat="47.65423" lon="6.18527">
        <ele>271</ele>
        <time>2022-01-11T14:30:59Z</time>
      </trkpt>
      <trkpt lat="47.65418" lon="6.18532">
        <ele>271</ele>
        <time>2022-01-11T14:31:01Z</time>
      </trkpt>
      <trkpt lat="47.65414" lon="6.18538">
        <ele>270.9</ele>
        <time>2022-01-11T14:31:03Z</time>
      </trkpt>
      <trkpt lat="47.65405" lon="6.18549">
        <ele>270.5</ele>
        <time>2022-01-11T14:31:07Z</time>
      </trkpt>
      <trkpt lat="47.654" lon="6.18556">
        <ele>270.4</ele>
        <time>2022-01-11T14:31:09Z</time>
      </trkpt>
      <trkpt lat="47.65397" lon="6.18562">
        <ele>270.5</ele>
        <time>2022-01-11T14:31:11Z</time>
      </trkpt>
      <trkpt lat="47.65394" lon="6.18567">
        <ele>270.6</ele>
        <time>2022-01-11T14:31:13Z</time>
      </trkpt>
      <trkpt lat="47.6539" lon="6.18574">
        <ele>270.7</ele>
        <time>2022-01-11T14:31:15Z</time>
      </trkpt>
      <trkpt lat="47.65387" lon="6.18579">
        <ele>270.8</ele>
        <time>2022-01-11T14:31:16Z</time>
      </trkpt>
      <trkpt lat="47.65379" lon="6.18591">
        <ele>270.9</ele>
        <time>2022-01-11T14:31:17Z</time>
      </trkpt>
      <trkpt lat="47.65375" lon="6.18597">
        <ele>271</ele>
        <time>2022-01-11T14:31:19Z</time>
      </trkpt>
      <trkpt lat="47.65372" lon="6.18602">
        <ele>271</ele>
        <time>2022-01-11T14:31:24Z</time>
      </trkpt>
      <trkpt lat="47.65364" lon="6.18612">
        <ele>271.2</ele>
        <time>2022-01-11T14:31:25Z</time>
      </trkpt>
      <trkpt lat="47.6536" lon="6.18619">
        <ele>271.6</ele>
        <time>2022-01-11T14:31:31Z</time>
      </trkpt>
      <trkpt lat="47.65356" lon="6.18626">
        <ele>272.2</ele>
        <time>2022-01-11T14:31:34Z</time>
      </trkpt>
      <trkpt lat="47.65351" lon="6.18633">
        <ele>272.6</ele>
        <time>2022-01-11T14:31:37Z</time>
      </trkpt>
      <trkpt lat="47.65347" lon="6.18638">
        <ele>273</ele>
        <time>2022-01-11T14:31:40Z</time>
      </trkpt>
      <trkpt lat="47.65343" lon="6.18643">
        <ele>273.2</ele>
        <time>2022-01-11T14:31:40Z</time>
      </trkpt>
      <trkpt lat="47.6534" lon="6.18648">
        <ele>273.3</ele>
        <time>2022-01-11T14:31:47Z</time>
      </trkpt>
      <trkpt lat="47.65336" lon="6.18653">
        <ele>273.5</ele>
        <time>2022-01-11T14:31:50Z</time>
      </trkpt>
      <trkpt lat="47.65332" lon="6.18658">
        <ele>273.6</ele>
        <time>2022-01-11T14:31:50Z</time>
      </trkpt>
      <trkpt lat="47.65328" lon="6.18663">
        <ele>273.7</ele>
        <time>2022-01-11T14:31:57Z</time>
      </trkpt>
      <trkpt lat="47.65325" lon="6.18668">
        <ele>273.7</ele>
        <time>2022-01-11T14:31:59Z</time>
      </trkpt>
      <trkpt lat="47.65318" lon="6.18679">
        <ele>273.5</ele>
        <time>2022-01-11T14:32:04Z</time>
      </trkpt>
      <trkpt lat="47.65314" lon="6.18684">
        <ele>273.3</ele>
        <time>2022-01-11T14:32:06Z</time>
      </trkpt>
      <trkpt lat="47.6531" lon="6.18689">
        <ele>273.2</ele>
        <time>2022-01-11T14:32:08Z</time>
      </trkpt>
      <trkpt lat="47.65305" lon="6.18695">
        <ele>273</ele>
        <time>2022-01-11T14:32:10Z</time>
      </trkpt>
      <trkpt lat="47.65301" lon="6.18701">
        <ele>272.9</ele>
        <time>2022-01-11T14:32:12Z</time>
      </trkpt>
      <trkpt lat="47.65296" lon="6.18706">
        <ele>272.8</ele>
        <time>2022-01-11T14:32:14Z</time>
      </trkpt>
      <trkpt lat="47.65292" lon="6.18711">
        <ele>272.6</ele>
        <time>2022-01-11T14:32:16Z</time>
      </trkpt>
      <trkpt lat="47.65288" lon="6.18716">
        <ele>272.5</ele>
        <time>2022-01-11T14:32:18Z</time>
      </trkpt>
      <trkpt lat="47.65284" lon="6.1872">
        <ele>272.4</ele>
        <time>2022-01-11T14:32:20Z</time>
      </trkpt>
      <trkpt lat="47.65277" lon="6.18728">
        <ele>271.9</ele>
        <time>2022-01-11T14:32:24Z</time>
      </trkpt>
      <trkpt lat="47.65273" lon="6.18732">
        <ele>271.7</ele>
        <time>2022-01-11T14:32:25Z</time>
      </trkpt>
      <trkpt lat="47.65269" lon="6.18736">
        <ele>271.4</ele>
        <time>2022-01-11T14:32:26Z</time>
      </trkpt>
      <trkpt lat="47.65265" lon="6.18741">
        <ele>271.1</ele>
        <time>2022-01-11T14:32:27Z</time>
      </trkpt>
      <trkpt lat="47.65261" lon="6.18746">
        <ele>270.8</ele>
        <time>2022-01-11T14:32:28Z</time>
      </trkpt>
      <trkpt lat="47.65256" lon="6.18751">
        <ele>270.5</ele>
        <time>2022-01-11T14:32:29Z</time>
      </trkpt>
      <trkpt lat="47.65252" lon="6.18756">
        <ele>270.3</ele>
        <time>2022-01-11T14:32:30Z</time>
      </trkpt>
      <trkpt lat="47.65248" lon="6.1876">
        <ele>270.3</ele>
        <time>2022-01-11T14:32:31Z</time>
      </trkpt>
      <trkpt lat="47.65242" lon="6.18767">
        <ele>270.3</ele>
        <time>2022-01-11T14:32:33Z</time>
      </trkpt>
      <trkpt lat="47.65237" lon="6.18772">
        <ele>270.3</ele>
        <time>2022-01-11T14:32:34Z</time>
      </trkpt>
      <trkpt lat="47.65232" lon="6.18779">
        <ele>270.3</ele>
        <time>2022-01-11T14:32:35Z</time>
      </trkpt>
      <trkpt lat="47.65226" lon="6.18785">
        <ele>270.1</ele>
        <time>2022-01-11T14:32:37Z</time>
      </trkpt>
      <trkpt lat="47.65221" lon="6.18791">
        <ele>270</ele>
        <time>2022-01-11T14:32:38Z</time>
      </trkpt>
      <trkpt lat="47.65207" lon="6.18807">
        <ele>270</ele>
        <time>2022-01-11T14:32:39Z</time>
      </trkpt>
      <trkpt lat="47.65198" lon="6.18817">
        <ele>270</ele>
        <time>2022-01-11T14:32:41Z</time>
      </trkpt>
      <trkpt lat="47.65194" lon="6.18822">
        <ele>270</ele>
        <time>2022-01-11T14:32:42Z</time>
      </trkpt>
      <trkpt lat="47.6519" lon="6.18826">
        <ele>270.1</ele>
        <time>2022-01-11T14:32:43Z</time>
      </trkpt>
      <trkpt lat="47.65185" lon="6.18833">
        <ele>270.3</ele>
        <time>2022-01-11T14:32:47Z</time>
      </trkpt>
      <trkpt lat="47.65181" lon="6.18842">
        <ele>270.5</ele>
        <time>2022-01-11T14:32:49Z</time>
      </trkpt>
      <trkpt lat="47.65177" lon="6.18845">
        <ele>270.6</ele>
        <time>2022-01-11T14:32:50Z</time>
      </trkpt>
      <trkpt lat="47.65165" lon="6.18855">
        <ele>271</ele>
        <time>2022-01-11T14:32:53Z</time>
      </trkpt>
      <trkpt lat="47.6516" lon="6.1886">
        <ele>271</ele>
        <time>2022-01-11T14:32:55Z</time>
      </trkpt>
      <trkpt lat="47.6515" lon="6.18869">
        <ele>270.8</ele>
        <time>2022-01-11T14:32:58Z</time>
      </trkpt>
      <trkpt lat="47.65147" lon="6.18874">
        <ele>270.7</ele>
        <time>2022-01-11T14:32:59Z</time>
      </trkpt>
      <trkpt lat="47.65136" lon="6.18884">
        <ele>270.2</ele>
        <time>2022-01-11T14:33:03Z</time>
      </trkpt>
      <trkpt lat="47.65131" lon="6.18889">
        <ele>270</ele>
        <time>2022-01-11T14:33:04Z</time>
      </trkpt>
      <trkpt lat="47.65127" lon="6.18893">
        <ele>270</ele>
        <time>2022-01-11T14:33:05Z</time>
      </trkpt>
      <trkpt lat="47.65123" lon="6.18898">
        <ele>270</ele>
        <time>2022-01-11T14:33:06Z</time>
      </trkpt>
      <trkpt lat="47.65106" lon="6.18916">
        <ele>270.2</ele>
        <time>2022-01-11T14:33:07Z</time>
      </trkpt>
      <trkpt lat="47.65101" lon="6.18921">
        <ele>270.5</ele>
        <time>2022-01-11T14:33:08Z</time>
      </trkpt>
      <trkpt lat="47.65096" lon="6.18925">
        <ele>270.8</ele>
        <time>2022-01-11T14:33:09Z</time>
      </trkpt>
      <trkpt lat="47.65092" lon="6.1893">
        <ele>271.2</ele>
        <time>2022-01-11T14:33:10Z</time>
      </trkpt>
      <trkpt lat="47.65087" lon="6.18935">
        <ele>271.5</ele>
        <time>2022-01-11T14:33:11Z</time>
      </trkpt>
      <trkpt lat="47.65083" lon="6.18939">
        <ele>271.8</ele>
        <time>2022-01-11T14:33:12Z</time>
      </trkpt>
      <trkpt lat="47.65077" lon="6.18946">
        <ele>272</ele>
        <time>2022-01-11T14:33:14Z</time>
      </trkpt>
      <trkpt lat="47.65072" lon="6.18951">
        <ele>272.1</ele>
        <time>2022-01-11T14:33:16Z</time>
      </trkpt>
      <trkpt lat="47.65068" lon="6.18958">
        <ele>272.2</ele>
        <time>2022-01-11T14:33:21Z</time>
      </trkpt>
      <trkpt lat="47.65062" lon="6.18963">
        <ele>272.2</ele>
        <time>2022-01-11T14:33:24Z</time>
      </trkpt>
      <trkpt lat="47.65052" lon="6.18971">
        <ele>271.9</ele>
        <time>2022-01-11T14:33:26Z</time>
      </trkpt>
      <trkpt lat="47.65048" lon="6.18975">
        <ele>271.7</ele>
        <time>2022-01-11T14:33:28Z</time>
      </trkpt>
      <trkpt lat="47.65044" lon="6.18979">
        <ele>271.5</ele>
        <time>2022-01-11T14:33:32Z</time>
      </trkpt>
      <trkpt lat="47.65038" lon="6.18984">
        <ele>271.1</ele>
        <time>2022-01-11T14:33:34Z</time>
      </trkpt>
      <trkpt lat="47.65033" lon="6.1899">
        <ele>270.7</ele>
        <time>2022-01-11T14:33:36Z</time>
      </trkpt>
      <trkpt lat="47.65029" lon="6.18994">
        <ele>270.3</ele>
        <time>2022-01-11T14:33:38Z</time>
      </trkpt>
      <trkpt lat="47.65025" lon="6.18998">
        <ele>270</ele>
        <time>2022-01-11T14:33:39Z</time>
      </trkpt>
      <trkpt lat="47.65014" lon="6.19009">
        <ele>269.3</ele>
        <time>2022-01-11T14:33:42Z</time>
      </trkpt>
      <trkpt lat="47.65008" lon="6.19015">
        <ele>268.9</ele>
        <time>2022-01-11T14:33:44Z</time>
      </trkpt>
      <trkpt lat="47.6499" lon="6.19034">
        <ele>267.6</ele>
        <time>2022-01-11T14:33:45Z</time>
      </trkpt>
      <trkpt lat="47.64984" lon="6.19041">
        <ele>267.4</ele>
        <time>2022-01-11T14:33:46Z</time>
      </trkpt>
      <trkpt lat="47.64981" lon="6.19049">
        <ele>267.3</ele>
        <time>2022-01-11T14:33:47Z</time>
      </trkpt>
      <trkpt lat="47.64979" lon="6.19057">
        <ele>267.2</ele>
        <time>2022-01-11T14:33:48Z</time>
      </trkpt>
      <trkpt lat="47.64979" lon="6.19064">
        <ele>267</ele>
        <time>2022-01-11T14:33:49Z</time>
      </trkpt>
      <trkpt lat="47.64982" lon="6.19075">
        <ele>266.9</ele>
        <time>2022-01-11T14:33:51Z</time>
      </trkpt>
      <trkpt lat="47.64986" lon="6.19081">
        <ele>267</ele>
        <time>2022-01-11T14:33:55Z</time>
      </trkpt>
      <trkpt lat="47.64991" lon="6.19088">
        <ele>267.2</ele>
        <time>2022-01-11T14:33:57Z</time>
      </trkpt>
      <trkpt lat="47.64996" lon="6.19099">
        <ele>267.2</ele>
        <time>2022-01-11T14:34:00Z</time>
      </trkpt>
      <trkpt lat="47.65001" lon="6.19104">
        <ele>267.3</ele>
        <time>2022-01-11T14:34:03Z</time>
      </trkpt>
      <trkpt lat="47.6501" lon="6.19115">
        <ele>267.7</ele>
        <time>2022-01-11T14:34:08Z</time>
      </trkpt>
      <trkpt lat="47.65013" lon="6.19121">
        <ele>268</ele>
        <time>2022-01-11T14:34:10Z</time>
      </trkpt>
      <trkpt lat="47.65017" lon="6.19125">
        <ele>268.2</ele>
        <time>2022-01-11T14:34:12Z</time>
      </trkpt>
      <trkpt lat="47.6502" lon="6.19131">
        <ele>268.5</ele>
        <time>2022-01-11T14:34:14Z</time>
      </trkpt>
      <trkpt lat="47.65027" lon="6.19142">
        <ele>268.8</ele>
        <time>2022-01-11T14:34:19Z</time>
      </trkpt>
      <trkpt lat="47.65031" lon="6.19147">
        <ele>268.8</ele>
        <time>2022-01-11T14:34:21Z</time>
      </trkpt>
      <trkpt lat="47.65035" lon="6.19153">
        <ele>268.9</ele>
        <time>2022-01-11T14:34:23Z</time>
      </trkpt>
      <trkpt lat="47.65039" lon="6.19159">
        <ele>268.9</ele>
        <time>2022-01-11T14:34:25Z</time>
      </trkpt>
      <trkpt lat="47.65045" lon="6.1917">
        <ele>269.2</ele>
        <time>2022-01-11T14:34:29Z</time>
      </trkpt>
      <trkpt lat="47.65049" lon="6.19176">
        <ele>269.3</ele>
        <time>2022-01-11T14:34:32Z</time>
      </trkpt>
      <trkpt lat="47.65052" lon="6.19182">
        <ele>269.3</ele>
        <time>2022-01-11T14:34:34Z</time>
      </trkpt>
      <trkpt lat="47.6506" lon="6.19193">
        <ele>269.2</ele>
        <time>2022-01-11T14:34:38Z</time>
      </trkpt>
      <trkpt lat="47.65063" lon="6.19198">
        <ele>269.2</ele>
        <time>2022-01-11T14:34:40Z</time>
      </trkpt>
      <trkpt lat="47.65071" lon="6.1921">
        <ele>269.3</ele>
        <time>2022-01-11T14:34:45Z</time>
      </trkpt>
      <trkpt lat="47.65076" lon="6.19216">
        <ele>269.5</ele>
        <time>2022-01-11T14:34:47Z</time>
      </trkpt>
      <trkpt lat="47.65079" lon="6.19222">
        <ele>269.7</ele>
        <time>2022-01-11T14:34:49Z</time>
      </trkpt>
      <trkpt lat="47.65083" lon="6.19226">
        <ele>270</ele>
        <time>2022-01-11T14:34:51Z</time>
      </trkpt>
      <trkpt lat="47.65087" lon="6.19232">
        <ele>270.1</ele>
        <time>2022-01-11T14:34:54Z</time>
      </trkpt>
      <trkpt lat="47.6509" lon="6.19237">
        <ele>270.2</ele>
        <time>2022-01-11T14:34:56Z</time>
      </trkpt>
      <trkpt lat="47.65095" lon="6.19243">
        <ele>270.4</ele>
        <time>2022-01-11T14:34:58Z</time>
      </trkpt>
      <trkpt lat="47.65099" lon="6.1925">
        <ele>270.6</ele>
        <time>2022-01-11T14:35:01Z</time>
      </trkpt>
      <trkpt lat="47.65103" lon="6.19255">
        <ele>270.7</ele>
        <time>2022-01-11T14:35:03Z</time>
      </trkpt>
      <trkpt lat="47.65107" lon="6.19261">
        <ele>270.8</ele>
        <time>2022-01-11T14:35:06Z</time>
      </trkpt>
      <trkpt lat="47.6511" lon="6.19266">
        <ele>270.9</ele>
        <time>2022-01-11T14:35:08Z</time>
      </trkpt>
      <trkpt lat="47.65114" lon="6.19271">
        <ele>271.1</ele>
        <time>2022-01-11T14:35:10Z</time>
      </trkpt>
      <trkpt lat="47.65122" lon="6.19281">
        <ele>271.3</ele>
        <time>2022-01-11T14:35:15Z</time>
      </trkpt>
      <trkpt lat="47.65127" lon="6.19286">
        <ele>271.4</ele>
        <time>2022-01-11T14:35:17Z</time>
      </trkpt>
      <trkpt lat="47.6513" lon="6.1929">
        <ele>271.6</ele>
        <time>2022-01-11T14:35:19Z</time>
      </trkpt>
      <trkpt lat="47.65134" lon="6.19295">
        <ele>271.7</ele>
        <time>2022-01-11T14:35:21Z</time>
      </trkpt>
      <trkpt lat="47.65138" lon="6.19299">
        <ele>271.9</ele>
        <time>2022-01-11T14:35:23Z</time>
      </trkpt>
      <trkpt lat="47.65146" lon="6.19308">
        <ele>271.9</ele>
        <time>2022-01-11T14:35:25Z</time>
      </trkpt>
      <trkpt lat="47.65152" lon="6.19313">
        <ele>271.7</ele>
        <time>2022-01-11T14:35:28Z</time>
      </trkpt>
      <trkpt lat="47.65156" lon="6.19317">
        <ele>271.6</ele>
        <time>2022-01-11T14:35:33Z</time>
      </trkpt>
      <trkpt lat="47.6516" lon="6.19322">
        <ele>271.4</ele>
        <time>2022-01-11T14:35:34Z</time>
      </trkpt>
      <trkpt lat="47.65164" lon="6.19327">
        <ele>271.2</ele>
        <time>2022-01-11T14:35:36Z</time>
      </trkpt>
      <trkpt lat="47.65173" lon="6.19338">
        <ele>271.1</ele>
        <time>2022-01-11T14:35:40Z</time>
      </trkpt>
      <trkpt lat="47.65177" lon="6.19344">
        <ele>271</ele>
        <time>2022-01-11T14:35:42Z</time>
      </trkpt>
      <trkpt lat="47.65181" lon="6.1935">
        <ele>270.9</ele>
        <time>2022-01-11T14:35:44Z</time>
      </trkpt>
      <trkpt lat="47.65185" lon="6.19357">
        <ele>270.8</ele>
        <time>2022-01-11T14:35:46Z</time>
      </trkpt>
      <trkpt lat="47.65193" lon="6.1937">
        <ele>270.9</ele>
        <time>2022-01-11T14:35:49Z</time>
      </trkpt>
      <trkpt lat="47.65197" lon="6.19377">
        <ele>271</ele>
        <time>2022-01-11T14:35:51Z</time>
      </trkpt>
      <trkpt lat="47.65203" lon="6.19386">
        <ele>271</ele>
        <time>2022-01-11T14:35:53Z</time>
      </trkpt>
      <trkpt lat="47.65206" lon="6.19392">
        <ele>270.8</ele>
        <time>2022-01-11T14:35:55Z</time>
      </trkpt>
      <trkpt lat="47.6521" lon="6.19398">
        <ele>270.5</ele>
        <time>2022-01-11T14:35:56Z</time>
      </trkpt>
      <trkpt lat="47.65214" lon="6.19407">
        <ele>270.2</ele>
        <time>2022-01-11T14:35:58Z</time>
      </trkpt>
      <trkpt lat="47.65221" lon="6.19419">
        <ele>270</ele>
        <time>2022-01-11T14:36:01Z</time>
      </trkpt>
      <trkpt lat="47.65225" lon="6.19426">
        <ele>270.2</ele>
        <time>2022-01-11T14:36:03Z</time>
      </trkpt>
      <trkpt lat="47.65229" lon="6.19431">
        <ele>270.5</ele>
        <time>2022-01-11T14:36:04Z</time>
      </trkpt>
      <trkpt lat="47.65234" lon="6.19438">
        <ele>270.8</ele>
        <time>2022-01-11T14:36:06Z</time>
      </trkpt>
      <trkpt lat="47.65238" lon="6.19443">
        <ele>271.1</ele>
        <time>2022-01-11T14:36:08Z</time>
      </trkpt>
      <trkpt lat="47.65242" lon="6.19447">
        <ele>271.3</ele>
        <time>2022-01-11T14:36:10Z</time>
      </trkpt>
      <trkpt lat="47.65246" lon="6.19452">
        <ele>271.5</ele>
        <time>2022-01-11T14:36:12Z</time>
      </trkpt>
      <trkpt lat="47.6525" lon="6.19457">
        <ele>271.5</ele>
        <time>2022-01-11T14:36:14Z</time>
      </trkpt>
      <trkpt lat="47.65254" lon="6.19462">
        <ele>271.4</ele>
        <time>2022-01-11T14:36:16Z</time>
      </trkpt>
      <trkpt lat="47.65258" lon="6.19468">
        <ele>271.4</ele>
        <time>2022-01-11T14:36:18Z</time>
      </trkpt>
      <trkpt lat="47.65262" lon="6.19474">
        <ele>271.4</ele>
        <time>2022-01-11T14:36:20Z</time>
      </trkpt>
      <trkpt lat="47.65266" lon="6.19482">
        <ele>271.4</ele>
        <time>2022-01-11T14:36:22Z</time>
      </trkpt>
      <trkpt lat="47.65269" lon="6.19488">
        <ele>271.5</ele>
        <time>2022-01-11T14:36:24Z</time>
      </trkpt>
      <trkpt lat="47.65272" lon="6.19494">
        <ele>271.6</ele>
        <time>2022-01-11T14:36:25Z</time>
      </trkpt>
      <trkpt lat="47.65275" lon="6.19501">
        <ele>271.7</ele>
        <time>2022-01-11T14:36:27Z</time>
      </trkpt>
      <trkpt lat="47.65279" lon="6.19517">
        <ele>271.4</ele>
        <time>2022-01-11T14:36:30Z</time>
      </trkpt>
      <trkpt lat="47.65281" lon="6.19525">
        <ele>271</ele>
        <time>2022-01-11T14:36:32Z</time>
      </trkpt>
      <trkpt lat="47.65284" lon="6.19534">
        <ele>270.4</ele>
        <time>2022-01-11T14:36:34Z</time>
      </trkpt>
      <trkpt lat="47.65286" lon="6.1954">
        <ele>270</ele>
        <time>2022-01-11T14:36:35Z</time>
      </trkpt>
      <trkpt lat="47.65288" lon="6.1955">
        <ele>269.3</ele>
        <time>2022-01-11T14:36:37Z</time>
      </trkpt>
      <trkpt lat="47.6529" lon="6.19556">
        <ele>269</ele>
        <time>2022-01-11T14:36:38Z</time>
      </trkpt>
      <trkpt lat="47.65294" lon="6.19565">
        <ele>268.5</ele>
        <time>2022-01-11T14:36:40Z</time>
      </trkpt>
      <trkpt lat="47.65298" lon="6.19573">
        <ele>268.2</ele>
        <time>2022-01-11T14:36:41Z</time>
      </trkpt>
      <trkpt lat="47.65301" lon="6.1958">
        <ele>268</ele>
        <time>2022-01-11T14:36:42Z</time>
      </trkpt>
      <trkpt lat="47.65304" lon="6.19587">
        <ele>267.8</ele>
        <time>2022-01-11T14:36:43Z</time>
      </trkpt>
      <trkpt lat="47.65314" lon="6.19624">
        <ele>267.3</ele>
        <time>2022-01-11T14:36:44Z</time>
      </trkpt>
      <trkpt lat="47.65316" lon="6.19632">
        <ele>267.3</ele>
        <time>2022-01-11T14:36:45Z</time>
      </trkpt>
      <trkpt lat="47.65318" lon="6.19639">
        <ele>267.3</ele>
        <time>2022-01-11T14:36:46Z</time>
      </trkpt>
      <trkpt lat="47.65319" lon="6.19645">
        <ele>267.1</ele>
        <time>2022-01-11T14:36:47Z</time>
      </trkpt>
      <trkpt lat="47.65323" lon="6.19657">
        <ele>267</ele>
        <time>2022-01-11T14:36:49Z</time>
      </trkpt>
      <trkpt lat="47.65325" lon="6.19666">
        <ele>266.9</ele>
        <time>2022-01-11T14:36:51Z</time>
      </trkpt>
      <trkpt lat="47.65329" lon="6.19676">
        <ele>267</ele>
        <time>2022-01-11T14:36:53Z</time>
      </trkpt>
      <trkpt lat="47.65332" lon="6.19681">
        <ele>267.2</ele>
        <time>2022-01-11T14:36:57Z</time>
      </trkpt>
      <trkpt lat="47.65335" lon="6.19689">
        <ele>267.3</ele>
        <time>2022-01-11T14:36:59Z</time>
      </trkpt>
      <trkpt lat="47.6534" lon="6.19701">
        <ele>267.3</ele>
        <time>2022-01-11T14:37:01Z</time>
      </trkpt>
      <trkpt lat="47.65343" lon="6.19707">
        <ele>267.3</ele>
        <time>2022-01-11T14:37:03Z</time>
      </trkpt>
      <trkpt lat="47.65345" lon="6.19713">
        <ele>267.2</ele>
        <time>2022-01-11T14:37:05Z</time>
      </trkpt>
      <trkpt lat="47.65348" lon="6.19719">
        <ele>267.3</ele>
        <time>2022-01-11T14:37:09Z</time>
      </trkpt>
      <trkpt lat="47.65352" lon="6.19726">
        <ele>267.5</ele>
        <time>2022-01-11T14:37:11Z</time>
      </trkpt>
      <trkpt lat="47.65354" lon="6.19733">
        <ele>267.7</ele>
        <time>2022-01-11T14:37:13Z</time>
      </trkpt>
      <trkpt lat="47.6536" lon="6.19746">
        <ele>268.8</ele>
        <time>2022-01-11T14:37:17Z</time>
      </trkpt>
      <trkpt lat="47.65363" lon="6.19753">
        <ele>269.1</ele>
        <time>2022-01-11T14:37:19Z</time>
      </trkpt>
      <trkpt lat="47.65367" lon="6.1976">
        <ele>269.3</ele>
        <time>2022-01-11T14:37:22Z</time>
      </trkpt>
      <trkpt lat="47.6537" lon="6.19765">
        <ele>269.3</ele>
        <time>2022-01-11T14:37:24Z</time>
      </trkpt>
      <trkpt lat="47.65374" lon="6.19771">
        <ele>269.4</ele>
        <time>2022-01-11T14:37:27Z</time>
      </trkpt>
      <trkpt lat="47.65377" lon="6.19777">
        <ele>269.2</ele>
        <time>2022-01-11T14:37:29Z</time>
      </trkpt>
      <trkpt lat="47.65383" lon="6.19791">
        <ele>268.3</ele>
        <time>2022-01-11T14:37:34Z</time>
      </trkpt>
      <trkpt lat="47.6539" lon="6.19801">
        <ele>268.4</ele>
        <time>2022-01-11T14:37:38Z</time>
      </trkpt>
      <trkpt lat="47.65396" lon="6.19812">
        <ele>268.5</ele>
        <time>2022-01-11T14:37:43Z</time>
      </trkpt>
      <trkpt lat="47.65399" lon="6.19819">
        <ele>268.6</ele>
        <time>2022-01-11T14:37:46Z</time>
      </trkpt>
      <trkpt lat="47.65402" lon="6.19825">
        <ele>268.9</ele>
        <time>2022-01-11T14:37:48Z</time>
      </trkpt>
      <trkpt lat="47.65406" lon="6.19831">
        <ele>269.2</ele>
        <time>2022-01-11T14:37:51Z</time>
      </trkpt>
      <trkpt lat="47.65409" lon="6.19836">
        <ele>269.6</ele>
        <time>2022-01-11T14:37:53Z</time>
      </trkpt>
      <trkpt lat="47.65413" lon="6.1984">
        <ele>270</ele>
        <time>2022-01-11T14:37:55Z</time>
      </trkpt>
      <trkpt lat="47.65417" lon="6.19846">
        <ele>270.6</ele>
        <time>2022-01-11T14:37:58Z</time>
      </trkpt>
      <trkpt lat="47.65421" lon="6.19852">
        <ele>270.8</ele>
        <time>2022-01-11T14:38:01Z</time>
      </trkpt>
      <trkpt lat="47.65423" lon="6.19858">
        <ele>270.8</ele>
        <time>2022-01-11T14:38:03Z</time>
      </trkpt>
      <trkpt lat="47.65425" lon="6.19865">
        <ele>270.5</ele>
        <time>2022-01-11T14:38:06Z</time>
      </trkpt>
      <trkpt lat="47.65431" lon="6.19879">
        <ele>269.9</ele>
        <time>2022-01-11T14:38:11Z</time>
      </trkpt>
      <trkpt lat="47.65434" lon="6.19886">
        <ele>269.7</ele>
        <time>2022-01-11T14:38:13Z</time>
      </trkpt>
      <trkpt lat="47.65437" lon="6.19894">
        <ele>269.5</ele>
        <time>2022-01-11T14:38:15Z</time>
      </trkpt>
      <trkpt lat="47.65444" lon="6.19912">
        <ele>269.2</ele>
        <time>2022-01-11T14:38:19Z</time>
      </trkpt>
      <trkpt lat="47.65446" lon="6.19918">
        <ele>269</ele>
        <time>2022-01-11T14:38:20Z</time>
      </trkpt>
      <trkpt lat="47.65452" lon="6.19932">
        <ele>268.4</ele>
        <time>2022-01-11T14:38:23Z</time>
      </trkpt>
      <trkpt lat="47.65456" lon="6.19942">
        <ele>268.3</ele>
        <time>2022-01-11T14:38:25Z</time>
      </trkpt>
      <trkpt lat="47.6546" lon="6.19949">
        <ele>268.2</ele>
        <time>2022-01-11T14:38:27Z</time>
      </trkpt>
      <trkpt lat="47.65463" lon="6.19956">
        <ele>267.9</ele>
        <time>2022-01-11T14:38:29Z</time>
      </trkpt>
      <trkpt lat="47.65466" lon="6.19962">
        <ele>267.9</ele>
        <time>2022-01-11T14:38:30Z</time>
      </trkpt>
      <trkpt lat="47.65475" lon="6.19976">
        <ele>268.1</ele>
        <time>2022-01-11T14:38:34Z</time>
      </trkpt>
      <trkpt lat="47.65479" lon="6.19981">
        <ele>268.3</ele>
        <time>2022-01-11T14:38:36Z</time>
      </trkpt>
      <trkpt lat="47.65483" lon="6.19985">
        <ele>268.6</ele>
        <time>2022-01-11T14:38:38Z</time>
      </trkpt>
      <trkpt lat="47.65488" lon="6.1999">
        <ele>269.2</ele>
        <time>2022-01-11T14:38:40Z</time>
      </trkpt>
      <trkpt lat="47.65496" lon="6.19999">
        <ele>270.2</ele>
        <time>2022-01-11T14:38:45Z</time>
      </trkpt>
      <trkpt lat="47.655" lon="6.20005">
        <ele>270.4</ele>
        <time>2022-01-11T14:38:48Z</time>
      </trkpt>
      <trkpt lat="47.65503" lon="6.2001">
        <ele>270.3</ele>
        <time>2022-01-11T14:38:50Z</time>
      </trkpt>
      <trkpt lat="47.65507" lon="6.20015">
        <ele>270.2</ele>
        <time>2022-01-11T14:38:52Z</time>
      </trkpt>
      <trkpt lat="47.65511" lon="6.2002">
        <ele>270.2</ele>
        <time>2022-01-11T14:38:54Z</time>
      </trkpt>
      <trkpt lat="47.65519" lon="6.2003">
        <ele>270.5</ele>
        <time>2022-01-11T14:38:55Z</time>
      </trkpt>
      <trkpt lat="47.65523" lon="6.20036">
        <ele>270.7</ele>
        <time>2022-01-11T14:38:59Z</time>
      </trkpt>
      <trkpt lat="47.65527" lon="6.2004">
        <ele>270.9</ele>
        <time>2022-01-11T14:39:01Z</time>
      </trkpt>
      <trkpt lat="47.65535" lon="6.20051">
        <ele>271.2</ele>
        <time>2022-01-11T14:39:05Z</time>
      </trkpt>
      <trkpt lat="47.65545" lon="6.20061">
        <ele>272</ele>
        <time>2022-01-11T14:39:08Z</time>
      </trkpt>
      <trkpt lat="47.65548" lon="6.20067">
        <ele>272.1</ele>
        <time>2022-01-11T14:39:13Z</time>
      </trkpt>
      <trkpt lat="47.65551" lon="6.20072">
        <ele>272.1</ele>
        <time>2022-01-11T14:39:15Z</time>
      </trkpt>
      <trkpt lat="47.65555" lon="6.20077">
        <ele>272.4</ele>
        <time>2022-01-11T14:39:18Z</time>
      </trkpt>
      <trkpt lat="47.65559" lon="6.20082">
        <ele>272.3</ele>
        <time>2022-01-11T14:39:20Z</time>
      </trkpt>
      <trkpt lat="47.65563" lon="6.20087">
        <ele>272.3</ele>
        <time>2022-01-11T14:39:23Z</time>
      </trkpt>
      <trkpt lat="47.65567" lon="6.20091">
        <ele>272.4</ele>
        <time>2022-01-11T14:39:25Z</time>
      </trkpt>
      <trkpt lat="47.6557" lon="6.20096">
        <ele>272.4</ele>
        <time>2022-01-11T14:39:28Z</time>
      </trkpt>
      <trkpt lat="47.65579" lon="6.20105">
        <ele>272.8</ele>
        <time>2022-01-11T14:39:33Z</time>
      </trkpt>
      <trkpt lat="47.65584" lon="6.20109">
        <ele>273.1</ele>
        <time>2022-01-11T14:39:36Z</time>
      </trkpt>
      <trkpt lat="47.65588" lon="6.20114">
        <ele>273.2</ele>
        <time>2022-01-11T14:39:39Z</time>
      </trkpt>
      <trkpt lat="47.65598" lon="6.20124">
        <ele>273.3</ele>
        <time>2022-01-11T14:39:44Z</time>
      </trkpt>
      <trkpt lat="47.65607" lon="6.20133">
        <ele>273.8</ele>
        <time>2022-01-11T14:39:46Z</time>
      </trkpt>
      <trkpt lat="47.65611" lon="6.20136">
        <ele>274.1</ele>
        <time>2022-01-11T14:39:50Z</time>
      </trkpt>
      <trkpt lat="47.65615" lon="6.2014">
        <ele>274.1</ele>
        <time>2022-01-11T14:39:52Z</time>
      </trkpt>
      <trkpt lat="47.65624" lon="6.20152">
        <ele>274.2</ele>
        <time>2022-01-11T14:39:55Z</time>
      </trkpt>
      <trkpt lat="47.65627" lon="6.20159">
        <ele>274.1</ele>
        <time>2022-01-11T14:39:58Z</time>
      </trkpt>
      <trkpt lat="47.65631" lon="6.20162">
        <ele>274.3</ele>
        <time>2022-01-11T14:40:03Z</time>
      </trkpt>
      <trkpt lat="47.65635" lon="6.20167">
        <ele>274.6</ele>
        <time>2022-01-11T14:40:06Z</time>
      </trkpt>
      <trkpt lat="47.65639" lon="6.20172">
        <ele>274.6</ele>
        <time>2022-01-11T14:40:08Z</time>
      </trkpt>
      <trkpt lat="47.65643" lon="6.20178">
        <ele>274.3</ele>
        <time>2022-01-11T14:40:10Z</time>
      </trkpt>
      <trkpt lat="47.65653" lon="6.2019">
        <ele>273.8</ele>
        <time>2022-01-11T14:40:14Z</time>
      </trkpt>
      <trkpt lat="47.65661" lon="6.202">
        <ele>273.4</ele>
        <time>2022-01-11T14:40:17Z</time>
      </trkpt>
      <trkpt lat="47.65665" lon="6.20204">
        <ele>273.2</ele>
        <time>2022-01-11T14:40:18Z</time>
      </trkpt>
      <trkpt lat="47.65675" lon="6.20217">
        <ele>273</ele>
        <time>2022-01-11T14:40:19Z</time>
      </trkpt>
      <trkpt lat="47.65681" lon="6.20223">
        <ele>272.9</ele>
        <time>2022-01-11T14:40:23Z</time>
      </trkpt>
      <trkpt lat="47.65684" lon="6.20228">
        <ele>272.9</ele>
        <time>2022-01-11T14:40:24Z</time>
      </trkpt>
      <trkpt lat="47.65689" lon="6.20234">
        <ele>272.8</ele>
        <time>2022-01-11T14:40:26Z</time>
      </trkpt>
      <trkpt lat="47.65694" lon="6.2024">
        <ele>272.7</ele>
        <time>2022-01-11T14:40:28Z</time>
      </trkpt>
      <trkpt lat="47.65698" lon="6.20244">
        <ele>272.6</ele>
        <time>2022-01-11T14:40:29Z</time>
      </trkpt>
      <trkpt lat="47.65707" lon="6.20255">
        <ele>272.3</ele>
        <time>2022-01-11T14:40:30Z</time>
      </trkpt>
      <trkpt lat="47.65713" lon="6.20263">
        <ele>271.6</ele>
        <time>2022-01-11T14:40:36Z</time>
      </trkpt>
      <trkpt lat="47.65724" lon="6.20274">
        <ele>270.6</ele>
        <time>2022-01-11T14:40:37Z</time>
      </trkpt>
      <trkpt lat="47.6573" lon="6.20281">
        <ele>269.9</ele>
        <time>2022-01-11T14:40:42Z</time>
      </trkpt>
      <trkpt lat="47.65735" lon="6.20285">
        <ele>269.6</ele>
        <time>2022-01-11T14:40:43Z</time>
      </trkpt>
      <trkpt lat="47.65739" lon="6.2029">
        <ele>269.3</ele>
        <time>2022-01-11T14:40:44Z</time>
      </trkpt>
      <trkpt lat="47.65745" lon="6.20297">
        <ele>268.8</ele>
        <time>2022-01-11T14:40:45Z</time>
      </trkpt>
      <trkpt lat="47.65768" lon="6.20319">
        <ele>267.6</ele>
        <time>2022-01-11T14:40:45Z</time>
      </trkpt>
      <trkpt lat="47.65774" lon="6.20323">
        <ele>267.2</ele>
        <time>2022-01-11T14:40:46Z</time>
      </trkpt>
      <trkpt lat="47.65779" lon="6.20328">
        <ele>266.9</ele>
        <time>2022-01-11T14:40:47Z</time>
      </trkpt>
      <trkpt lat="47.65783" lon="6.20332">
        <ele>266.8</ele>
        <time>2022-01-11T14:40:48Z</time>
      </trkpt>
      <trkpt lat="47.65788" lon="6.20336">
        <ele>266.8</ele>
        <time>2022-01-11T14:40:49Z</time>
      </trkpt>
      <trkpt lat="47.65793" lon="6.2034">
        <ele>266.9</ele>
        <time>2022-01-11T14:40:50Z</time>
      </trkpt>
      <trkpt lat="47.65798" lon="6.20345">
        <ele>266.9</ele>
        <time>2022-01-11T14:40:51Z</time>
      </trkpt>
      <trkpt lat="47.65803" lon="6.2035">
        <ele>266.9</ele>
        <time>2022-01-11T14:40:52Z</time>
      </trkpt>
      <trkpt lat="47.65807" lon="6.20355">
        <ele>266.9</ele>
        <time>2022-01-11T14:40:53Z</time>
      </trkpt>
      <trkpt lat="47.65812" lon="6.2036">
        <ele>266.8</ele>
        <time>2022-01-11T14:40:54Z</time>
      </trkpt>
      <trkpt lat="47.65817" lon="6.20366">
        <ele>266.6</ele>
        <time>2022-01-11T14:40:55Z</time>
      </trkpt>
      <trkpt lat="47.65821" lon="6.20371">
        <ele>266.3</ele>
        <time>2022-01-11T14:40:56Z</time>
      </trkpt>
      <trkpt lat="47.65825" lon="6.20376">
        <ele>266</ele>
        <time>2022-01-11T14:40:57Z</time>
      </trkpt>
      <trkpt lat="47.6583" lon="6.20381">
        <ele>265.8</ele>
        <time>2022-01-11T14:40:58Z</time>
      </trkpt>
      <trkpt lat="47.65834" lon="6.20386">
        <ele>265.6</ele>
        <time>2022-01-11T14:40:59Z</time>
      </trkpt>
      <trkpt lat="47.65838" lon="6.2039">
        <ele>265.5</ele>
        <time>2022-01-11T14:41:00Z</time>
      </trkpt>
      <trkpt lat="47.65843" lon="6.20395">
        <ele>265.5</ele>
        <time>2022-01-11T14:41:01Z</time>
      </trkpt>
      <trkpt lat="47.65847" lon="6.20399">
        <ele>265.6</ele>
        <time>2022-01-11T14:41:02Z</time>
      </trkpt>
      <trkpt lat="47.65851" lon="6.20403">
        <ele>265.7</ele>
        <time>2022-01-11T14:41:03Z</time>
      </trkpt>
      <trkpt lat="47.65855" lon="6.20407">
        <ele>265.9</ele>
        <time>2022-01-11T14:41:04Z</time>
      </trkpt>
      <trkpt lat="47.65861" lon="6.20413">
        <ele>266.4</ele>
        <time>2022-01-11T14:41:06Z</time>
      </trkpt>
      <trkpt lat="47.65867" lon="6.20418">
        <ele>266.5</ele>
        <time>2022-01-11T14:41:08Z</time>
      </trkpt>
      <trkpt lat="47.65872" lon="6.20421">
        <ele>266.5</ele>
        <time>2022-01-11T14:41:10Z</time>
      </trkpt>
      <trkpt lat="47.65876" lon="6.20425">
        <ele>266.6</ele>
        <time>2022-01-11T14:41:12Z</time>
      </trkpt>
      <trkpt lat="47.65883" lon="6.20426">
        <ele>267.3</ele>
        <time>2022-01-11T14:41:16Z</time>
      </trkpt>
      <trkpt lat="47.65888" lon="6.20429">
        <ele>267.6</ele>
        <time>2022-01-11T14:41:19Z</time>
      </trkpt>
      <trkpt lat="47.65892" lon="6.20437">
        <ele>267.1</ele>
        <time>2022-01-11T14:41:21Z</time>
      </trkpt>
      <trkpt lat="47.65896" lon="6.20443">
        <ele>266.8</ele>
        <time>2022-01-11T14:41:23Z</time>
      </trkpt>
      <trkpt lat="47.65904" lon="6.20455">
        <ele>266.5</ele>
        <time>2022-01-11T14:41:26Z</time>
      </trkpt>
      <trkpt lat="47.65908" lon="6.2046">
        <ele>266.4</ele>
        <time>2022-01-11T14:41:27Z</time>
      </trkpt>
      <trkpt lat="47.65912" lon="6.20464">
        <ele>266.4</ele>
        <time>2022-01-11T14:41:28Z</time>
      </trkpt>
      <trkpt lat="47.65918" lon="6.20469">
        <ele>266.5</ele>
        <time>2022-01-11T14:41:30Z</time>
      </trkpt>
      <trkpt lat="47.65924" lon="6.20472">
        <ele>266.5</ele>
        <time>2022-01-11T14:41:31Z</time>
      </trkpt>
      <trkpt lat="47.65937" lon="6.2048">
        <ele>266.3</ele>
        <time>2022-01-11T14:41:31Z</time>
      </trkpt>
      <trkpt lat="47.65944" lon="6.20485">
        <ele>266.2</ele>
        <time>2022-01-11T14:41:36Z</time>
      </trkpt>
      <trkpt lat="47.65949" lon="6.20489">
        <ele>266</ele>
        <time>2022-01-11T14:41:38Z</time>
      </trkpt>
      <trkpt lat="47.65954" lon="6.20494">
        <ele>265.8</ele>
        <time>2022-01-11T14:41:39Z</time>
      </trkpt>
      <trkpt lat="47.65965" lon="6.20504">
        <ele>265.7</ele>
        <time>2022-01-11T14:41:43Z</time>
      </trkpt>
      <trkpt lat="47.6597" lon="6.20509">
        <ele>265.6</ele>
        <time>2022-01-11T14:41:45Z</time>
      </trkpt>
      <trkpt lat="47.65976" lon="6.20512">
        <ele>265.5</ele>
        <time>2022-01-11T14:41:47Z</time>
      </trkpt>
      <trkpt lat="47.65982" lon="6.20515">
        <ele>265.2</ele>
        <time>2022-01-11T14:41:49Z</time>
      </trkpt>
      <trkpt lat="47.65996" lon="6.20523">
        <ele>264.6</ele>
        <time>2022-01-11T14:41:53Z</time>
      </trkpt>
      <trkpt lat="47.66003" lon="6.20525">
        <ele>264.6</ele>
        <time>2022-01-11T14:41:55Z</time>
      </trkpt>
      <trkpt lat="47.66014" lon="6.2053">
        <ele>264.7</ele>
        <time>2022-01-11T14:41:58Z</time>
      </trkpt>
      <trkpt lat="47.66018" lon="6.20532">
        <ele>264.7</ele>
        <time>2022-01-11T14:41:59Z</time>
      </trkpt>
      <trkpt lat="47.66023" lon="6.20535">
        <ele>264.6</ele>
        <time>2022-01-11T14:42:00Z</time>
      </trkpt>
      <trkpt lat="47.66027" lon="6.20537">
        <ele>264.6</ele>
        <time>2022-01-11T14:42:01Z</time>
      </trkpt>
      <trkpt lat="47.66034" lon="6.20541">
        <ele>264.7</ele>
        <time>2022-01-11T14:42:03Z</time>
      </trkpt>
      <trkpt lat="47.66044" lon="6.20547">
        <ele>264.8</ele>
        <time>2022-01-11T14:42:06Z</time>
      </trkpt>
      <trkpt lat="47.66049" lon="6.2055">
        <ele>264.9</ele>
        <time>2022-01-11T14:42:07Z</time>
      </trkpt>
      <trkpt lat="47.66058" lon="6.20555">
        <ele>265.3</ele>
        <time>2022-01-11T14:42:10Z</time>
      </trkpt>
      <trkpt lat="47.66063" lon="6.20558">
        <ele>265.3</ele>
        <time>2022-01-11T14:42:12Z</time>
      </trkpt>
      <trkpt lat="47.66073" lon="6.20564">
        <ele>265.3</ele>
        <time>2022-01-11T14:42:17Z</time>
      </trkpt>
      <trkpt lat="47.66084" lon="6.20569">
        <ele>265.6</ele>
        <time>2022-01-11T14:42:21Z</time>
      </trkpt>
      <trkpt lat="47.66095" lon="6.20575">
        <ele>265.8</ele>
        <time>2022-01-11T14:42:22Z</time>
      </trkpt>
      <trkpt lat="47.661" lon="6.20578">
        <ele>265.9</ele>
        <time>2022-01-11T14:42:24Z</time>
      </trkpt>
      <trkpt lat="47.66105" lon="6.2058">
        <ele>265.9</ele>
        <time>2022-01-11T14:42:29Z</time>
      </trkpt>
      <trkpt lat="47.66116" lon="6.20587">
        <ele>266</ele>
        <time>2022-01-11T14:42:30Z</time>
      </trkpt>
      <trkpt lat="47.66121" lon="6.20587">
        <ele>266.6</ele>
        <time>2022-01-11T14:42:32Z</time>
      </trkpt>
      <trkpt lat="47.66127" lon="6.20591">
        <ele>266.7</ele>
        <time>2022-01-11T14:42:38Z</time>
      </trkpt>
      <trkpt lat="47.66132" lon="6.20595">
        <ele>266.9</ele>
        <time>2022-01-11T14:42:41Z</time>
      </trkpt>
      <trkpt lat="47.66137" lon="6.20597">
        <ele>267.2</ele>
        <time>2022-01-11T14:42:43Z</time>
      </trkpt>
      <trkpt lat="47.66143" lon="6.20601">
        <ele>267.2</ele>
        <time>2022-01-11T14:42:43Z</time>
      </trkpt>
      <trkpt lat="47.66147" lon="6.20604">
        <ele>266.9</ele>
        <time>2022-01-11T14:42:49Z</time>
      </trkpt>
      <trkpt lat="47.66152" lon="6.20606">
        <ele>266.8</ele>
        <time>2022-01-11T14:42:51Z</time>
      </trkpt>
      <trkpt lat="47.66157" lon="6.20608">
        <ele>266.4</ele>
        <time>2022-01-11T14:42:54Z</time>
      </trkpt>
      <trkpt lat="47.66161" lon="6.20611">
        <ele>266.1</ele>
        <time>2022-01-11T14:42:56Z</time>
      </trkpt>
      <trkpt lat="47.66167" lon="6.20613">
        <ele>265.7</ele>
        <time>2022-01-11T14:42:58Z</time>
      </trkpt>
      <trkpt lat="47.66171" lon="6.20617">
        <ele>265.2</ele>
        <time>2022-01-11T14:43:00Z</time>
      </trkpt>
      <trkpt lat="47.66175" lon="6.20621">
        <ele>264.6</ele>
        <time>2022-01-11T14:43:01Z</time>
      </trkpt>
      <trkpt lat="47.66179" lon="6.20625">
        <ele>264</ele>
        <time>2022-01-11T14:43:02Z</time>
      </trkpt>
      <trkpt lat="47.66187" lon="6.2063">
        <ele>263.3</ele>
        <time>2022-01-11T14:43:04Z</time>
      </trkpt>
      <trkpt lat="47.66204" lon="6.20642">
        <ele>261.6</ele>
        <time>2022-01-11T14:43:08Z</time>
      </trkpt>
      <trkpt lat="47.66209" lon="6.20648">
        <ele>260.9</ele>
        <time>2022-01-11T14:43:09Z</time>
      </trkpt>
      <trkpt lat="47.66216" lon="6.20657">
        <ele>259.5</ele>
        <time>2022-01-11T14:43:11Z</time>
      </trkpt>
      <trkpt lat="47.66221" lon="6.20663">
        <ele>258.5</ele>
        <time>2022-01-11T14:43:12Z</time>
      </trkpt>
      <trkpt lat="47.66238" lon="6.20688">
        <ele>254.3</ele>
        <time>2022-01-11T14:43:12Z</time>
      </trkpt>
      <trkpt lat="47.66243" lon="6.20694">
        <ele>253.3</ele>
        <time>2022-01-11T14:43:13Z</time>
      </trkpt>
      <trkpt lat="47.66247" lon="6.207">
        <ele>252.3</ele>
        <time>2022-01-11T14:43:14Z</time>
      </trkpt>
      <trkpt lat="47.66251" lon="6.20705">
        <ele>251.4</ele>
        <time>2022-01-11T14:43:15Z</time>
      </trkpt>
      <trkpt lat="47.66255" lon="6.2071">
        <ele>250.6</ele>
        <time>2022-01-11T14:43:16Z</time>
      </trkpt>
      <trkpt lat="47.6626" lon="6.20714">
        <ele>249.9</ele>
        <time>2022-01-11T14:43:17Z</time>
      </trkpt>
      <trkpt lat="47.66264" lon="6.20717">
        <ele>249.2</ele>
        <time>2022-01-11T14:43:18Z</time>
      </trkpt>
      <trkpt lat="47.66269" lon="6.20721">
        <ele>248.5</ele>
        <time>2022-01-11T14:43:19Z</time>
      </trkpt>
      <trkpt lat="47.66275" lon="6.20723">
        <ele>248</ele>
        <time>2022-01-11T14:43:20Z</time>
      </trkpt>
      <trkpt lat="47.66282" lon="6.20725">
        <ele>247.7</ele>
        <time>2022-01-11T14:43:21Z</time>
      </trkpt>
      <trkpt lat="47.66289" lon="6.20725">
        <ele>247.5</ele>
        <time>2022-01-11T14:43:22Z</time>
      </trkpt>
      <trkpt lat="47.66297" lon="6.20726">
        <ele>247.4</ele>
        <time>2022-01-11T14:43:23Z</time>
      </trkpt>
      <trkpt lat="47.66304" lon="6.20728">
        <ele>247.2</ele>
        <time>2022-01-11T14:43:24Z</time>
      </trkpt>
      <trkpt lat="47.66311" lon="6.20729">
        <ele>246.9</ele>
        <time>2022-01-11T14:43:25Z</time>
      </trkpt>
      <trkpt lat="47.66317" lon="6.20731">
        <ele>246.5</ele>
        <time>2022-01-11T14:43:26Z</time>
      </trkpt>
      <trkpt lat="47.66323" lon="6.20732">
        <ele>246.2</ele>
        <time>2022-01-11T14:43:27Z</time>
      </trkpt>
      <trkpt lat="47.66328" lon="6.20734">
        <ele>245.9</ele>
        <time>2022-01-11T14:43:28Z</time>
      </trkpt>
      <trkpt lat="47.66333" lon="6.20736">
        <ele>245.6</ele>
        <time>2022-01-11T14:43:29Z</time>
      </trkpt>
      <trkpt lat="47.66338" lon="6.20738">
        <ele>245.4</ele>
        <time>2022-01-11T14:43:30Z</time>
      </trkpt>
      <trkpt lat="47.66343" lon="6.20741">
        <ele>245.2</ele>
        <time>2022-01-11T14:43:31Z</time>
      </trkpt>
      <trkpt lat="47.66348" lon="6.20745">
        <ele>245</ele>
        <time>2022-01-11T14:43:32Z</time>
      </trkpt>
      <trkpt lat="47.66353" lon="6.2075">
        <ele>244.7</ele>
        <time>2022-01-11T14:43:33Z</time>
      </trkpt>
      <trkpt lat="47.66356" lon="6.20757">
        <ele>244.5</ele>
        <time>2022-01-11T14:43:34Z</time>
      </trkpt>
      <trkpt lat="47.66359" lon="6.20765">
        <ele>244.3</ele>
        <time>2022-01-11T14:43:35Z</time>
      </trkpt>
      <trkpt lat="47.66362" lon="6.20774">
        <ele>244.2</ele>
        <time>2022-01-11T14:43:36Z</time>
      </trkpt>
      <trkpt lat="47.66364" lon="6.20783">
        <ele>244.1</ele>
        <time>2022-01-11T14:43:37Z</time>
      </trkpt>
      <trkpt lat="47.66366" lon="6.20791">
        <ele>243.9</ele>
        <time>2022-01-11T14:43:38Z</time>
      </trkpt>
      <trkpt lat="47.66368" lon="6.20799">
        <ele>243.8</ele>
        <time>2022-01-11T14:43:39Z</time>
      </trkpt>
      <trkpt lat="47.66371" lon="6.20807">
        <ele>243.6</ele>
        <time>2022-01-11T14:43:40Z</time>
      </trkpt>
      <trkpt lat="47.66374" lon="6.20814">
        <ele>243.5</ele>
        <time>2022-01-11T14:43:41Z</time>
      </trkpt>
      <trkpt lat="47.66377" lon="6.20822">
        <ele>243.2</ele>
        <time>2022-01-11T14:43:42Z</time>
      </trkpt>
      <trkpt lat="47.6638" lon="6.20829">
        <ele>243</ele>
        <time>2022-01-11T14:43:43Z</time>
      </trkpt>
      <trkpt lat="47.66383" lon="6.20837">
        <ele>242.7</ele>
        <time>2022-01-11T14:43:44Z</time>
      </trkpt>
      <trkpt lat="47.66385" lon="6.20845">
        <ele>242.7</ele>
        <time>2022-01-11T14:43:45Z</time>
      </trkpt>
      <trkpt lat="47.66385" lon="6.20853">
        <ele>242.7</ele>
        <time>2022-01-11T14:43:46Z</time>
      </trkpt>
      <trkpt lat="47.66385" lon="6.20862">
        <ele>242.6</ele>
        <time>2022-01-11T14:43:47Z</time>
      </trkpt>
      <trkpt lat="47.66385" lon="6.2087">
        <ele>242.6</ele>
        <time>2022-01-11T14:43:48Z</time>
      </trkpt>
      <trkpt lat="47.66386" lon="6.20878">
        <ele>242.7</ele>
        <time>2022-01-11T14:43:49Z</time>
      </trkpt>
      <trkpt lat="47.66388" lon="6.20884">
        <ele>242.9</ele>
        <time>2022-01-11T14:43:50Z</time>
      </trkpt>
      <trkpt lat="47.66392" lon="6.20895">
        <ele>242.7</ele>
        <time>2022-01-11T14:43:52Z</time>
      </trkpt>
      <trkpt lat="47.66394" lon="6.20905">
        <ele>242.3</ele>
        <time>2022-01-11T14:43:54Z</time>
      </trkpt>
      <trkpt lat="47.66397" lon="6.20914">
        <ele>242</ele>
        <time>2022-01-11T14:43:56Z</time>
      </trkpt>
      <trkpt lat="47.66398" lon="6.20924">
        <ele>241.8</ele>
        <time>2022-01-11T14:43:59Z</time>
      </trkpt>
      <trkpt lat="47.66397" lon="6.20932">
        <ele>241.4</ele>
        <time>2022-01-11T14:44:02Z</time>
      </trkpt>
      <trkpt lat="47.66399" lon="6.20941">
        <ele>241.2</ele>
        <time>2022-01-11T14:44:07Z</time>
      </trkpt>
      <trkpt lat="47.664" lon="6.2095">
        <ele>240.9</ele>
        <time>2022-01-11T14:44:09Z</time>
      </trkpt>
      <trkpt lat="47.664" lon="6.20958">
        <ele>240.5</ele>
        <time>2022-01-11T14:44:11Z</time>
      </trkpt>
      <trkpt lat="47.66396" lon="6.2097">
        <ele>239.1</ele>
        <time>2022-01-11T14:44:15Z</time>
      </trkpt>
      <trkpt lat="47.66394" lon="6.20981">
        <ele>238.3</ele>
        <time>2022-01-11T14:44:17Z</time>
      </trkpt>
      <trkpt lat="47.66393" lon="6.2099">
        <ele>238</ele>
        <time>2022-01-11T14:44:19Z</time>
      </trkpt>
      <trkpt lat="47.66393" lon="6.20997">
        <ele>237.6</ele>
        <time>2022-01-11T14:44:20Z</time>
      </trkpt>
      <trkpt lat="47.66392" lon="6.21005">
        <ele>237.3</ele>
        <time>2022-01-11T14:44:21Z</time>
      </trkpt>
      <trkpt lat="47.66392" lon="6.21013">
        <ele>237</ele>
        <time>2022-01-11T14:44:22Z</time>
      </trkpt>
      <trkpt lat="47.66393" lon="6.21023">
        <ele>236.7</ele>
        <time>2022-01-11T14:44:23Z</time>
      </trkpt>
      <trkpt lat="47.66399" lon="6.21047">
        <ele>236.4</ele>
        <time>2022-01-11T14:44:23Z</time>
      </trkpt>
      <trkpt lat="47.66403" lon="6.2105">
        <ele>236.8</ele>
        <time>2022-01-11T14:44:24Z</time>
      </trkpt>
      <trkpt lat="47.66407" lon="6.21052">
        <ele>237.2</ele>
        <time>2022-01-11T14:44:25Z</time>
      </trkpt>
      <trkpt lat="47.66413" lon="6.21056">
        <ele>237.5</ele>
        <time>2022-01-11T14:44:30Z</time>
      </trkpt>
      <trkpt lat="47.66418" lon="6.21057">
        <ele>238</ele>
        <time>2022-01-11T14:44:31Z</time>
      </trkpt>
      <trkpt lat="47.66429" lon="6.21051">
        <ele>239.7</ele>
        <time>2022-01-11T14:44:33Z</time>
      </trkpt>
      <trkpt lat="47.66433" lon="6.21046">
        <ele>240.4</ele>
        <time>2022-01-11T14:44:37Z</time>
      </trkpt>
      <trkpt lat="47.66438" lon="6.21047">
        <ele>240.9</ele>
        <time>2022-01-11T14:44:43Z</time>
      </trkpt>
      <trkpt lat="47.66443" lon="6.21045">
        <ele>241.6</ele>
        <time>2022-01-11T14:44:54Z</time>
      </trkpt>
      <trkpt lat="47.66447" lon="6.21041">
        <ele>242.1</ele>
        <time>2022-01-11T14:44:58Z</time>
      </trkpt>
      <trkpt lat="47.66452" lon="6.21041">
        <ele>242.4</ele>
        <time>2022-01-11T14:45:02Z</time>
      </trkpt>
      <trkpt lat="47.66458" lon="6.21038">
        <ele>242.7</ele>
        <time>2022-01-11T14:45:06Z</time>
      </trkpt>
      <trkpt lat="47.66461" lon="6.21034">
        <ele>243.2</ele>
        <time>2022-01-11T14:45:10Z</time>
      </trkpt>
      <trkpt lat="47.66466" lon="6.21031">
        <ele>243.6</ele>
        <time>2022-01-11T14:45:16Z</time>
      </trkpt>
      <trkpt lat="47.6647" lon="6.2103">
        <ele>243.8</ele>
        <time>2022-01-11T14:45:22Z</time>
      </trkpt>
      <trkpt lat="47.66475" lon="6.21027">
        <ele>244.2</ele>
        <time>2022-01-11T14:45:29Z</time>
      </trkpt>
      <trkpt lat="47.66481" lon="6.21024">
        <ele>244.6</ele>
        <time>2022-01-11T14:45:34Z</time>
      </trkpt>
      <trkpt lat="47.66486" lon="6.21019">
        <ele>245.3</ele>
        <time>2022-01-11T14:45:39Z</time>
      </trkpt>
      <trkpt lat="47.66491" lon="6.21019">
        <ele>245.5</ele>
        <time>2022-01-11T14:45:42Z</time>
      </trkpt>
      <trkpt lat="47.66495" lon="6.2102">
        <ele>245.6</ele>
        <time>2022-01-11T14:45:44Z</time>
      </trkpt>
      <trkpt lat="47.665" lon="6.21019">
        <ele>246</ele>
        <time>2022-01-11T14:45:48Z</time>
      </trkpt>
      <trkpt lat="47.66504" lon="6.21014">
        <ele>246.6</ele>
        <time>2022-01-11T14:45:52Z</time>
      </trkpt>
      <trkpt lat="47.66508" lon="6.21009">
        <ele>247.1</ele>
        <time>2022-01-11T14:45:55Z</time>
      </trkpt>
      <trkpt lat="47.66514" lon="6.2101">
        <ele>247.1</ele>
        <time>2022-01-11T14:45:59Z</time>
      </trkpt>
      <trkpt lat="47.66518" lon="6.21009">
        <ele>247.2</ele>
        <time>2022-01-11T14:46:03Z</time>
      </trkpt>
      <trkpt lat="47.66522" lon="6.21006">
        <ele>247.6</ele>
        <time>2022-01-11T14:46:09Z</time>
      </trkpt>
      <trkpt lat="47.66528" lon="6.21004">
        <ele>247.7</ele>
        <time>2022-01-11T14:46:13Z</time>
      </trkpt>
      <trkpt lat="47.66533" lon="6.21001">
        <ele>248.1</ele>
        <time>2022-01-11T14:46:16Z</time>
      </trkpt>
      <trkpt lat="47.66538" lon="6.20998">
        <ele>248.6</ele>
        <time>2022-01-11T14:46:20Z</time>
      </trkpt>
      <trkpt lat="47.66544" lon="6.20993">
        <ele>249.2</ele>
        <time>2022-01-11T14:46:25Z</time>
      </trkpt>
      <trkpt lat="47.6655" lon="6.20994">
        <ele>249.3</ele>
        <time>2022-01-11T14:46:30Z</time>
      </trkpt>
      <trkpt lat="47.66555" lon="6.20988">
        <ele>249.8</ele>
        <time>2022-01-11T14:46:38Z</time>
      </trkpt>
      <trkpt lat="47.6656" lon="6.20988">
        <ele>250</ele>
        <time>2022-01-11T14:46:44Z</time>
      </trkpt>
      <trkpt lat="47.66566" lon="6.20985">
        <ele>250.5</ele>
        <time>2022-01-11T14:46:45Z</time>
      </trkpt>
      <trkpt lat="47.66571" lon="6.2098">
        <ele>251</ele>
        <time>2022-01-11T14:46:52Z</time>
      </trkpt>
      <trkpt lat="47.66575" lon="6.20977">
        <ele>251.4</ele>
        <time>2022-01-11T14:46:55Z</time>
      </trkpt>
      <trkpt lat="47.6658" lon="6.20978">
        <ele>251.5</ele>
        <time>2022-01-11T14:46:55Z</time>
      </trkpt>
      <trkpt lat="47.66585" lon="6.20976">
        <ele>251.8</ele>
        <time>2022-01-11T14:46:59Z</time>
      </trkpt>
      <trkpt lat="47.6659" lon="6.20974">
        <ele>252.1</ele>
        <time>2022-01-11T14:47:04Z</time>
      </trkpt>
      <trkpt lat="47.66595" lon="6.20972">
        <ele>252.4</ele>
        <time>2022-01-11T14:47:09Z</time>
      </trkpt>
      <trkpt lat="47.66599" lon="6.20969">
        <ele>253.1</ele>
        <time>2022-01-11T14:47:12Z</time>
      </trkpt>
      <trkpt lat="47.66604" lon="6.20967">
        <ele>253.5</ele>
        <time>2022-01-11T14:47:15Z</time>
      </trkpt>
      <trkpt lat="47.66609" lon="6.20964">
        <ele>253.9</ele>
        <time>2022-01-11T14:47:19Z</time>
      </trkpt>
      <trkpt lat="47.66614" lon="6.20961">
        <ele>254.2</ele>
        <time>2022-01-11T14:47:23Z</time>
      </trkpt>
      <trkpt lat="47.66618" lon="6.2096">
        <ele>254.2</ele>
        <time>2022-01-11T14:47:26Z</time>
      </trkpt>
      <trkpt lat="47.66624" lon="6.2096">
        <ele>254</ele>
        <time>2022-01-11T14:47:31Z</time>
      </trkpt>
      <trkpt lat="47.66629" lon="6.20959">
        <ele>254.1</ele>
        <time>2022-01-11T14:47:38Z</time>
      </trkpt>
      <trkpt lat="47.66633" lon="6.20957">
        <ele>254.3</ele>
        <time>2022-01-11T14:47:41Z</time>
      </trkpt>
      <trkpt lat="47.66639" lon="6.20954">
        <ele>254.6</ele>
        <time>2022-01-11T14:47:44Z</time>
      </trkpt>
      <trkpt lat="47.66644" lon="6.20952">
        <ele>254.7</ele>
        <time>2022-01-11T14:47:44Z</time>
      </trkpt>
      <trkpt lat="47.6665" lon="6.2095">
        <ele>254.8</ele>
        <time>2022-01-11T14:47:50Z</time>
      </trkpt>
      <trkpt lat="47.66654" lon="6.20948">
        <ele>255</ele>
        <time>2022-01-11T14:47:53Z</time>
      </trkpt>
      <trkpt lat="47.66658" lon="6.20943">
        <ele>255.5</ele>
        <time>2022-01-11T14:47:56Z</time>
      </trkpt>
      <trkpt lat="47.66663" lon="6.20941">
        <ele>255.5</ele>
        <time>2022-01-11T14:47:56Z</time>
      </trkpt>
      <trkpt lat="47.66668" lon="6.2094">
        <ele>255.5</ele>
        <time>2022-01-11T14:47:59Z</time>
      </trkpt>
      <trkpt lat="47.66673" lon="6.20938">
        <ele>255.5</ele>
        <time>2022-01-11T14:48:02Z</time>
      </trkpt>
      <trkpt lat="47.66678" lon="6.20935">
        <ele>255.6</ele>
        <time>2022-01-11T14:48:05Z</time>
      </trkpt>
      <trkpt lat="47.66684" lon="6.20932">
        <ele>255.7</ele>
        <time>2022-01-11T14:48:08Z</time>
      </trkpt>
      <trkpt lat="47.66688" lon="6.2093">
        <ele>255.8</ele>
        <time>2022-01-11T14:48:14Z</time>
      </trkpt>
      <trkpt lat="47.66698" lon="6.20923">
        <ele>256.4</ele>
        <time>2022-01-11T14:48:16Z</time>
      </trkpt>
      <trkpt lat="47.66703" lon="6.2092">
        <ele>256.7</ele>
        <time>2022-01-11T14:48:22Z</time>
      </trkpt>
      <trkpt lat="47.66708" lon="6.20917">
        <ele>257</ele>
        <time>2022-01-11T14:48:22Z</time>
      </trkpt>
      <trkpt lat="47.66712" lon="6.20913">
        <ele>257.5</ele>
        <time>2022-01-11T14:48:28Z</time>
      </trkpt>
      <trkpt lat="47.66716" lon="6.2091">
        <ele>257.8</ele>
        <time>2022-01-11T14:48:28Z</time>
      </trkpt>
      <trkpt lat="47.66721" lon="6.2091">
        <ele>257.7</ele>
        <time>2022-01-11T14:48:31Z</time>
      </trkpt>
      <trkpt lat="47.66727" lon="6.20907">
        <ele>258.3</ele>
        <time>2022-01-11T14:48:35Z</time>
      </trkpt>
      <trkpt lat="47.66731" lon="6.20904">
        <ele>258.7</ele>
        <time>2022-01-11T14:48:42Z</time>
      </trkpt>
      <trkpt lat="47.66736" lon="6.20902">
        <ele>259</ele>
        <time>2022-01-11T14:48:42Z</time>
      </trkpt>
      <trkpt lat="47.6674" lon="6.20899">
        <ele>259.2</ele>
        <time>2022-01-11T14:48:46Z</time>
      </trkpt>
      <trkpt lat="47.66745" lon="6.20896">
        <ele>259.2</ele>
        <time>2022-01-11T14:48:50Z</time>
      </trkpt>
      <trkpt lat="47.66749" lon="6.20893">
        <ele>259.2</ele>
        <time>2022-01-11T14:48:54Z</time>
      </trkpt>
      <trkpt lat="47.66754" lon="6.2089">
        <ele>259.4</ele>
        <time>2022-01-11T14:49:01Z</time>
      </trkpt>
      <trkpt lat="47.6676" lon="6.20887">
        <ele>259.9</ele>
        <time>2022-01-11T14:49:03Z</time>
      </trkpt>
      <trkpt lat="47.66765" lon="6.20882">
        <ele>260.6</ele>
        <time>2022-01-11T14:49:09Z</time>
      </trkpt>
      <trkpt lat="47.6677" lon="6.20879">
        <ele>261.1</ele>
        <time>2022-01-11T14:49:10Z</time>
      </trkpt>
      <trkpt lat="47.66774" lon="6.20878">
        <ele>261.3</ele>
        <time>2022-01-11T14:49:16Z</time>
      </trkpt>
      <trkpt lat="47.66778" lon="6.20874">
        <ele>261.6</ele>
        <time>2022-01-11T14:49:17Z</time>
      </trkpt>
      <trkpt lat="47.66783" lon="6.20871">
        <ele>262.4</ele>
        <time>2022-01-11T14:49:23Z</time>
      </trkpt>
      <trkpt lat="47.66787" lon="6.20867">
        <ele>263</ele>
        <time>2022-01-11T14:49:25Z</time>
      </trkpt>
      <trkpt lat="47.66791" lon="6.20863">
        <ele>263.5</ele>
        <time>2022-01-11T14:49:29Z</time>
      </trkpt>
      <trkpt lat="47.66796" lon="6.20864">
        <ele>264.2</ele>
        <time>2022-01-11T14:49:35Z</time>
      </trkpt>
      <trkpt lat="47.66801" lon="6.20857">
        <ele>264.7</ele>
        <time>2022-01-11T14:49:39Z</time>
      </trkpt>
      <trkpt lat="47.66804" lon="6.20851">
        <ele>265.3</ele>
        <time>2022-01-11T14:49:41Z</time>
      </trkpt>
      <trkpt lat="47.66808" lon="6.20849">
        <ele>265.8</ele>
        <time>2022-01-11T14:49:45Z</time>
      </trkpt>
      <trkpt lat="47.66811" lon="6.20843">
        <ele>266.2</ele>
        <time>2022-01-11T14:49:49Z</time>
      </trkpt>
      <trkpt lat="47.66816" lon="6.2084">
        <ele>266.6</ele>
        <time>2022-01-11T14:49:56Z</time>
      </trkpt>
      <trkpt lat="47.66821" lon="6.20839">
        <ele>266.9</ele>
        <time>2022-01-11T14:50:02Z</time>
      </trkpt>
      <trkpt lat="47.66824" lon="6.20834">
        <ele>266.7</ele>
        <time>2022-01-11T14:50:04Z</time>
      </trkpt>
      <trkpt lat="47.66829" lon="6.20832">
        <ele>267</ele>
        <time>2022-01-11T14:50:11Z</time>
      </trkpt>
      <trkpt lat="47.66833" lon="6.20828">
        <ele>267.6</ele>
        <time>2022-01-11T14:50:13Z</time>
      </trkpt>
      <trkpt lat="47.66836" lon="6.20824">
        <ele>268.6</ele>
        <time>2022-01-11T14:50:17Z</time>
      </trkpt>
      <trkpt lat="47.66841" lon="6.20821">
        <ele>269.6</ele>
        <time>2022-01-11T14:50:24Z</time>
      </trkpt>
      <trkpt lat="47.66846" lon="6.20817">
        <ele>270.3</ele>
        <time>2022-01-11T14:50:29Z</time>
      </trkpt>
      <trkpt lat="47.66849" lon="6.20812">
        <ele>270.7</ele>
        <time>2022-01-11T14:50:31Z</time>
      </trkpt>
      <trkpt lat="47.66852" lon="6.20806">
        <ele>270.7</ele>
        <time>2022-01-11T14:50:34Z</time>
      </trkpt>
      <trkpt lat="47.66857" lon="6.20802">
        <ele>271</ele>
        <time>2022-01-11T14:50:40Z</time>
      </trkpt>
      <trkpt lat="47.6686" lon="6.20796">
        <ele>271.3</ele>
        <time>2022-01-11T14:50:47Z</time>
      </trkpt>
      <trkpt lat="47.66862" lon="6.2079">
        <ele>271.7</ele>
        <time>2022-01-11T14:50:52Z</time>
      </trkpt>
      <trkpt lat="47.66865" lon="6.20784">
        <ele>272.3</ele>
        <time>2022-01-11T14:50:56Z</time>
      </trkpt>
      <trkpt lat="47.66869" lon="6.20779">
        <ele>272.8</ele>
        <time>2022-01-11T14:51:01Z</time>
      </trkpt>
      <trkpt lat="47.66871" lon="6.20772">
        <ele>273.5</ele>
        <time>2022-01-11T14:51:06Z</time>
      </trkpt>
      <trkpt lat="47.66875" lon="6.20768">
        <ele>274.1</ele>
        <time>2022-01-11T14:51:11Z</time>
      </trkpt>
      <trkpt lat="47.66879" lon="6.20764">
        <ele>274.5</ele>
        <time>2022-01-11T14:51:13Z</time>
      </trkpt>
      <trkpt lat="47.66883" lon="6.2076">
        <ele>274.8</ele>
        <time>2022-01-11T14:51:19Z</time>
      </trkpt>
      <trkpt lat="47.66886" lon="6.20753">
        <ele>275</ele>
        <time>2022-01-11T14:51:20Z</time>
      </trkpt>
      <trkpt lat="47.66891" lon="6.20748">
        <ele>275.2</ele>
        <time>2022-01-11T14:51:24Z</time>
      </trkpt>
      <trkpt lat="47.66895" lon="6.20744">
        <ele>275.7</ele>
        <time>2022-01-11T14:51:28Z</time>
      </trkpt>
      <trkpt lat="47.66898" lon="6.20739">
        <ele>276.1</ele>
        <time>2022-01-11T14:51:31Z</time>
      </trkpt>
      <trkpt lat="47.669" lon="6.20733">
        <ele>276.3</ele>
        <time>2022-01-11T14:51:36Z</time>
      </trkpt>
      <trkpt lat="47.66906" lon="6.20728">
        <ele>276.4</ele>
        <time>2022-01-11T14:51:43Z</time>
      </trkpt>
      <trkpt lat="47.66911" lon="6.20723">
        <ele>276.2</ele>
        <time>2022-01-11T14:51:47Z</time>
      </trkpt>
      <trkpt lat="47.66915" lon="6.20719">
        <ele>276.3</ele>
        <time>2022-01-11T14:51:48Z</time>
      </trkpt>
      <trkpt lat="47.66918" lon="6.20714">
        <ele>276.7</ele>
        <time>2022-01-11T14:51:51Z</time>
      </trkpt>
      <trkpt lat="47.66922" lon="6.20709">
        <ele>277.3</ele>
        <time>2022-01-11T14:51:55Z</time>
      </trkpt>
      <trkpt lat="47.66926" lon="6.20708">
        <ele>277.7</ele>
        <time>2022-01-11T14:51:59Z</time>
      </trkpt>
      <trkpt lat="47.6693" lon="6.20703">
        <ele>278.2</ele>
        <time>2022-01-11T14:52:04Z</time>
      </trkpt>
      <trkpt lat="47.66934" lon="6.20699">
        <ele>278.5</ele>
        <time>2022-01-11T14:52:09Z</time>
      </trkpt>
      <trkpt lat="47.66938" lon="6.20696">
        <ele>278.7</ele>
        <time>2022-01-11T14:52:16Z</time>
      </trkpt>
      <trkpt lat="47.66942" lon="6.20693">
        <ele>279</ele>
        <time>2022-01-11T14:52:19Z</time>
      </trkpt>
      <trkpt lat="47.66945" lon="6.20688">
        <ele>279.5</ele>
        <time>2022-01-11T14:52:20Z</time>
      </trkpt>
      <trkpt lat="47.66949" lon="6.20684">
        <ele>279.8</ele>
        <time>2022-01-11T14:52:23Z</time>
      </trkpt>
      <trkpt lat="47.66954" lon="6.20683">
        <ele>280</ele>
        <time>2022-01-11T14:52:27Z</time>
      </trkpt>
      <trkpt lat="47.66959" lon="6.20682">
        <ele>280.2</ele>
        <time>2022-01-11T14:52:33Z</time>
      </trkpt>
      <trkpt lat="47.66963" lon="6.2068">
        <ele>280.4</ele>
        <time>2022-01-11T14:52:36Z</time>
      </trkpt>
      <trkpt lat="47.66965" lon="6.20674">
        <ele>280.7</ele>
        <time>2022-01-11T14:52:40Z</time>
      </trkpt>
      <trkpt lat="47.6697" lon="6.20673">
        <ele>280.8</ele>
        <time>2022-01-11T14:52:44Z</time>
      </trkpt>
      <trkpt lat="47.66973" lon="6.20667">
        <ele>281</ele>
        <time>2022-01-11T14:52:49Z</time>
      </trkpt>
      <trkpt lat="47.66975" lon="6.20661">
        <ele>281.3</ele>
        <time>2022-01-11T14:52:54Z</time>
      </trkpt>
      <trkpt lat="47.6698" lon="6.20657">
        <ele>281.6</ele>
        <time>2022-01-11T14:52:58Z</time>
      </trkpt>
      <trkpt lat="47.66983" lon="6.20652">
        <ele>281.9</ele>
        <time>2022-01-11T14:53:01Z</time>
      </trkpt>
      <trkpt lat="47.66986" lon="6.20645">
        <ele>282.3</ele>
        <time>2022-01-11T14:53:02Z</time>
      </trkpt>
      <trkpt lat="47.66987" lon="6.20638">
        <ele>282.6</ele>
        <time>2022-01-11T14:53:07Z</time>
      </trkpt>
      <trkpt lat="47.66987" lon="6.20631">
        <ele>283.2</ele>
        <time>2022-01-11T14:53:11Z</time>
      </trkpt>
      <trkpt lat="47.66988" lon="6.20625">
        <ele>283.9</ele>
        <time>2022-01-11T14:53:16Z</time>
      </trkpt>
      <trkpt lat="47.6699" lon="6.20618">
        <ele>284.6</ele>
        <time>2022-01-11T14:53:24Z</time>
      </trkpt>
      <trkpt lat="47.6699" lon="6.20611">
        <ele>285.3</ele>
        <time>2022-01-11T14:53:28Z</time>
      </trkpt>
      <trkpt lat="47.66991" lon="6.20604">
        <ele>285.7</ele>
        <time>2022-01-11T14:53:31Z</time>
      </trkpt>
      <trkpt lat="47.66995" lon="6.20598">
        <ele>286.2</ele>
        <time>2022-01-11T14:53:36Z</time>
      </trkpt>
      <trkpt lat="47.66996" lon="6.20591">
        <ele>286.5</ele>
        <time>2022-01-11T14:53:40Z</time>
      </trkpt>
      <trkpt lat="47.66998" lon="6.20585">
        <ele>286.9</ele>
        <time>2022-01-11T14:53:44Z</time>
      </trkpt>
      <trkpt lat="47.67002" lon="6.20579">
        <ele>287.5</ele>
        <time>2022-01-11T14:53:47Z</time>
      </trkpt>
      <trkpt lat="47.67005" lon="6.20574">
        <ele>288.3</ele>
        <time>2022-01-11T14:53:52Z</time>
      </trkpt>
      <trkpt lat="47.67009" lon="6.2057">
        <ele>289.1</ele>
        <time>2022-01-11T14:53:56Z</time>
      </trkpt>
      <trkpt lat="47.67014" lon="6.20566">
        <ele>289.9</ele>
        <time>2022-01-11T14:54:01Z</time>
      </trkpt>
      <trkpt lat="47.67018" lon="6.20562">
        <ele>290.6</ele>
        <time>2022-01-11T14:54:05Z</time>
      </trkpt>
      <trkpt lat="47.67023" lon="6.20558">
        <ele>291.4</ele>
        <time>2022-01-11T14:54:11Z</time>
      </trkpt>
      <trkpt lat="47.67028" lon="6.20557">
        <ele>291.9</ele>
        <time>2022-01-11T14:54:15Z</time>
      </trkpt>
      <trkpt lat="47.67033" lon="6.20554">
        <ele>292.1</ele>
        <time>2022-01-11T14:54:19Z</time>
      </trkpt>
      <trkpt lat="47.67037" lon="6.20551">
        <ele>292.4</ele>
        <time>2022-01-11T14:54:24Z</time>
      </trkpt>
      <trkpt lat="47.67041" lon="6.20545">
        <ele>293</ele>
        <time>2022-01-11T14:54:28Z</time>
      </trkpt>
      <trkpt lat="47.67044" lon="6.20538">
        <ele>293.6</ele>
        <time>2022-01-11T14:54:35Z</time>
      </trkpt>
      <trkpt lat="47.67048" lon="6.20535">
        <ele>294</ele>
        <time>2022-01-11T14:54:36Z</time>
      </trkpt>
      <trkpt lat="47.67052" lon="6.20532">
        <ele>294.5</ele>
        <time>2022-01-11T14:54:39Z</time>
      </trkpt>
      <trkpt lat="47.67056" lon="6.20526">
        <ele>295.1</ele>
        <time>2022-01-11T14:54:44Z</time>
      </trkpt>
      <trkpt lat="47.6706" lon="6.20521">
        <ele>295.3</ele>
        <time>2022-01-11T14:54:48Z</time>
      </trkpt>
      <trkpt lat="47.67065" lon="6.2052">
        <ele>295.2</ele>
        <time>2022-01-11T14:54:53Z</time>
      </trkpt>
      <trkpt lat="47.67068" lon="6.20514">
        <ele>295.5</ele>
        <time>2022-01-11T14:54:57Z</time>
      </trkpt>
      <trkpt lat="47.67072" lon="6.2051">
        <ele>295.7</ele>
        <time>2022-01-11T14:55:00Z</time>
      </trkpt>
      <trkpt lat="47.67076" lon="6.20507">
        <ele>295.8</ele>
        <time>2022-01-11T14:55:04Z</time>
      </trkpt>
      <trkpt lat="47.67079" lon="6.20498">
        <ele>296.3</ele>
        <time>2022-01-11T14:55:08Z</time>
      </trkpt>
      <trkpt lat="47.67083" lon="6.20493">
        <ele>296.5</ele>
        <time>2022-01-11T14:55:13Z</time>
      </trkpt>
      <trkpt lat="47.67087" lon="6.20489">
        <ele>296.7</ele>
        <time>2022-01-11T14:55:17Z</time>
      </trkpt>
      <trkpt lat="47.67091" lon="6.20483">
        <ele>297.1</ele>
        <time>2022-01-11T14:55:21Z</time>
      </trkpt>
      <trkpt lat="47.67093" lon="6.20475">
        <ele>297.7</ele>
        <time>2022-01-11T14:55:25Z</time>
      </trkpt>
      <trkpt lat="47.67096" lon="6.20468">
        <ele>298.4</ele>
        <time>2022-01-11T14:55:29Z</time>
      </trkpt>
      <trkpt lat="47.67099" lon="6.20461">
        <ele>299</ele>
        <time>2022-01-11T14:55:34Z</time>
      </trkpt>
      <trkpt lat="47.67104" lon="6.20456">
        <ele>299.4</ele>
        <time>2022-01-11T14:55:38Z</time>
      </trkpt>
      <trkpt lat="47.67108" lon="6.20451">
        <ele>299.6</ele>
        <time>2022-01-11T14:55:42Z</time>
      </trkpt>
      <trkpt lat="47.6711" lon="6.20445">
        <ele>300</ele>
        <time>2022-01-11T14:55:46Z</time>
      </trkpt>
      <trkpt lat="47.67113" lon="6.2044">
        <ele>300.3</ele>
        <time>2022-01-11T14:55:50Z</time>
      </trkpt>
      <trkpt lat="47.67119" lon="6.20436">
        <ele>300.6</ele>
        <time>2022-01-11T14:55:54Z</time>
      </trkpt>
      <trkpt lat="47.67121" lon="6.20428">
        <ele>301.2</ele>
        <time>2022-01-11T14:55:59Z</time>
      </trkpt>
      <trkpt lat="47.67124" lon="6.20422">
        <ele>301.6</ele>
        <time>2022-01-11T14:56:05Z</time>
      </trkpt>
      <trkpt lat="47.67129" lon="6.20417">
        <ele>302</ele>
        <time>2022-01-11T14:56:06Z</time>
      </trkpt>
      <trkpt lat="47.67134" lon="6.20412">
        <ele>302.3</ele>
        <time>2022-01-11T14:56:11Z</time>
      </trkpt>
      <trkpt lat="47.67138" lon="6.20404">
        <ele>302.9</ele>
        <time>2022-01-11T14:56:15Z</time>
      </trkpt>
      <trkpt lat="47.67142" lon="6.20399">
        <ele>303.1</ele>
        <time>2022-01-11T14:56:19Z</time>
      </trkpt>
      <trkpt lat="47.67147" lon="6.20394">
        <ele>303.3</ele>
        <time>2022-01-11T14:56:25Z</time>
      </trkpt>
      <trkpt lat="47.67151" lon="6.20391">
        <ele>303.4</ele>
        <time>2022-01-11T14:56:28Z</time>
      </trkpt>
      <trkpt lat="47.67156" lon="6.20388">
        <ele>303.4</ele>
        <time>2022-01-11T14:56:31Z</time>
      </trkpt>
      <trkpt lat="47.67161" lon="6.20384">
        <ele>303.5</ele>
        <time>2022-01-11T14:56:34Z</time>
      </trkpt>
      <trkpt lat="47.67165" lon="6.2038">
        <ele>303.7</ele>
        <time>2022-01-11T14:56:37Z</time>
      </trkpt>
      <trkpt lat="47.6717" lon="6.20377">
        <ele>303.8</ele>
        <time>2022-01-11T14:56:40Z</time>
      </trkpt>
      <trkpt lat="47.67175" lon="6.20375">
        <ele>303.7</ele>
        <time>2022-01-11T14:56:42Z</time>
      </trkpt>
      <trkpt lat="47.67184" lon="6.20368">
        <ele>303.9</ele>
        <time>2022-01-11T14:56:47Z</time>
      </trkpt>
      <trkpt lat="47.67188" lon="6.20363">
        <ele>304.1</ele>
        <time>2022-01-11T14:56:50Z</time>
      </trkpt>
      <trkpt lat="47.67192" lon="6.20357">
        <ele>304.2</ele>
        <time>2022-01-11T14:56:52Z</time>
      </trkpt>
      <trkpt lat="47.67196" lon="6.2035">
        <ele>304.4</ele>
        <time>2022-01-11T14:56:55Z</time>
      </trkpt>
      <trkpt lat="47.67196" lon="6.20343">
        <ele>304.6</ele>
        <time>2022-01-11T14:56:57Z</time>
      </trkpt>
      <trkpt lat="47.67199" lon="6.20335">
        <ele>304.9</ele>
        <time>2022-01-11T14:57:00Z</time>
      </trkpt>
      <trkpt lat="47.67202" lon="6.20327">
        <ele>305</ele>
        <time>2022-01-11T14:57:01Z</time>
      </trkpt>
      <trkpt lat="47.67205" lon="6.2032">
        <ele>305</ele>
        <time>2022-01-11T14:57:06Z</time>
      </trkpt>
      <trkpt lat="47.67209" lon="6.20314">
        <ele>305</ele>
        <time>2022-01-11T14:57:09Z</time>
      </trkpt>
      <trkpt lat="47.67213" lon="6.2031">
        <ele>305</ele>
        <time>2022-01-11T14:57:11Z</time>
      </trkpt>
      <trkpt lat="47.67216" lon="6.20304">
        <ele>305</ele>
        <time>2022-01-11T14:57:13Z</time>
      </trkpt>
      <trkpt lat="47.67221" lon="6.203">
        <ele>305</ele>
        <time>2022-01-11T14:57:15Z</time>
      </trkpt>
      <trkpt lat="47.67224" lon="6.20296">
        <ele>305</ele>
        <time>2022-01-11T14:57:16Z</time>
      </trkpt>
      <trkpt lat="47.67229" lon="6.20292">
        <ele>305</ele>
        <time>2022-01-11T14:57:18Z</time>
      </trkpt>
      <trkpt lat="47.67235" lon="6.20288">
        <ele>305</ele>
        <time>2022-01-11T14:57:20Z</time>
      </trkpt>
      <trkpt lat="47.6724" lon="6.20285">
        <ele>305</ele>
        <time>2022-01-11T14:57:22Z</time>
      </trkpt>
      <trkpt lat="47.67245" lon="6.20283">
        <ele>305</ele>
        <time>2022-01-11T14:57:24Z</time>
      </trkpt>
      <trkpt lat="47.67256" lon="6.20278">
        <ele>305</ele>
        <time>2022-01-11T14:57:28Z</time>
      </trkpt>
      <trkpt lat="47.67262" lon="6.20275">
        <ele>305</ele>
        <time>2022-01-11T14:57:30Z</time>
      </trkpt>
      <trkpt lat="47.67267" lon="6.20271">
        <ele>305</ele>
        <time>2022-01-11T14:57:32Z</time>
      </trkpt>
      <trkpt lat="47.67273" lon="6.20268">
        <ele>305</ele>
        <time>2022-01-11T14:57:34Z</time>
      </trkpt>
      <trkpt lat="47.67283" lon="6.20259">
        <ele>305</ele>
        <time>2022-01-11T14:57:35Z</time>
      </trkpt>
      <trkpt lat="47.67288" lon="6.20254">
        <ele>305</ele>
        <time>2022-01-11T14:57:40Z</time>
      </trkpt>
      <trkpt lat="47.67297" lon="6.20245">
        <ele>304.9</ele>
        <time>2022-01-11T14:57:41Z</time>
      </trkpt>
      <trkpt lat="47.67301" lon="6.2024">
        <ele>304.9</ele>
        <time>2022-01-11T14:57:46Z</time>
      </trkpt>
      <trkpt lat="47.67306" lon="6.20234">
        <ele>305</ele>
        <time>2022-01-11T14:57:49Z</time>
      </trkpt>
      <trkpt lat="47.67312" lon="6.20229">
        <ele>305.2</ele>
        <time>2022-01-11T14:57:52Z</time>
      </trkpt>
      <trkpt lat="47.67316" lon="6.20225">
        <ele>305.4</ele>
        <time>2022-01-11T14:57:54Z</time>
      </trkpt>
      <trkpt lat="47.67326" lon="6.20216">
        <ele>305.7</ele>
        <time>2022-01-11T14:57:56Z</time>
      </trkpt>
      <trkpt lat="47.67331" lon="6.20212">
        <ele>305.9</ele>
        <time>2022-01-11T14:58:02Z</time>
      </trkpt>
      <trkpt lat="47.6734" lon="6.20207">
        <ele>306</ele>
        <time>2022-01-11T14:58:03Z</time>
      </trkpt>
      <trkpt lat="47.67345" lon="6.20205">
        <ele>306</ele>
        <time>2022-01-11T14:58:09Z</time>
      </trkpt>
      <trkpt lat="47.6735" lon="6.20203">
        <ele>306</ele>
        <time>2022-01-11T14:58:11Z</time>
      </trkpt>
      <trkpt lat="47.67359" lon="6.20198">
        <ele>306</ele>
        <time>2022-01-11T14:58:16Z</time>
      </trkpt>
      <trkpt lat="47.67364" lon="6.20194">
        <ele>306.1</ele>
        <time>2022-01-11T14:58:19Z</time>
      </trkpt>
      <trkpt lat="47.67368" lon="6.2019">
        <ele>306.2</ele>
        <time>2022-01-11T14:58:21Z</time>
      </trkpt>
      <trkpt lat="47.67373" lon="6.20188">
        <ele>306.3</ele>
        <time>2022-01-11T14:58:23Z</time>
      </trkpt>
      <trkpt lat="47.67382" lon="6.2018">
        <ele>306.4</ele>
        <time>2022-01-11T14:58:28Z</time>
      </trkpt>
      <trkpt lat="47.67386" lon="6.20176">
        <ele>306.3</ele>
        <time>2022-01-11T14:58:31Z</time>
      </trkpt>
      <trkpt lat="47.67396" lon="6.20173">
        <ele>306.4</ele>
        <time>2022-01-11T14:58:32Z</time>
      </trkpt>
      <trkpt lat="47.674" lon="6.20171">
        <ele>306.5</ele>
        <time>2022-01-11T14:58:38Z</time>
      </trkpt>
      <trkpt lat="47.67404" lon="6.20166">
        <ele>306.5</ele>
        <time>2022-01-11T14:58:40Z</time>
      </trkpt>
      <trkpt lat="47.67408" lon="6.20162">
        <ele>306.7</ele>
        <time>2022-01-11T14:58:40Z</time>
      </trkpt>
      <trkpt lat="47.67413" lon="6.2016">
        <ele>306.9</ele>
        <time>2022-01-11T14:58:42Z</time>
      </trkpt>
      <trkpt lat="47.67418" lon="6.20159">
        <ele>307</ele>
        <time>2022-01-11T14:58:47Z</time>
      </trkpt>
      <trkpt lat="47.67429" lon="6.20159">
        <ele>307</ele>
        <time>2022-01-11T14:58:52Z</time>
      </trkpt>
      <trkpt lat="47.67434" lon="6.20159">
        <ele>307</ele>
        <time>2022-01-11T14:58:55Z</time>
      </trkpt>
      <trkpt lat="47.67439" lon="6.20159">
        <ele>307</ele>
        <time>2022-01-11T14:58:58Z</time>
      </trkpt>
      <trkpt lat="47.67449" lon="6.20159">
        <ele>307.2</ele>
        <time>2022-01-11T14:58:59Z</time>
      </trkpt>
      <trkpt lat="47.67454" lon="6.20159">
        <ele>307.4</ele>
        <time>2022-01-11T14:59:01Z</time>
      </trkpt>
      <trkpt lat="47.6746" lon="6.20159">
        <ele>307.7</ele>
        <time>2022-01-11T14:59:04Z</time>
      </trkpt>
      <trkpt lat="47.67465" lon="6.2016">
        <ele>307.9</ele>
        <time>2022-01-11T14:59:11Z</time>
      </trkpt>
      <trkpt lat="47.6747" lon="6.20161">
        <ele>308.1</ele>
        <time>2022-01-11T14:59:13Z</time>
      </trkpt>
      <trkpt lat="47.67475" lon="6.20163">
        <ele>308.3</ele>
        <time>2022-01-11T14:59:17Z</time>
      </trkpt>
      <trkpt lat="47.6748" lon="6.20164">
        <ele>308.4</ele>
        <time>2022-01-11T14:59:17Z</time>
      </trkpt>
      <trkpt lat="47.67485" lon="6.20165">
        <ele>308.6</ele>
        <time>2022-01-11T14:59:23Z</time>
      </trkpt>
      <trkpt lat="47.6749" lon="6.20165">
        <ele>308.7</ele>
        <time>2022-01-11T14:59:26Z</time>
      </trkpt>
      <trkpt lat="47.67495" lon="6.20166">
        <ele>308.9</ele>
        <time>2022-01-11T14:59:26Z</time>
      </trkpt>
      <trkpt lat="47.67501" lon="6.20167">
        <ele>308.9</ele>
        <time>2022-01-11T14:59:29Z</time>
      </trkpt>
      <trkpt lat="47.67506" lon="6.20169">
        <ele>309</ele>
        <time>2022-01-11T14:59:46Z</time>
      </trkpt>
      <trkpt lat="47.67512" lon="6.20169">
        <ele>309.1</ele>
        <time>2022-01-11T14:59:52Z</time>
      </trkpt>
      <trkpt lat="47.67518" lon="6.20169">
        <ele>309.3</ele>
        <time>2022-01-11T14:59:55Z</time>
      </trkpt>
      <trkpt lat="47.67523" lon="6.2017">
        <ele>309.5</ele>
        <time>2022-01-11T14:59:58Z</time>
      </trkpt>
      <trkpt lat="47.67529" lon="6.20171">
        <ele>309.6</ele>
        <time>2022-01-11T15:00:01Z</time>
      </trkpt>
      <trkpt lat="47.67534" lon="6.20172">
        <ele>309.9</ele>
        <time>2022-01-11T15:00:04Z</time>
      </trkpt>
      <trkpt lat="47.67539" lon="6.20172">
        <ele>310.2</ele>
        <time>2022-01-11T15:00:04Z</time>
      </trkpt>
      <trkpt lat="47.67543" lon="6.2017">
        <ele>310.7</ele>
        <time>2022-01-11T15:00:09Z</time>
      </trkpt>
      <trkpt lat="47.67548" lon="6.20169">
        <ele>311.2</ele>
        <time>2022-01-11T15:00:16Z</time>
      </trkpt>
      <trkpt lat="47.67553" lon="6.2017">
        <ele>311.5</ele>
        <time>2022-01-11T15:00:20Z</time>
      </trkpt>
      <trkpt lat="47.6756" lon="6.20171">
        <ele>311.8</ele>
        <time>2022-01-11T15:00:23Z</time>
      </trkpt>
      <trkpt lat="47.67565" lon="6.2017">
        <ele>312.3</ele>
        <time>2022-01-11T15:00:23Z</time>
      </trkpt>
      <trkpt lat="47.67571" lon="6.20172">
        <ele>312.5</ele>
        <time>2022-01-11T15:00:29Z</time>
      </trkpt>
      <trkpt lat="47.67576" lon="6.20175">
        <ele>312.6</ele>
        <time>2022-01-11T15:00:32Z</time>
      </trkpt>
      <trkpt lat="47.67582" lon="6.20178">
        <ele>312.7</ele>
        <time>2022-01-11T15:00:35Z</time>
      </trkpt>
      <trkpt lat="47.67587" lon="6.2018">
        <ele>312.8</ele>
        <time>2022-01-11T15:00:38Z</time>
      </trkpt>
      <trkpt lat="47.67593" lon="6.20182">
        <ele>313.1</ele>
        <time>2022-01-11T15:00:41Z</time>
      </trkpt>
      <trkpt lat="47.67598" lon="6.20183">
        <ele>313.2</ele>
        <time>2022-01-11T15:00:44Z</time>
      </trkpt>
      <trkpt lat="47.67603" lon="6.20187">
        <ele>313.2</ele>
        <time>2022-01-11T15:00:47Z</time>
      </trkpt>
      <trkpt lat="47.67608" lon="6.2019">
        <ele>313.3</ele>
        <time>2022-01-11T15:00:50Z</time>
      </trkpt>
      <trkpt lat="47.67618" lon="6.20197">
        <ele>313.2</ele>
        <time>2022-01-11T15:00:55Z</time>
      </trkpt>
      <trkpt lat="47.67622" lon="6.202">
        <ele>313.3</ele>
        <time>2022-01-11T15:00:58Z</time>
      </trkpt>
      <trkpt lat="47.67633" lon="6.20204">
        <ele>313.8</ele>
        <time>2022-01-11T15:01:03Z</time>
      </trkpt>
      <trkpt lat="47.67643" lon="6.20206">
        <ele>314.5</ele>
        <time>2022-01-11T15:01:20Z</time>
      </trkpt>
      <trkpt lat="47.67645" lon="6.20199">
        <ele>315.1</ele>
        <time>2022-01-11T15:01:26Z</time>
      </trkpt>
      <trkpt lat="47.6764" lon="6.20201">
        <ele>314.7</ele>
        <time>2022-01-11T15:01:57Z</time>
      </trkpt>
      <trkpt lat="47.67635" lon="6.20201">
        <ele>314.2</ele>
        <time>2022-01-11T15:02:00Z</time>
      </trkpt>
      <trkpt lat="47.67631" lon="6.20203">
        <ele>313.7</ele>
        <time>2022-01-11T15:02:07Z</time>
      </trkpt>
      <trkpt lat="47.67626" lon="6.20204">
        <ele>313.3</ele>
        <time>2022-01-11T15:02:11Z</time>
      </trkpt>
      <trkpt lat="47.67621" lon="6.20204">
        <ele>312.8</ele>
        <time>2022-01-11T15:02:15Z</time>
      </trkpt>
      <trkpt lat="47.67617" lon="6.20203">
        <ele>312.5</ele>
        <time>2022-01-11T15:02:20Z</time>
      </trkpt>
      <trkpt lat="47.67611" lon="6.20202">
        <ele>312.2</ele>
        <time>2022-01-11T15:02:31Z</time>
      </trkpt>
      <trkpt lat="47.67606" lon="6.20199">
        <ele>312.2</ele>
        <time>2022-01-11T15:02:34Z</time>
      </trkpt>
      <trkpt lat="47.67602" lon="6.20196">
        <ele>312.1</ele>
        <time>2022-01-11T15:02:35Z</time>
      </trkpt>
      <trkpt lat="47.67596" lon="6.20195">
        <ele>311.9</ele>
        <time>2022-01-11T15:02:38Z</time>
      </trkpt>
      <trkpt lat="47.6759" lon="6.20193">
        <ele>311.6</ele>
        <time>2022-01-11T15:02:40Z</time>
      </trkpt>
      <trkpt lat="47.67584" lon="6.20192">
        <ele>311.4</ele>
        <time>2022-01-11T15:02:42Z</time>
      </trkpt>
      <trkpt lat="47.67579" lon="6.20191">
        <ele>311.1</ele>
        <time>2022-01-11T15:02:43Z</time>
      </trkpt>
      <trkpt lat="47.67566" lon="6.2019">
        <ele>310.3</ele>
        <time>2022-01-11T15:02:46Z</time>
      </trkpt>
      <trkpt lat="47.67554" lon="6.20189">
        <ele>309.4</ele>
        <time>2022-01-11T15:02:49Z</time>
      </trkpt>
      <trkpt lat="47.67548" lon="6.20189">
        <ele>309.1</ele>
        <time>2022-01-11T15:02:50Z</time>
      </trkpt>
      <trkpt lat="47.67537" lon="6.20187">
        <ele>308.4</ele>
        <time>2022-01-11T15:02:53Z</time>
      </trkpt>
      <trkpt lat="47.67532" lon="6.20187">
        <ele>308.1</ele>
        <time>2022-01-11T15:02:55Z</time>
      </trkpt>
      <trkpt lat="47.67527" lon="6.20187">
        <ele>307.8</ele>
        <time>2022-01-11T15:02:57Z</time>
      </trkpt>
      <trkpt lat="47.67523" lon="6.20187">
        <ele>307.6</ele>
        <time>2022-01-11T15:02:59Z</time>
      </trkpt>
      <trkpt lat="47.67513" lon="6.20186">
        <ele>307.3</ele>
        <time>2022-01-11T15:03:03Z</time>
      </trkpt>
      <trkpt lat="47.67507" lon="6.20187">
        <ele>307.1</ele>
        <time>2022-01-11T15:03:05Z</time>
      </trkpt>
      <trkpt lat="47.67501" lon="6.20187">
        <ele>306.8</ele>
        <time>2022-01-11T15:03:07Z</time>
      </trkpt>
      <trkpt lat="47.6749" lon="6.20186">
        <ele>306.8</ele>
        <time>2022-01-11T15:03:08Z</time>
      </trkpt>
      <trkpt lat="47.67484" lon="6.20187">
        <ele>306.6</ele>
        <time>2022-01-11T15:03:10Z</time>
      </trkpt>
      <trkpt lat="47.67479" lon="6.20187">
        <ele>306.6</ele>
        <time>2022-01-11T15:03:15Z</time>
      </trkpt>
      <trkpt lat="47.67474" lon="6.20185">
        <ele>306.7</ele>
        <time>2022-01-11T15:03:17Z</time>
      </trkpt>
      <trkpt lat="47.67469" lon="6.20185">
        <ele>306.7</ele>
        <time>2022-01-11T15:03:19Z</time>
      </trkpt>
      <trkpt lat="47.67464" lon="6.20184">
        <ele>306.8</ele>
        <time>2022-01-11T15:03:21Z</time>
      </trkpt>
      <trkpt lat="47.67458" lon="6.20183">
        <ele>306.9</ele>
        <time>2022-01-11T15:03:23Z</time>
      </trkpt>
      <trkpt lat="47.67453" lon="6.20183">
        <ele>307</ele>
        <time>2022-01-11T15:03:25Z</time>
      </trkpt>
      <trkpt lat="47.67443" lon="6.20182">
        <ele>307</ele>
        <time>2022-01-11T15:03:28Z</time>
      </trkpt>
      <trkpt lat="47.67439" lon="6.20182">
        <ele>307</ele>
        <time>2022-01-11T15:03:30Z</time>
      </trkpt>
      <trkpt lat="47.67433" lon="6.20183">
        <ele>307</ele>
        <time>2022-01-11T15:03:32Z</time>
      </trkpt>
      <trkpt lat="47.67427" lon="6.20182">
        <ele>307</ele>
        <time>2022-01-11T15:03:34Z</time>
      </trkpt>
      <trkpt lat="47.67423" lon="6.20181">
        <ele>307</ele>
        <time>2022-01-11T15:03:36Z</time>
      </trkpt>
      <trkpt lat="47.67418" lon="6.20182">
        <ele>307</ele>
        <time>2022-01-11T15:03:38Z</time>
      </trkpt>
      <trkpt lat="47.67414" lon="6.20187">
        <ele>307</ele>
        <time>2022-01-11T15:03:40Z</time>
      </trkpt>
      <trkpt lat="47.67409" lon="6.20188">
        <ele>306.9</ele>
        <time>2022-01-11T15:03:42Z</time>
      </trkpt>
      <trkpt lat="47.67404" lon="6.20189">
        <ele>306.9</ele>
        <time>2022-01-11T15:03:44Z</time>
      </trkpt>
      <trkpt lat="47.67393" lon="6.20194">
        <ele>307</ele>
        <time>2022-01-11T15:03:49Z</time>
      </trkpt>
      <trkpt lat="47.67383" lon="6.20198">
        <ele>306.7</ele>
        <time>2022-01-11T15:03:52Z</time>
      </trkpt>
      <trkpt lat="47.67377" lon="6.20202">
        <ele>306.4</ele>
        <time>2022-01-11T15:03:54Z</time>
      </trkpt>
      <trkpt lat="47.67372" lon="6.20204">
        <ele>306.3</ele>
        <time>2022-01-11T15:03:56Z</time>
      </trkpt>
      <trkpt lat="47.67363" lon="6.20211">
        <ele>306</ele>
        <time>2022-01-11T15:03:59Z</time>
      </trkpt>
      <trkpt lat="47.67358" lon="6.20214">
        <ele>306</ele>
        <time>2022-01-11T15:04:01Z</time>
      </trkpt>
      <trkpt lat="47.67352" lon="6.20218">
        <ele>306</ele>
        <time>2022-01-11T15:04:03Z</time>
      </trkpt>
      <trkpt lat="47.67346" lon="6.20222">
        <ele>306</ele>
        <time>2022-01-11T15:04:05Z</time>
      </trkpt>
      <trkpt lat="47.67341" lon="6.20225">
        <ele>306</ele>
        <time>2022-01-11T15:04:07Z</time>
      </trkpt>
      <trkpt lat="47.67337" lon="6.20227">
        <ele>306</ele>
        <time>2022-01-11T15:04:08Z</time>
      </trkpt>
      <trkpt lat="47.67333" lon="6.2023">
        <ele>306</ele>
        <time>2022-01-11T15:04:09Z</time>
      </trkpt>
      <trkpt lat="47.67327" lon="6.20234">
        <ele>305.8</ele>
        <time>2022-01-11T15:04:11Z</time>
      </trkpt>
      <trkpt lat="47.67323" lon="6.20236">
        <ele>305.6</ele>
        <time>2022-01-11T15:04:12Z</time>
      </trkpt>
      <trkpt lat="47.67316" lon="6.20239">
        <ele>305.4</ele>
        <time>2022-01-11T15:04:14Z</time>
      </trkpt>
      <trkpt lat="47.67302" lon="6.20247">
        <ele>305</ele>
        <time>2022-01-11T15:04:15Z</time>
      </trkpt>
      <trkpt lat="47.67297" lon="6.2025">
        <ele>305</ele>
        <time>2022-01-11T15:04:20Z</time>
      </trkpt>
      <trkpt lat="47.67291" lon="6.20255">
        <ele>305</ele>
        <time>2022-01-11T15:04:22Z</time>
      </trkpt>
      <trkpt lat="47.67287" lon="6.20257">
        <ele>305</ele>
        <time>2022-01-11T15:04:24Z</time>
      </trkpt>
      <trkpt lat="47.67275" lon="6.20264">
        <ele>305</ele>
        <time>2022-01-11T15:04:27Z</time>
      </trkpt>
      <trkpt lat="47.67271" lon="6.20267">
        <ele>305</ele>
        <time>2022-01-11T15:04:29Z</time>
      </trkpt>
      <trkpt lat="47.67265" lon="6.2027">
        <ele>305</ele>
        <time>2022-01-11T15:04:30Z</time>
      </trkpt>
      <trkpt lat="47.6726" lon="6.20273">
        <ele>305</ele>
        <time>2022-01-11T15:04:32Z</time>
      </trkpt>
      <trkpt lat="47.67253" lon="6.20276">
        <ele>305</ele>
        <time>2022-01-11T15:04:34Z</time>
      </trkpt>
      <trkpt lat="47.67246" lon="6.2028">
        <ele>305</ele>
        <time>2022-01-11T15:04:36Z</time>
      </trkpt>
      <trkpt lat="47.67241" lon="6.20283">
        <ele>305</ele>
        <time>2022-01-11T15:04:38Z</time>
      </trkpt>
      <trkpt lat="47.67235" lon="6.20286">
        <ele>305</ele>
        <time>2022-01-11T15:04:40Z</time>
      </trkpt>
      <trkpt lat="47.6723" lon="6.20289">
        <ele>305</ele>
        <time>2022-01-11T15:04:42Z</time>
      </trkpt>
      <trkpt lat="47.67225" lon="6.20293">
        <ele>305</ele>
        <time>2022-01-11T15:04:44Z</time>
      </trkpt>
      <trkpt lat="47.67221" lon="6.20297">
        <ele>305</ele>
        <time>2022-01-11T15:04:45Z</time>
      </trkpt>
      <trkpt lat="47.67217" lon="6.20301">
        <ele>305</ele>
        <time>2022-01-11T15:04:47Z</time>
      </trkpt>
      <trkpt lat="47.67213" lon="6.20306">
        <ele>305</ele>
        <time>2022-01-11T15:04:49Z</time>
      </trkpt>
      <trkpt lat="47.67209" lon="6.20311">
        <ele>305</ele>
        <time>2022-01-11T15:04:51Z</time>
      </trkpt>
      <trkpt lat="47.67204" lon="6.20314">
        <ele>305</ele>
        <time>2022-01-11T15:04:53Z</time>
      </trkpt>
      <trkpt lat="47.67194" lon="6.20308">
        <ele>305</ele>
        <time>2022-01-11T15:04:56Z</time>
      </trkpt>
      <trkpt lat="47.67183" lon="6.20297">
        <ele>305.4</ele>
        <time>2022-01-11T15:05:01Z</time>
      </trkpt>
      <trkpt lat="47.67179" lon="6.20293">
        <ele>305.5</ele>
        <time>2022-01-11T15:05:04Z</time>
      </trkpt>
      <trkpt lat="47.67175" lon="6.2029">
        <ele>305.7</ele>
        <time>2022-01-11T15:05:06Z</time>
      </trkpt>
      <trkpt lat="47.6717" lon="6.20285">
        <ele>305.9</ele>
        <time>2022-01-11T15:05:09Z</time>
      </trkpt>
      <trkpt lat="47.67166" lon="6.2028">
        <ele>306</ele>
        <time>2022-01-11T15:05:11Z</time>
      </trkpt>
      <trkpt lat="47.67161" lon="6.20276">
        <ele>305.9</ele>
        <time>2022-01-11T15:05:14Z</time>
      </trkpt>
      <trkpt lat="47.67152" lon="6.20267">
        <ele>305.8</ele>
        <time>2022-01-11T15:05:19Z</time>
      </trkpt>
      <trkpt lat="47.67148" lon="6.20263">
        <ele>305.8</ele>
        <time>2022-01-11T15:05:21Z</time>
      </trkpt>
      <trkpt lat="47.67143" lon="6.20259">
        <ele>305.9</ele>
        <time>2022-01-11T15:05:23Z</time>
      </trkpt>
      <trkpt lat="47.67138" lon="6.20253">
        <ele>306</ele>
        <time>2022-01-11T15:05:26Z</time>
      </trkpt>
      <trkpt lat="47.67134" lon="6.20249">
        <ele>306</ele>
        <time>2022-01-11T15:05:28Z</time>
      </trkpt>
      <trkpt lat="47.6713" lon="6.20245">
        <ele>306</ele>
        <time>2022-01-11T15:05:30Z</time>
      </trkpt>
      <trkpt lat="47.67126" lon="6.20241">
        <ele>306</ele>
        <time>2022-01-11T15:05:32Z</time>
      </trkpt>
      <trkpt lat="47.67122" lon="6.20237">
        <ele>306</ele>
        <time>2022-01-11T15:05:34Z</time>
      </trkpt>
      <trkpt lat="47.67117" lon="6.20231">
        <ele>306</ele>
        <time>2022-01-11T15:05:36Z</time>
      </trkpt>
      <trkpt lat="47.67108" lon="6.20221">
        <ele>306</ele>
        <time>2022-01-11T15:05:37Z</time>
      </trkpt>
      <trkpt lat="47.67103" lon="6.20217">
        <ele>306</ele>
        <time>2022-01-11T15:05:43Z</time>
      </trkpt>
      <trkpt lat="47.67098" lon="6.20212">
        <ele>306</ele>
        <time>2022-01-11T15:05:46Z</time>
      </trkpt>
      <trkpt lat="47.67094" lon="6.20208">
        <ele>306</ele>
        <time>2022-01-11T15:05:48Z</time>
      </trkpt>
      <trkpt lat="47.67086" lon="6.20199">
        <ele>306</ele>
        <time>2022-01-11T15:05:52Z</time>
      </trkpt>
      <trkpt lat="47.67082" lon="6.20196">
        <ele>306</ele>
        <time>2022-01-11T15:05:54Z</time>
      </trkpt>
      <trkpt lat="47.67077" lon="6.20191">
        <ele>306</ele>
        <time>2022-01-11T15:05:56Z</time>
      </trkpt>
      <trkpt lat="47.67066" lon="6.20181">
        <ele>306</ele>
        <time>2022-01-11T15:05:58Z</time>
      </trkpt>
      <trkpt lat="47.67062" lon="6.20177">
        <ele>306</ele>
        <time>2022-01-11T15:06:03Z</time>
      </trkpt>
      <trkpt lat="47.67058" lon="6.20173">
        <ele>306</ele>
        <time>2022-01-11T15:06:05Z</time>
      </trkpt>
      <trkpt lat="47.67053" lon="6.20169">
        <ele>306.1</ele>
        <time>2022-01-11T15:06:07Z</time>
      </trkpt>
      <trkpt lat="47.67048" lon="6.20163">
        <ele>306.3</ele>
        <time>2022-01-11T15:06:10Z</time>
      </trkpt>
      <trkpt lat="47.67044" lon="6.20158">
        <ele>306.4</ele>
        <time>2022-01-11T15:06:12Z</time>
      </trkpt>
      <trkpt lat="47.6704" lon="6.20153">
        <ele>306.5</ele>
        <time>2022-01-11T15:06:14Z</time>
      </trkpt>
      <trkpt lat="47.67032" lon="6.20141">
        <ele>306.8</ele>
        <time>2022-01-11T15:06:19Z</time>
      </trkpt>
      <trkpt lat="47.67028" lon="6.20136">
        <ele>307</ele>
        <time>2022-01-11T15:06:21Z</time>
      </trkpt>
      <trkpt lat="47.67024" lon="6.2013">
        <ele>307.3</ele>
        <time>2022-01-11T15:06:24Z</time>
      </trkpt>
      <trkpt lat="47.67017" lon="6.20119">
        <ele>307.8</ele>
        <time>2022-01-11T15:06:29Z</time>
      </trkpt>
      <trkpt lat="47.67012" lon="6.20112">
        <ele>308.2</ele>
        <time>2022-01-11T15:06:31Z</time>
      </trkpt>
      <trkpt lat="47.67007" lon="6.20107">
        <ele>308.4</ele>
        <time>2022-01-11T15:06:35Z</time>
      </trkpt>
      <trkpt lat="47.67003" lon="6.20103">
        <ele>308.5</ele>
        <time>2022-01-11T15:06:38Z</time>
      </trkpt>
      <trkpt lat="47.66999" lon="6.20098">
        <ele>308.6</ele>
        <time>2022-01-11T15:06:44Z</time>
      </trkpt>
      <trkpt lat="47.66996" lon="6.20093">
        <ele>308.6</ele>
        <time>2022-01-11T15:06:47Z</time>
      </trkpt>
      <trkpt lat="47.66992" lon="6.20087">
        <ele>308.7</ele>
        <time>2022-01-11T15:06:50Z</time>
      </trkpt>
      <trkpt lat="47.66988" lon="6.20082">
        <ele>308.8</ele>
        <time>2022-01-11T15:06:51Z</time>
      </trkpt>
      <trkpt lat="47.66984" lon="6.20078">
        <ele>308.9</ele>
        <time>2022-01-11T15:06:54Z</time>
      </trkpt>
      <trkpt lat="47.6698" lon="6.20073">
        <ele>309.1</ele>
        <time>2022-01-11T15:07:00Z</time>
      </trkpt>
      <trkpt lat="47.66975" lon="6.2007">
        <ele>309.3</ele>
        <time>2022-01-11T15:07:03Z</time>
      </trkpt>
      <trkpt lat="47.6697" lon="6.20068">
        <ele>309.5</ele>
        <time>2022-01-11T15:07:07Z</time>
      </trkpt>
      <trkpt lat="47.66966" lon="6.20064">
        <ele>309.6</ele>
        <time>2022-01-11T15:07:11Z</time>
      </trkpt>
      <trkpt lat="47.66962" lon="6.20059">
        <ele>309.6</ele>
        <time>2022-01-11T15:07:14Z</time>
      </trkpt>
      <trkpt lat="47.66958" lon="6.20052">
        <ele>309.3</ele>
        <time>2022-01-11T15:07:18Z</time>
      </trkpt>
      <trkpt lat="47.66955" lon="6.20047">
        <ele>309.2</ele>
        <time>2022-01-11T15:07:21Z</time>
      </trkpt>
      <trkpt lat="47.66951" lon="6.20043">
        <ele>309.2</ele>
        <time>2022-01-11T15:07:24Z</time>
      </trkpt>
      <trkpt lat="47.66946" lon="6.20041">
        <ele>309.4</ele>
        <time>2022-01-11T15:07:27Z</time>
      </trkpt>
      <trkpt lat="47.66937" lon="6.20032">
        <ele>309.7</ele>
        <time>2022-01-11T15:07:32Z</time>
      </trkpt>
      <trkpt lat="47.66933" lon="6.20028">
        <ele>309.8</ele>
        <time>2022-01-11T15:07:34Z</time>
      </trkpt>
      <trkpt lat="47.66928" lon="6.20023">
        <ele>309.8</ele>
        <time>2022-01-11T15:07:37Z</time>
      </trkpt>
      <trkpt lat="47.66925" lon="6.2002">
        <ele>309.9</ele>
        <time>2022-01-11T15:07:40Z</time>
      </trkpt>
      <trkpt lat="47.66921" lon="6.20016">
        <ele>309.9</ele>
        <time>2022-01-11T15:07:43Z</time>
      </trkpt>
      <trkpt lat="47.66916" lon="6.20012">
        <ele>310</ele>
        <time>2022-01-11T15:07:46Z</time>
      </trkpt>
      <trkpt lat="47.66912" lon="6.20008">
        <ele>310.1</ele>
        <time>2022-01-11T15:07:49Z</time>
      </trkpt>
      <trkpt lat="47.66908" lon="6.20005">
        <ele>310.2</ele>
        <time>2022-01-11T15:07:51Z</time>
      </trkpt>
      <trkpt lat="47.66903" lon="6.20001">
        <ele>310.5</ele>
        <time>2022-01-11T15:07:54Z</time>
      </trkpt>
      <trkpt lat="47.66899" lon="6.19997">
        <ele>310.7</ele>
        <time>2022-01-11T15:07:57Z</time>
      </trkpt>
      <trkpt lat="47.66895" lon="6.19993">
        <ele>310.9</ele>
        <time>2022-01-11T15:08:00Z</time>
      </trkpt>
      <trkpt lat="47.6689" lon="6.19989">
        <ele>311.1</ele>
        <time>2022-01-11T15:08:02Z</time>
      </trkpt>
      <trkpt lat="47.66886" lon="6.19985">
        <ele>311.2</ele>
        <time>2022-01-11T15:08:05Z</time>
      </trkpt>
      <trkpt lat="47.66877" lon="6.19976">
        <ele>311.6</ele>
        <time>2022-01-11T15:08:10Z</time>
      </trkpt>
      <trkpt lat="47.66868" lon="6.19968">
        <ele>311.9</ele>
        <time>2022-01-11T15:08:13Z</time>
      </trkpt>
      <trkpt lat="47.66863" lon="6.19963">
        <ele>312.1</ele>
        <time>2022-01-11T15:08:17Z</time>
      </trkpt>
      <trkpt lat="47.66857" lon="6.19959">
        <ele>312.2</ele>
        <time>2022-01-11T15:08:21Z</time>
      </trkpt>
      <trkpt lat="47.66853" lon="6.19955">
        <ele>312.2</ele>
        <time>2022-01-11T15:08:27Z</time>
      </trkpt>
      <trkpt lat="47.66849" lon="6.19952">
        <ele>312.3</ele>
        <time>2022-01-11T15:08:28Z</time>
      </trkpt>
      <trkpt lat="47.66845" lon="6.1995">
        <ele>312.5</ele>
        <time>2022-01-11T15:08:31Z</time>
      </trkpt>
      <trkpt lat="47.66839" lon="6.19948">
        <ele>312.7</ele>
        <time>2022-01-11T15:08:36Z</time>
      </trkpt>
      <trkpt lat="47.66835" lon="6.19945">
        <ele>312.9</ele>
        <time>2022-01-11T15:08:39Z</time>
      </trkpt>
      <trkpt lat="47.66824" lon="6.1994">
        <ele>313.2</ele>
        <time>2022-01-11T15:08:44Z</time>
      </trkpt>
      <trkpt lat="47.66814" lon="6.19935">
        <ele>313.3</ele>
        <time>2022-01-11T15:08:49Z</time>
      </trkpt>
      <trkpt lat="47.6681" lon="6.19931">
        <ele>313.4</ele>
        <time>2022-01-11T15:08:52Z</time>
      </trkpt>
      <trkpt lat="47.66805" lon="6.19928">
        <ele>313.4</ele>
        <time>2022-01-11T15:08:55Z</time>
      </trkpt>
      <trkpt lat="47.668" lon="6.19924">
        <ele>313.6</ele>
        <time>2022-01-11T15:08:58Z</time>
      </trkpt>
      <trkpt lat="47.66791" lon="6.19914">
        <ele>314</ele>
        <time>2022-01-11T15:09:01Z</time>
      </trkpt>
      <trkpt lat="47.66786" lon="6.19911">
        <ele>314.3</ele>
        <time>2022-01-11T15:09:06Z</time>
      </trkpt>
      <trkpt lat="47.66781" lon="6.19907">
        <ele>314.5</ele>
        <time>2022-01-11T15:09:08Z</time>
      </trkpt>
      <trkpt lat="47.66776" lon="6.19903">
        <ele>314.5</ele>
        <time>2022-01-11T15:09:11Z</time>
      </trkpt>
      <trkpt lat="47.66771" lon="6.19898">
        <ele>314.4</ele>
        <time>2022-01-11T15:09:13Z</time>
      </trkpt>
      <trkpt lat="47.66767" lon="6.19894">
        <ele>314.4</ele>
        <time>2022-01-11T15:09:16Z</time>
      </trkpt>
      <trkpt lat="47.66762" lon="6.19889">
        <ele>314.6</ele>
        <time>2022-01-11T15:09:19Z</time>
      </trkpt>
      <trkpt lat="47.66758" lon="6.19884">
        <ele>314.7</ele>
        <time>2022-01-11T15:09:21Z</time>
      </trkpt>
      <trkpt lat="47.66754" lon="6.1988">
        <ele>314.8</ele>
        <time>2022-01-11T15:09:23Z</time>
      </trkpt>
      <trkpt lat="47.6675" lon="6.19876">
        <ele>315</ele>
        <time>2022-01-11T15:09:26Z</time>
      </trkpt>
      <trkpt lat="47.66745" lon="6.1987">
        <ele>315.3</ele>
        <time>2022-01-11T15:09:27Z</time>
      </trkpt>
      <trkpt lat="47.66742" lon="6.19864">
        <ele>315.5</ele>
        <time>2022-01-11T15:09:32Z</time>
      </trkpt>
      <trkpt lat="47.66738" lon="6.19859">
        <ele>315.8</ele>
        <time>2022-01-11T15:09:35Z</time>
      </trkpt>
      <trkpt lat="47.66735" lon="6.19854">
        <ele>316</ele>
        <time>2022-01-11T15:09:36Z</time>
      </trkpt>
      <trkpt lat="47.6673" lon="6.19849">
        <ele>316.3</ele>
        <time>2022-01-11T15:09:42Z</time>
      </trkpt>
      <trkpt lat="47.66726" lon="6.19845">
        <ele>316.7</ele>
        <time>2022-01-11T15:09:45Z</time>
      </trkpt>
      <trkpt lat="47.66722" lon="6.1984">
        <ele>317</ele>
        <time>2022-01-11T15:09:48Z</time>
      </trkpt>
      <trkpt lat="47.66717" lon="6.19834">
        <ele>317.2</ele>
        <time>2022-01-11T15:09:49Z</time>
      </trkpt>
      <trkpt lat="47.66714" lon="6.1983">
        <ele>317.3</ele>
        <time>2022-01-11T15:09:54Z</time>
      </trkpt>
      <trkpt lat="47.66709" lon="6.19824">
        <ele>317.4</ele>
        <time>2022-01-11T15:09:57Z</time>
      </trkpt>
      <trkpt lat="47.66705" lon="6.19819">
        <ele>317.7</ele>
        <time>2022-01-11T15:09:58Z</time>
      </trkpt>
      <trkpt lat="47.66702" lon="6.19813">
        <ele>318</ele>
        <time>2022-01-11T15:10:04Z</time>
      </trkpt>
      <trkpt lat="47.667" lon="6.19806">
        <ele>318.4</ele>
        <time>2022-01-11T15:10:07Z</time>
      </trkpt>
      <trkpt lat="47.66696" lon="6.19801">
        <ele>318.7</ele>
        <time>2022-01-11T15:10:08Z</time>
      </trkpt>
      <trkpt lat="47.66693" lon="6.19796">
        <ele>318.8</ele>
        <time>2022-01-11T15:10:11Z</time>
      </trkpt>
      <trkpt lat="47.66688" lon="6.1979">
        <ele>318.9</ele>
        <time>2022-01-11T15:10:16Z</time>
      </trkpt>
      <trkpt lat="47.66684" lon="6.19784">
        <ele>319</ele>
        <time>2022-01-11T15:10:17Z</time>
      </trkpt>
      <trkpt lat="47.6668" lon="6.19778">
        <ele>319</ele>
        <time>2022-01-11T15:10:20Z</time>
      </trkpt>
      <trkpt lat="47.66677" lon="6.19773">
        <ele>319.2</ele>
        <time>2022-01-11T15:10:25Z</time>
      </trkpt>
      <trkpt lat="47.66673" lon="6.19768">
        <ele>319.5</ele>
        <time>2022-01-11T15:10:28Z</time>
      </trkpt>
      <trkpt lat="47.66669" lon="6.19763">
        <ele>319.8</ele>
        <time>2022-01-11T15:10:31Z</time>
      </trkpt>
      <trkpt lat="47.66665" lon="6.19757">
        <ele>320.1</ele>
        <time>2022-01-11T15:10:34Z</time>
      </trkpt>
      <trkpt lat="47.66662" lon="6.19752">
        <ele>320.5</ele>
        <time>2022-01-11T15:10:38Z</time>
      </trkpt>
      <trkpt lat="47.66659" lon="6.19746">
        <ele>320.9</ele>
        <time>2022-01-11T15:10:39Z</time>
      </trkpt>
      <trkpt lat="47.66655" lon="6.19741">
        <ele>321.2</ele>
        <time>2022-01-11T15:10:45Z</time>
      </trkpt>
      <trkpt lat="47.66652" lon="6.19736">
        <ele>321.6</ele>
        <time>2022-01-11T15:10:49Z</time>
      </trkpt>
      <trkpt lat="47.66648" lon="6.1973">
        <ele>322</ele>
        <time>2022-01-11T15:10:51Z</time>
      </trkpt>
      <trkpt lat="47.66645" lon="6.19725">
        <ele>322.3</ele>
        <time>2022-01-11T15:10:57Z</time>
      </trkpt>
      <trkpt lat="47.66642" lon="6.19719">
        <ele>322.6</ele>
        <time>2022-01-11T15:11:01Z</time>
      </trkpt>
      <trkpt lat="47.66638" lon="6.19713">
        <ele>322.8</ele>
        <time>2022-01-11T15:11:03Z</time>
      </trkpt>
      <trkpt lat="47.66635" lon="6.19709">
        <ele>323</ele>
        <time>2022-01-11T15:11:09Z</time>
      </trkpt>
      <trkpt lat="47.66632" lon="6.19703">
        <ele>323.3</ele>
        <time>2022-01-11T15:11:10Z</time>
      </trkpt>
      <trkpt lat="47.66628" lon="6.19699">
        <ele>323.6</ele>
        <time>2022-01-11T15:11:13Z</time>
      </trkpt>
      <trkpt lat="47.66624" lon="6.19694">
        <ele>324.1</ele>
        <time>2022-01-11T15:11:17Z</time>
      </trkpt>
      <trkpt lat="47.6662" lon="6.19688">
        <ele>324.5</ele>
        <time>2022-01-11T15:11:21Z</time>
      </trkpt>
      <trkpt lat="47.66616" lon="6.19683">
        <ele>324.9</ele>
        <time>2022-01-11T15:11:27Z</time>
      </trkpt>
      <trkpt lat="47.66613" lon="6.19679">
        <ele>325.2</ele>
        <time>2022-01-11T15:11:30Z</time>
      </trkpt>
      <trkpt lat="47.66609" lon="6.19674">
        <ele>325.5</ele>
        <time>2022-01-11T15:11:37Z</time>
      </trkpt>
      <trkpt lat="47.66606" lon="6.19668">
        <ele>325.8</ele>
        <time>2022-01-11T15:11:39Z</time>
      </trkpt>
      <trkpt lat="47.66602" lon="6.19665">
        <ele>326.3</ele>
        <time>2022-01-11T15:11:47Z</time>
      </trkpt>
      <trkpt lat="47.66598" lon="6.19663">
        <ele>326.9</ele>
        <time>2022-01-11T15:11:52Z</time>
      </trkpt>
      <trkpt lat="47.66593" lon="6.19661">
        <ele>327.5</ele>
        <time>2022-01-11T15:11:57Z</time>
      </trkpt>
      <trkpt lat="47.66588" lon="6.19658">
        <ele>328.2</ele>
        <time>2022-01-11T15:12:01Z</time>
      </trkpt>
      <trkpt lat="47.66584" lon="6.19655">
        <ele>329</ele>
        <time>2022-01-11T15:12:04Z</time>
      </trkpt>
      <trkpt lat="47.66579" lon="6.1965">
        <ele>329.4</ele>
        <time>2022-01-11T15:12:07Z</time>
      </trkpt>
      <trkpt lat="47.6657" lon="6.19642">
        <ele>330.4</ele>
        <time>2022-01-11T15:12:12Z</time>
      </trkpt>
      <trkpt lat="47.66566" lon="6.19638">
        <ele>330.9</ele>
        <time>2022-01-11T15:12:15Z</time>
      </trkpt>
      <trkpt lat="47.66561" lon="6.19636">
        <ele>331.5</ele>
        <time>2022-01-11T15:12:18Z</time>
      </trkpt>
      <trkpt lat="47.66555" lon="6.19632">
        <ele>332</ele>
        <time>2022-01-11T15:12:21Z</time>
      </trkpt>
      <trkpt lat="47.6655" lon="6.19631">
        <ele>332.3</ele>
        <time>2022-01-11T15:12:25Z</time>
      </trkpt>
      <trkpt lat="47.66545" lon="6.19628">
        <ele>332.5</ele>
        <time>2022-01-11T15:12:26Z</time>
      </trkpt>
      <trkpt lat="47.66541" lon="6.19626">
        <ele>332.8</ele>
        <time>2022-01-11T15:12:31Z</time>
      </trkpt>
      <trkpt lat="47.66537" lon="6.19622">
        <ele>333.1</ele>
        <time>2022-01-11T15:12:36Z</time>
      </trkpt>
      <trkpt lat="47.66532" lon="6.19617">
        <ele>333.5</ele>
        <time>2022-01-11T15:12:41Z</time>
      </trkpt>
      <trkpt lat="47.66529" lon="6.19613">
        <ele>333.8</ele>
        <time>2022-01-11T15:12:45Z</time>
      </trkpt>
      <trkpt lat="47.66525" lon="6.1961">
        <ele>334.1</ele>
        <time>2022-01-11T15:12:46Z</time>
      </trkpt>
      <trkpt lat="47.66521" lon="6.19606">
        <ele>334.4</ele>
        <time>2022-01-11T15:12:51Z</time>
      </trkpt>
      <trkpt lat="47.66517" lon="6.19602">
        <ele>334.6</ele>
        <time>2022-01-11T15:12:56Z</time>
      </trkpt>
      <trkpt lat="47.66514" lon="6.19597">
        <ele>334.8</ele>
        <time>2022-01-11T15:12:59Z</time>
      </trkpt>
      <trkpt lat="47.6651" lon="6.19593">
        <ele>334.9</ele>
        <time>2022-01-11T15:13:00Z</time>
      </trkpt>
      <trkpt lat="47.66506" lon="6.19588">
        <ele>335</ele>
        <time>2022-01-11T15:13:06Z</time>
      </trkpt>
      <trkpt lat="47.66502" lon="6.19585">
        <ele>335</ele>
        <time>2022-01-11T15:13:09Z</time>
      </trkpt>
      <trkpt lat="47.66497" lon="6.19581">
        <ele>335.3</ele>
        <time>2022-01-11T15:13:10Z</time>
      </trkpt>
      <trkpt lat="47.66493" lon="6.19578">
        <ele>335.7</ele>
        <time>2022-01-11T15:13:15Z</time>
      </trkpt>
      <trkpt lat="47.66488" lon="6.19575">
        <ele>336</ele>
        <time>2022-01-11T15:13:18Z</time>
      </trkpt>
      <trkpt lat="47.66483" lon="6.19571">
        <ele>336.4</ele>
        <time>2022-01-11T15:13:21Z</time>
      </trkpt>
      <trkpt lat="47.66479" lon="6.19567">
        <ele>336.7</ele>
        <time>2022-01-11T15:13:24Z</time>
      </trkpt>
      <trkpt lat="47.66475" lon="6.19564">
        <ele>336.9</ele>
        <time>2022-01-11T15:13:27Z</time>
      </trkpt>
      <trkpt lat="47.6647" lon="6.19561">
        <ele>337.1</ele>
        <time>2022-01-11T15:13:28Z</time>
      </trkpt>
      <trkpt lat="47.66465" lon="6.19558">
        <ele>337.3</ele>
        <time>2022-01-11T15:13:33Z</time>
      </trkpt>
      <trkpt lat="47.6646" lon="6.19556">
        <ele>337.4</ele>
        <time>2022-01-11T15:13:36Z</time>
      </trkpt>
      <trkpt lat="47.66455" lon="6.19554">
        <ele>337.6</ele>
        <time>2022-01-11T15:13:39Z</time>
      </trkpt>
      <trkpt lat="47.6645" lon="6.19553">
        <ele>337.7</ele>
        <time>2022-01-11T15:13:42Z</time>
      </trkpt>
      <trkpt lat="47.66444" lon="6.19551">
        <ele>337.9</ele>
        <time>2022-01-11T15:13:43Z</time>
      </trkpt>
      <trkpt lat="47.66439" lon="6.19549">
        <ele>338</ele>
        <time>2022-01-11T15:13:48Z</time>
      </trkpt>
      <trkpt lat="47.66434" lon="6.19548">
        <ele>338.1</ele>
        <time>2022-01-11T15:13:49Z</time>
      </trkpt>
      <trkpt lat="47.66429" lon="6.19546">
        <ele>338.2</ele>
        <time>2022-01-11T15:13:54Z</time>
      </trkpt>
      <trkpt lat="47.66424" lon="6.19546">
        <ele>338.4</ele>
        <time>2022-01-11T15:13:57Z</time>
      </trkpt>
      <trkpt lat="47.66419" lon="6.19546">
        <ele>338.6</ele>
        <time>2022-01-11T15:14:00Z</time>
      </trkpt>
      <trkpt lat="47.66415" lon="6.19545">
        <ele>338.7</ele>
        <time>2022-01-11T15:14:04Z</time>
      </trkpt>
      <trkpt lat="47.66409" lon="6.19543">
        <ele>338.9</ele>
        <time>2022-01-11T15:14:05Z</time>
      </trkpt>
      <trkpt lat="47.66404" lon="6.1954">
        <ele>339.2</ele>
        <time>2022-01-11T15:14:09Z</time>
      </trkpt>
      <trkpt lat="47.66399" lon="6.19537">
        <ele>339.4</ele>
        <time>2022-01-11T15:14:15Z</time>
      </trkpt>
      <trkpt lat="47.66394" lon="6.19536">
        <ele>339.7</ele>
        <time>2022-01-11T15:14:17Z</time>
      </trkpt>
      <trkpt lat="47.66388" lon="6.19536">
        <ele>340</ele>
        <time>2022-01-11T15:14:21Z</time>
      </trkpt>
      <trkpt lat="47.66383" lon="6.19535">
        <ele>340.2</ele>
        <time>2022-01-11T15:14:24Z</time>
      </trkpt>
      <trkpt lat="47.66377" lon="6.19533">
        <ele>340.4</ele>
        <time>2022-01-11T15:14:27Z</time>
      </trkpt>
      <trkpt lat="47.66366" lon="6.1953">
        <ele>340.8</ele>
        <time>2022-01-11T15:14:30Z</time>
      </trkpt>
      <trkpt lat="47.66361" lon="6.1953">
        <ele>341</ele>
        <time>2022-01-11T15:14:35Z</time>
      </trkpt>
      <trkpt lat="47.66356" lon="6.19529">
        <ele>341.2</ele>
        <time>2022-01-11T15:14:38Z</time>
      </trkpt>
      <trkpt lat="47.66351" lon="6.19528">
        <ele>341.4</ele>
        <time>2022-01-11T15:14:41Z</time>
      </trkpt>
      <trkpt lat="47.6634" lon="6.19526">
        <ele>341.6</ele>
        <time>2022-01-11T15:14:43Z</time>
      </trkpt>
      <trkpt lat="47.66334" lon="6.19524">
        <ele>341.7</ele>
        <time>2022-01-11T15:14:49Z</time>
      </trkpt>
      <trkpt lat="47.66329" lon="6.19523">
        <ele>341.6</ele>
        <time>2022-01-11T15:14:49Z</time>
      </trkpt>
      <trkpt lat="47.66323" lon="6.19521">
        <ele>341.5</ele>
        <time>2022-01-11T15:14:52Z</time>
      </trkpt>
      <trkpt lat="47.66318" lon="6.1952">
        <ele>341.5</ele>
        <time>2022-01-11T15:14:58Z</time>
      </trkpt>
      <trkpt lat="47.66313" lon="6.19518">
        <ele>341.3</ele>
        <time>2022-01-11T15:15:01Z</time>
      </trkpt>
      <trkpt lat="47.66308" lon="6.19516">
        <ele>341.2</ele>
        <time>2022-01-11T15:15:04Z</time>
      </trkpt>
      <trkpt lat="47.66303" lon="6.19515">
        <ele>341.1</ele>
        <time>2022-01-11T15:15:06Z</time>
      </trkpt>
      <trkpt lat="47.66298" lon="6.19514">
        <ele>340.9</ele>
        <time>2022-01-11T15:15:09Z</time>
      </trkpt>
      <trkpt lat="47.66288" lon="6.19512">
        <ele>340.5</ele>
        <time>2022-01-11T15:15:13Z</time>
      </trkpt>
      <trkpt lat="47.66281" lon="6.19511">
        <ele>340.2</ele>
        <time>2022-01-11T15:15:13Z</time>
      </trkpt>
      <trkpt lat="47.66276" lon="6.1951">
        <ele>340.1</ele>
        <time>2022-01-11T15:15:18Z</time>
      </trkpt>
      <trkpt lat="47.66261" lon="6.19506">
        <ele>339.7</ele>
        <time>2022-01-11T15:15:19Z</time>
      </trkpt>
      <trkpt lat="47.66256" lon="6.19507">
        <ele>339.8</ele>
        <time>2022-01-11T15:15:24Z</time>
      </trkpt>
      <trkpt lat="47.66249" lon="6.19504">
        <ele>339.5</ele>
        <time>2022-01-11T15:15:26Z</time>
      </trkpt>
      <trkpt lat="47.66245" lon="6.19502">
        <ele>339.3</ele>
        <time>2022-01-11T15:15:27Z</time>
      </trkpt>
      <trkpt lat="47.66237" lon="6.19499">
        <ele>338.9</ele>
        <time>2022-01-11T15:15:29Z</time>
      </trkpt>
      <trkpt lat="47.66231" lon="6.19498">
        <ele>338.8</ele>
        <time>2022-01-11T15:15:31Z</time>
      </trkpt>
      <trkpt lat="47.66225" lon="6.19497">
        <ele>338.7</ele>
        <time>2022-01-11T15:15:32Z</time>
      </trkpt>
      <trkpt lat="47.6622" lon="6.19497">
        <ele>338.7</ele>
        <time>2022-01-11T15:15:33Z</time>
      </trkpt>
      <trkpt lat="47.6621" lon="6.19496">
        <ele>338.6</ele>
        <time>2022-01-11T15:15:35Z</time>
      </trkpt>
      <trkpt lat="47.66205" lon="6.19496">
        <ele>338.5</ele>
        <time>2022-01-11T15:15:37Z</time>
      </trkpt>
      <trkpt lat="47.662" lon="6.19496">
        <ele>338.6</ele>
        <time>2022-01-11T15:15:38Z</time>
      </trkpt>
      <trkpt lat="47.66195" lon="6.19498">
        <ele>338.8</ele>
        <time>2022-01-11T15:15:39Z</time>
      </trkpt>
      <trkpt lat="47.66189" lon="6.19498">
        <ele>338.6</ele>
        <time>2022-01-11T15:15:40Z</time>
      </trkpt>
      <trkpt lat="47.66184" lon="6.19499">
        <ele>338.6</ele>
        <time>2022-01-11T15:15:41Z</time>
      </trkpt>
      <trkpt lat="47.66177" lon="6.195">
        <ele>338.4</ele>
        <time>2022-01-11T15:15:43Z</time>
      </trkpt>
      <trkpt lat="47.66172" lon="6.19501">
        <ele>338.2</ele>
        <time>2022-01-11T15:15:44Z</time>
      </trkpt>
      <trkpt lat="47.66165" lon="6.195">
        <ele>337.9</ele>
        <time>2022-01-11T15:15:46Z</time>
      </trkpt>
      <trkpt lat="47.66159" lon="6.19499">
        <ele>337.7</ele>
        <time>2022-01-11T15:15:47Z</time>
      </trkpt>
      <trkpt lat="47.66148" lon="6.19502">
        <ele>337.4</ele>
        <time>2022-01-11T15:15:50Z</time>
      </trkpt>
      <trkpt lat="47.66143" lon="6.19504">
        <ele>337.3</ele>
        <time>2022-01-11T15:15:51Z</time>
      </trkpt>
      <trkpt lat="47.66138" lon="6.19506">
        <ele>337.2</ele>
        <time>2022-01-11T15:15:52Z</time>
      </trkpt>
      <trkpt lat="47.66128" lon="6.19514">
        <ele>336.7</ele>
        <time>2022-01-11T15:15:55Z</time>
      </trkpt>
      <trkpt lat="47.66124" lon="6.19522">
        <ele>336.7</ele>
        <time>2022-01-11T15:15:57Z</time>
      </trkpt>
      <trkpt lat="47.66121" lon="6.19537">
        <ele>336.7</ele>
        <time>2022-01-11T15:16:00Z</time>
      </trkpt>
      <trkpt lat="47.66119" lon="6.19545">
        <ele>336.6</ele>
        <time>2022-01-11T15:16:01Z</time>
      </trkpt>
      <trkpt lat="47.66114" lon="6.19561">
        <ele>336.2</ele>
        <time>2022-01-11T15:16:04Z</time>
      </trkpt>
      <trkpt lat="47.66111" lon="6.19568">
        <ele>336</ele>
        <time>2022-01-11T15:16:06Z</time>
      </trkpt>
      <trkpt lat="47.66104" lon="6.19581">
        <ele>335.3</ele>
        <time>2022-01-11T15:16:09Z</time>
      </trkpt>
      <trkpt lat="47.661" lon="6.19585">
        <ele>334.9</ele>
        <time>2022-01-11T15:16:11Z</time>
      </trkpt>
      <trkpt lat="47.66096" lon="6.19589">
        <ele>334.5</ele>
        <time>2022-01-11T15:16:12Z</time>
      </trkpt>
      <trkpt lat="47.66092" lon="6.19592">
        <ele>334.1</ele>
        <time>2022-01-11T15:16:13Z</time>
      </trkpt>
      <trkpt lat="47.66086" lon="6.19595">
        <ele>333.7</ele>
        <time>2022-01-11T15:16:14Z</time>
      </trkpt>
      <trkpt lat="47.66079" lon="6.19599">
        <ele>333</ele>
        <time>2022-01-11T15:16:16Z</time>
      </trkpt>
      <trkpt lat="47.66073" lon="6.19603">
        <ele>332.4</ele>
        <time>2022-01-11T15:16:17Z</time>
      </trkpt>
      <trkpt lat="47.66067" lon="6.19606">
        <ele>331.6</ele>
        <time>2022-01-11T15:16:18Z</time>
      </trkpt>
      <trkpt lat="47.66052" lon="6.19615">
        <ele>329.9</ele>
        <time>2022-01-11T15:16:18Z</time>
      </trkpt>
      <trkpt lat="47.66048" lon="6.19619">
        <ele>329.7</ele>
        <time>2022-01-11T15:16:19Z</time>
      </trkpt>
      <trkpt lat="47.66043" lon="6.19622">
        <ele>329.3</ele>
        <time>2022-01-11T15:16:24Z</time>
      </trkpt>
      <trkpt lat="47.66028" lon="6.1963">
        <ele>328</ele>
        <time>2022-01-11T15:16:27Z</time>
      </trkpt>
      <trkpt lat="47.66023" lon="6.19632">
        <ele>327.3</ele>
        <time>2022-01-11T15:16:28Z</time>
      </trkpt>
      <trkpt lat="47.66012" lon="6.19635">
        <ele>325.7</ele>
        <time>2022-01-11T15:16:31Z</time>
      </trkpt>
      <trkpt lat="47.66007" lon="6.19636">
        <ele>325</ele>
        <time>2022-01-11T15:16:32Z</time>
      </trkpt>
      <trkpt lat="47.66001" lon="6.19637">
        <ele>324.1</ele>
        <time>2022-01-11T15:16:34Z</time>
      </trkpt>
      <trkpt lat="47.65988" lon="6.19636">
        <ele>322.1</ele>
        <time>2022-01-11T15:16:34Z</time>
      </trkpt>
      <trkpt lat="47.65981" lon="6.19637">
        <ele>321.2</ele>
        <time>2022-01-11T15:16:39Z</time>
      </trkpt>
      <trkpt lat="47.65974" lon="6.19639">
        <ele>320.3</ele>
        <time>2022-01-11T15:16:41Z</time>
      </trkpt>
      <trkpt lat="47.65965" lon="6.19645">
        <ele>319.6</ele>
        <time>2022-01-11T15:16:44Z</time>
      </trkpt>
      <trkpt lat="47.65958" lon="6.19662">
        <ele>319.8</ele>
        <time>2022-01-11T15:16:48Z</time>
      </trkpt>
      <trkpt lat="47.65957" lon="6.19669">
        <ele>319.8</ele>
        <time>2022-01-11T15:16:49Z</time>
      </trkpt>
      <trkpt lat="47.65956" lon="6.19676">
        <ele>319.5</ele>
        <time>2022-01-11T15:16:50Z</time>
      </trkpt>
      <trkpt lat="47.65954" lon="6.19683">
        <ele>319.3</ele>
        <time>2022-01-11T15:16:52Z</time>
      </trkpt>
      <trkpt lat="47.65951" lon="6.19693">
        <ele>318.5</ele>
        <time>2022-01-11T15:16:54Z</time>
      </trkpt>
      <trkpt lat="47.65949" lon="6.19702">
        <ele>318</ele>
        <time>2022-01-11T15:16:56Z</time>
      </trkpt>
      <trkpt lat="47.65945" lon="6.19709">
        <ele>317.2</ele>
        <time>2022-01-11T15:16:58Z</time>
      </trkpt>
      <trkpt lat="47.65935" lon="6.19717">
        <ele>316.3</ele>
        <time>2022-01-11T15:17:02Z</time>
      </trkpt>
      <trkpt lat="47.65929" lon="6.1972">
        <ele>315.9</ele>
        <time>2022-01-11T15:17:05Z</time>
      </trkpt>
      <trkpt lat="47.65924" lon="6.19722">
        <ele>315.5</ele>
        <time>2022-01-11T15:17:08Z</time>
      </trkpt>
      <trkpt lat="47.65915" lon="6.19727">
        <ele>314.8</ele>
        <time>2022-01-11T15:17:09Z</time>
      </trkpt>
      <trkpt lat="47.65909" lon="6.19729">
        <ele>314.2</ele>
        <time>2022-01-11T15:17:14Z</time>
      </trkpt>
      <trkpt lat="47.65897" lon="6.19738">
        <ele>312.9</ele>
        <time>2022-01-11T15:17:18Z</time>
      </trkpt>
      <trkpt lat="47.65892" lon="6.19741">
        <ele>312.3</ele>
        <time>2022-01-11T15:17:20Z</time>
      </trkpt>
      <trkpt lat="47.65888" lon="6.19743">
        <ele>311.9</ele>
        <time>2022-01-11T15:17:21Z</time>
      </trkpt>
      <trkpt lat="47.65883" lon="6.19747">
        <ele>311.3</ele>
        <time>2022-01-11T15:17:23Z</time>
      </trkpt>
      <trkpt lat="47.65877" lon="6.19752">
        <ele>310.6</ele>
        <time>2022-01-11T15:17:25Z</time>
      </trkpt>
      <trkpt lat="47.65865" lon="6.19767">
        <ele>309.3</ele>
        <time>2022-01-11T15:17:29Z</time>
      </trkpt>
      <trkpt lat="47.65857" lon="6.19779">
        <ele>308.5</ele>
        <time>2022-01-11T15:17:32Z</time>
      </trkpt>
      <trkpt lat="47.65853" lon="6.19785">
        <ele>307.9</ele>
        <time>2022-01-11T15:17:33Z</time>
      </trkpt>
      <trkpt lat="47.6585" lon="6.19792">
        <ele>307.2</ele>
        <time>2022-01-11T15:17:35Z</time>
      </trkpt>
      <trkpt lat="47.65846" lon="6.19799">
        <ele>306.6</ele>
        <time>2022-01-11T15:17:36Z</time>
      </trkpt>
      <trkpt lat="47.65843" lon="6.19805">
        <ele>306</ele>
        <time>2022-01-11T15:17:37Z</time>
      </trkpt>
      <trkpt lat="47.6584" lon="6.19811">
        <ele>305.6</ele>
        <time>2022-01-11T15:17:38Z</time>
      </trkpt>
      <trkpt lat="47.65836" lon="6.1982">
        <ele>305.2</ele>
        <time>2022-01-11T15:17:40Z</time>
      </trkpt>
      <trkpt lat="47.65833" lon="6.19827">
        <ele>304.9</ele>
        <time>2022-01-11T15:17:41Z</time>
      </trkpt>
      <trkpt lat="47.65825" lon="6.19842">
        <ele>303.8</ele>
        <time>2022-01-11T15:17:44Z</time>
      </trkpt>
      <trkpt lat="47.65819" lon="6.19851">
        <ele>302.8</ele>
        <time>2022-01-11T15:17:46Z</time>
      </trkpt>
      <trkpt lat="47.65814" lon="6.19857">
        <ele>302.1</ele>
        <time>2022-01-11T15:17:47Z</time>
      </trkpt>
      <trkpt lat="47.65805" lon="6.19867">
        <ele>300.7</ele>
        <time>2022-01-11T15:17:50Z</time>
      </trkpt>
      <trkpt lat="47.65801" lon="6.19872">
        <ele>300.3</ele>
        <time>2022-01-11T15:17:51Z</time>
      </trkpt>
      <trkpt lat="47.6579" lon="6.19883">
        <ele>299.1</ele>
        <time>2022-01-11T15:17:54Z</time>
      </trkpt>
      <trkpt lat="47.65786" lon="6.19888">
        <ele>298.6</ele>
        <time>2022-01-11T15:17:55Z</time>
      </trkpt>
      <trkpt lat="47.65778" lon="6.19901">
        <ele>297.6</ele>
        <time>2022-01-11T15:17:58Z</time>
      </trkpt>
      <trkpt lat="47.65769" lon="6.19917">
        <ele>296.1</ele>
        <time>2022-01-11T15:17:58Z</time>
      </trkpt>
      <trkpt lat="47.65766" lon="6.19925">
        <ele>295.5</ele>
        <time>2022-01-11T15:18:03Z</time>
      </trkpt>
      <trkpt lat="47.65758" lon="6.19937">
        <ele>294.6</ele>
        <time>2022-01-11T15:18:06Z</time>
      </trkpt>
      <trkpt lat="47.65753" lon="6.19947">
        <ele>294.1</ele>
        <time>2022-01-11T15:18:08Z</time>
      </trkpt>
      <trkpt lat="47.65746" lon="6.19964">
        <ele>292.2</ele>
        <time>2022-01-11T15:18:12Z</time>
      </trkpt>
      <trkpt lat="47.65743" lon="6.19972">
        <ele>291.2</ele>
        <time>2022-01-11T15:18:14Z</time>
      </trkpt>
      <trkpt lat="47.65739" lon="6.19979">
        <ele>290.6</ele>
        <time>2022-01-11T15:18:16Z</time>
      </trkpt>
      <trkpt lat="47.65736" lon="6.19986">
        <ele>290</ele>
        <time>2022-01-11T15:18:18Z</time>
      </trkpt>
      <trkpt lat="47.6573" lon="6.19999">
        <ele>288.8</ele>
        <time>2022-01-11T15:18:21Z</time>
      </trkpt>
      <trkpt lat="47.65724" lon="6.20007">
        <ele>287.9</ele>
        <time>2022-01-11T15:18:23Z</time>
      </trkpt>
      <trkpt lat="47.65719" lon="6.20015">
        <ele>287.2</ele>
        <time>2022-01-11T15:18:25Z</time>
      </trkpt>
      <trkpt lat="47.65715" lon="6.20022">
        <ele>286.5</ele>
        <time>2022-01-11T15:18:26Z</time>
      </trkpt>
      <trkpt lat="47.65712" lon="6.20026">
        <ele>285.9</ele>
        <time>2022-01-11T15:18:27Z</time>
      </trkpt>
      <trkpt lat="47.65706" lon="6.20035">
        <ele>284.8</ele>
        <time>2022-01-11T15:18:28Z</time>
      </trkpt>
      <trkpt lat="47.65683" lon="6.20068">
        <ele>281.7</ele>
        <time>2022-01-11T15:18:28Z</time>
      </trkpt>
      <trkpt lat="47.65678" lon="6.20074">
        <ele>281.2</ele>
        <time>2022-01-11T15:18:29Z</time>
      </trkpt>
      <trkpt lat="47.65674" lon="6.2008">
        <ele>280.7</ele>
        <time>2022-01-11T15:18:30Z</time>
      </trkpt>
      <trkpt lat="47.6567" lon="6.20086">
        <ele>280.1</ele>
        <time>2022-01-11T15:18:31Z</time>
      </trkpt>
      <trkpt lat="47.65666" lon="6.20091">
        <ele>279.4</ele>
        <time>2022-01-11T15:18:32Z</time>
      </trkpt>
      <trkpt lat="47.65662" lon="6.20096">
        <ele>278.8</ele>
        <time>2022-01-11T15:18:33Z</time>
      </trkpt>
      <trkpt lat="47.65658" lon="6.20101">
        <ele>278.3</ele>
        <time>2022-01-11T15:18:34Z</time>
      </trkpt>
      <trkpt lat="47.65654" lon="6.20106">
        <ele>277.8</ele>
        <time>2022-01-11T15:18:35Z</time>
      </trkpt>
      <trkpt lat="47.65651" lon="6.20112">
        <ele>277.4</ele>
        <time>2022-01-11T15:18:36Z</time>
      </trkpt>
      <trkpt lat="47.65648" lon="6.20118">
        <ele>277.1</ele>
        <time>2022-01-11T15:18:37Z</time>
      </trkpt>
      <trkpt lat="47.65645" lon="6.20124">
        <ele>276.8</ele>
        <time>2022-01-11T15:18:38Z</time>
      </trkpt>
      <trkpt lat="47.65643" lon="6.2013">
        <ele>276.5</ele>
        <time>2022-01-11T15:18:39Z</time>
      </trkpt>
      <trkpt lat="47.65641" lon="6.20139">
        <ele>276.1</ele>
        <time>2022-01-11T15:18:41Z</time>
      </trkpt>
      <trkpt lat="47.65641" lon="6.20147">
        <ele>275.8</ele>
        <time>2022-01-11T15:18:43Z</time>
      </trkpt>
      <trkpt lat="47.6564" lon="6.20153">
        <ele>275.5</ele>
        <time>2022-01-11T15:18:45Z</time>
      </trkpt>
      <trkpt lat="47.65636" lon="6.20159">
        <ele>274.9</ele>
        <time>2022-01-11T15:18:50Z</time>
      </trkpt>
      <trkpt lat="47.65631" lon="6.20154">
        <ele>274.8</ele>
        <time>2022-01-11T15:18:54Z</time>
      </trkpt>
      <trkpt lat="47.65628" lon="6.20147">
        <ele>274.8</ele>
        <time>2022-01-11T15:18:57Z</time>
      </trkpt>
      <trkpt lat="47.65617" lon="6.20137">
        <ele>274.5</ele>
        <time>2022-01-11T15:19:00Z</time>
      </trkpt>
      <trkpt lat="47.65607" lon="6.20126">
        <ele>274.1</ele>
        <time>2022-01-11T15:19:03Z</time>
      </trkpt>
      <trkpt lat="47.65603" lon="6.20122">
        <ele>273.9</ele>
        <time>2022-01-11T15:19:04Z</time>
      </trkpt>
      <trkpt lat="47.656" lon="6.20117">
        <ele>273.9</ele>
        <time>2022-01-11T15:19:05Z</time>
      </trkpt>
      <trkpt lat="47.6559" lon="6.20107">
        <ele>273.6</ele>
        <time>2022-01-11T15:19:08Z</time>
      </trkpt>
      <trkpt lat="47.65586" lon="6.20104">
        <ele>273.4</ele>
        <time>2022-01-11T15:19:09Z</time>
      </trkpt>
      <trkpt lat="47.65581" lon="6.201">
        <ele>273.1</ele>
        <time>2022-01-11T15:19:10Z</time>
      </trkpt>
      <trkpt lat="47.65574" lon="6.20095">
        <ele>272.8</ele>
        <time>2022-01-11T15:19:12Z</time>
      </trkpt>
      <trkpt lat="47.6557" lon="6.20091">
        <ele>272.7</ele>
        <time>2022-01-11T15:19:13Z</time>
      </trkpt>
      <trkpt lat="47.65564" lon="6.20084">
        <ele>272.6</ele>
        <time>2022-01-11T15:19:14Z</time>
      </trkpt>
      <trkpt lat="47.65555" lon="6.20074">
        <ele>272.6</ele>
        <time>2022-01-11T15:19:17Z</time>
      </trkpt>
      <trkpt lat="47.65549" lon="6.20067">
        <ele>272.3</ele>
        <time>2022-01-11T15:19:18Z</time>
      </trkpt>
      <trkpt lat="47.65536" lon="6.20051">
        <ele>271.4</ele>
        <time>2022-01-11T15:19:18Z</time>
      </trkpt>
      <trkpt lat="47.65532" lon="6.20046">
        <ele>271.2</ele>
        <time>2022-01-11T15:19:19Z</time>
      </trkpt>
      <trkpt lat="47.65528" lon="6.20041">
        <ele>271.1</ele>
        <time>2022-01-11T15:19:20Z</time>
      </trkpt>
      <trkpt lat="47.65524" lon="6.20037">
        <ele>270.8</ele>
        <time>2022-01-11T15:19:21Z</time>
      </trkpt>
      <trkpt lat="47.65521" lon="6.20033">
        <ele>270.5</ele>
        <time>2022-01-11T15:19:22Z</time>
      </trkpt>
      <trkpt lat="47.65517" lon="6.20029">
        <ele>270.4</ele>
        <time>2022-01-11T15:19:23Z</time>
      </trkpt>
      <trkpt lat="47.65512" lon="6.20019">
        <ele>270.4</ele>
        <time>2022-01-11T15:19:25Z</time>
      </trkpt>
      <trkpt lat="47.65509" lon="6.20009">
        <ele>270.9</ele>
        <time>2022-01-11T15:19:27Z</time>
      </trkpt>
      <trkpt lat="47.65505" lon="6.20001">
        <ele>271.3</ele>
        <time>2022-01-11T15:19:29Z</time>
      </trkpt>
      <trkpt lat="47.65498" lon="6.19991">
        <ele>271.3</ele>
        <time>2022-01-11T15:19:31Z</time>
      </trkpt>
      <trkpt lat="47.65495" lon="6.19985">
        <ele>271.1</ele>
        <time>2022-01-11T15:19:32Z</time>
      </trkpt>
      <trkpt lat="47.65491" lon="6.19979">
        <ele>270.9</ele>
        <time>2022-01-11T15:19:33Z</time>
      </trkpt>
      <trkpt lat="47.65488" lon="6.19973">
        <ele>270.8</ele>
        <time>2022-01-11T15:19:34Z</time>
      </trkpt>
      <trkpt lat="47.65485" lon="6.19967">
        <ele>270.6</ele>
        <time>2022-01-11T15:19:35Z</time>
      </trkpt>
      <trkpt lat="47.65481" lon="6.19961">
        <ele>270.5</ele>
        <time>2022-01-11T15:19:36Z</time>
      </trkpt>
      <trkpt lat="47.65478" lon="6.19955">
        <ele>270.5</ele>
        <time>2022-01-11T15:19:37Z</time>
      </trkpt>
      <trkpt lat="47.65474" lon="6.1995">
        <ele>270.6</ele>
        <time>2022-01-11T15:19:38Z</time>
      </trkpt>
      <trkpt lat="47.65471" lon="6.19946">
        <ele>270.6</ele>
        <time>2022-01-11T15:19:39Z</time>
      </trkpt>
      <trkpt lat="47.65466" lon="6.19935">
        <ele>270.3</ele>
        <time>2022-01-11T15:19:41Z</time>
      </trkpt>
      <trkpt lat="47.65462" lon="6.19926">
        <ele>270.2</ele>
        <time>2022-01-11T15:19:43Z</time>
      </trkpt>
      <trkpt lat="47.65457" lon="6.19917">
        <ele>270.3</ele>
        <time>2022-01-11T15:19:45Z</time>
      </trkpt>
      <trkpt lat="47.65453" lon="6.19911">
        <ele>270.3</ele>
        <time>2022-01-11T15:19:47Z</time>
      </trkpt>
      <trkpt lat="47.65447" lon="6.19898">
        <ele>270.6</ele>
        <time>2022-01-11T15:19:52Z</time>
      </trkpt>
      <trkpt lat="47.65443" lon="6.19884">
        <ele>271.1</ele>
        <time>2022-01-11T15:19:53Z</time>
      </trkpt>
      <trkpt lat="47.65438" lon="6.19881">
        <ele>270.7</ele>
        <time>2022-01-11T15:19:59Z</time>
      </trkpt>
      <trkpt lat="47.65436" lon="6.19873">
        <ele>271.1</ele>
        <time>2022-01-11T15:19:59Z</time>
      </trkpt>
      <trkpt lat="47.65433" lon="6.19866">
        <ele>271.3</ele>
        <time>2022-01-11T15:20:05Z</time>
      </trkpt>
      <trkpt lat="47.65429" lon="6.19861">
        <ele>271.4</ele>
        <time>2022-01-11T15:20:07Z</time>
      </trkpt>
      <trkpt lat="47.65426" lon="6.19856">
        <ele>271.2</ele>
        <time>2022-01-11T15:20:09Z</time>
      </trkpt>
      <trkpt lat="47.65416" lon="6.19838">
        <ele>270.7</ele>
        <time>2022-01-11T15:20:13Z</time>
      </trkpt>
      <trkpt lat="47.65413" lon="6.19832">
        <ele>270.4</ele>
        <time>2022-01-11T15:20:14Z</time>
      </trkpt>
      <trkpt lat="47.65408" lon="6.19824">
        <ele>269.9</ele>
        <time>2022-01-11T15:20:16Z</time>
      </trkpt>
      <trkpt lat="47.65404" lon="6.19818">
        <ele>269.5</ele>
        <time>2022-01-11T15:20:18Z</time>
      </trkpt>
      <trkpt lat="47.65396" lon="6.19806">
        <ele>269</ele>
        <time>2022-01-11T15:20:21Z</time>
      </trkpt>
      <trkpt lat="47.65393" lon="6.19801">
        <ele>268.9</ele>
        <time>2022-01-11T15:20:22Z</time>
      </trkpt>
      <trkpt lat="47.65385" lon="6.19787">
        <ele>268.9</ele>
        <time>2022-01-11T15:20:25Z</time>
      </trkpt>
      <trkpt lat="47.65382" lon="6.19782">
        <ele>269.1</ele>
        <time>2022-01-11T15:20:26Z</time>
      </trkpt>
      <trkpt lat="47.65378" lon="6.19776">
        <ele>269.4</ele>
        <time>2022-01-11T15:20:27Z</time>
      </trkpt>
      <trkpt lat="47.6537" lon="6.1976">
        <ele>269.7</ele>
        <time>2022-01-11T15:20:30Z</time>
      </trkpt>
      <trkpt lat="47.65368" lon="6.19754">
        <ele>269.7</ele>
        <time>2022-01-11T15:20:31Z</time>
      </trkpt>
      <trkpt lat="47.65363" lon="6.1974">
        <ele>269.3</ele>
        <time>2022-01-11T15:20:33Z</time>
      </trkpt>
      <trkpt lat="47.65358" lon="6.19726">
        <ele>268.5</ele>
        <time>2022-01-11T15:20:35Z</time>
      </trkpt>
      <trkpt lat="47.65355" lon="6.19718">
        <ele>268.3</ele>
        <time>2022-01-11T15:20:37Z</time>
      </trkpt>
      <trkpt lat="47.65353" lon="6.19712">
        <ele>268.3</ele>
        <time>2022-01-11T15:20:38Z</time>
      </trkpt>
      <trkpt lat="47.6535" lon="6.19705">
        <ele>268.3</ele>
        <time>2022-01-11T15:20:39Z</time>
      </trkpt>
      <trkpt lat="47.65347" lon="6.19699">
        <ele>268.2</ele>
        <time>2022-01-11T15:20:40Z</time>
      </trkpt>
      <trkpt lat="47.6534" lon="6.1968">
        <ele>268.2</ele>
        <time>2022-01-11T15:20:40Z</time>
      </trkpt>
      <trkpt lat="47.65336" lon="6.19667">
        <ele>268.2</ele>
        <time>2022-01-11T15:20:42Z</time>
      </trkpt>
      <trkpt lat="47.65332" lon="6.19657">
        <ele>268.1</ele>
        <time>2022-01-11T15:20:47Z</time>
      </trkpt>
      <trkpt lat="47.6533" lon="6.1965">
        <ele>268.1</ele>
        <time>2022-01-11T15:20:48Z</time>
      </trkpt>
      <trkpt lat="47.65327" lon="6.19641">
        <ele>268.2</ele>
        <time>2022-01-11T15:20:50Z</time>
      </trkpt>
      <trkpt lat="47.6532" lon="6.1962">
        <ele>267.9</ele>
        <time>2022-01-11T15:20:50Z</time>
      </trkpt>
      <trkpt lat="47.65317" lon="6.19611">
        <ele>267.8</ele>
        <time>2022-01-11T15:20:55Z</time>
      </trkpt>
      <trkpt lat="47.65311" lon="6.19593">
        <ele>267.9</ele>
        <time>2022-01-11T15:20:58Z</time>
      </trkpt>
      <trkpt lat="47.65308" lon="6.19587">
        <ele>268</ele>
        <time>2022-01-11T15:21:00Z</time>
      </trkpt>
      <trkpt lat="47.65305" lon="6.19578">
        <ele>268.2</ele>
        <time>2022-01-11T15:21:02Z</time>
      </trkpt>
      <trkpt lat="47.65303" lon="6.19571">
        <ele>268.4</ele>
        <time>2022-01-11T15:21:04Z</time>
      </trkpt>
      <trkpt lat="47.653" lon="6.19564">
        <ele>268.6</ele>
        <time>2022-01-11T15:21:06Z</time>
      </trkpt>
      <trkpt lat="47.65295" lon="6.19551">
        <ele>269.2</ele>
        <time>2022-01-11T15:21:12Z</time>
      </trkpt>
      <trkpt lat="47.65293" lon="6.19545">
        <ele>269.5</ele>
        <time>2022-01-11T15:21:17Z</time>
      </trkpt>
      <trkpt lat="47.65288" lon="6.19534">
        <ele>270.3</ele>
        <time>2022-01-11T15:21:22Z</time>
      </trkpt>
      <trkpt lat="47.65286" lon="6.19527">
        <ele>270.7</ele>
        <time>2022-01-11T15:21:24Z</time>
      </trkpt>
      <trkpt lat="47.65285" lon="6.1952">
        <ele>271.1</ele>
        <time>2022-01-11T15:21:26Z</time>
      </trkpt>
      <trkpt lat="47.65285" lon="6.19513">
        <ele>271.4</ele>
        <time>2022-01-11T15:21:26Z</time>
      </trkpt>
      <trkpt lat="47.65284" lon="6.19506">
        <ele>271.7</ele>
        <time>2022-01-11T15:21:32Z</time>
      </trkpt>
      <trkpt lat="47.65282" lon="6.19498">
        <ele>272</ele>
        <time>2022-01-11T15:21:35Z</time>
      </trkpt>
      <trkpt lat="47.6528" lon="6.19492">
        <ele>272</ele>
        <time>2022-01-11T15:21:37Z</time>
      </trkpt>
      <trkpt lat="47.65277" lon="6.19485">
        <ele>272</ele>
        <time>2022-01-11T15:21:39Z</time>
      </trkpt>
      <trkpt lat="47.65274" lon="6.19478">
        <ele>271.8</ele>
        <time>2022-01-11T15:21:42Z</time>
      </trkpt>
      <trkpt lat="47.6527" lon="6.19471">
        <ele>271.7</ele>
        <time>2022-01-11T15:21:44Z</time>
      </trkpt>
      <trkpt lat="47.65262" lon="6.19459">
        <ele>271.7</ele>
        <time>2022-01-11T15:21:49Z</time>
      </trkpt>
      <trkpt lat="47.65253" lon="6.19448">
        <ele>271.9</ele>
        <time>2022-01-11T15:21:49Z</time>
      </trkpt>
      <trkpt lat="47.65248" lon="6.1944">
        <ele>271.8</ele>
        <time>2022-01-11T15:21:51Z</time>
      </trkpt>
      <trkpt lat="47.65242" lon="6.19433">
        <ele>271.4</ele>
        <time>2022-01-11T15:21:53Z</time>
      </trkpt>
      <trkpt lat="47.65237" lon="6.19426">
        <ele>271.1</ele>
        <time>2022-01-11T15:21:55Z</time>
      </trkpt>
      <trkpt lat="47.65232" lon="6.19417">
        <ele>270.7</ele>
        <time>2022-01-11T15:21:57Z</time>
      </trkpt>
      <trkpt lat="47.65228" lon="6.19412">
        <ele>270.5</ele>
        <time>2022-01-11T15:22:02Z</time>
      </trkpt>
      <trkpt lat="47.65224" lon="6.19404">
        <ele>270.5</ele>
        <time>2022-01-11T15:22:04Z</time>
      </trkpt>
      <trkpt lat="47.6522" lon="6.19397">
        <ele>270.7</ele>
        <time>2022-01-11T15:22:06Z</time>
      </trkpt>
      <trkpt lat="47.65217" lon="6.19392">
        <ele>270.8</ele>
        <time>2022-01-11T15:22:07Z</time>
      </trkpt>
      <trkpt lat="47.65212" lon="6.19385">
        <ele>271</ele>
        <time>2022-01-11T15:22:09Z</time>
      </trkpt>
      <trkpt lat="47.65209" lon="6.1938">
        <ele>271</ele>
        <time>2022-01-11T15:22:11Z</time>
      </trkpt>
      <trkpt lat="47.65201" lon="6.19368">
        <ele>271</ele>
        <time>2022-01-11T15:22:15Z</time>
      </trkpt>
      <trkpt lat="47.65194" lon="6.19357">
        <ele>271.1</ele>
        <time>2022-01-11T15:22:16Z</time>
      </trkpt>
      <trkpt lat="47.6519" lon="6.19352">
        <ele>271.2</ele>
        <time>2022-01-11T15:22:18Z</time>
      </trkpt>
      <trkpt lat="47.65186" lon="6.19346">
        <ele>271.2</ele>
        <time>2022-01-11T15:22:24Z</time>
      </trkpt>
      <trkpt lat="47.65183" lon="6.19341">
        <ele>271.3</ele>
        <time>2022-01-11T15:22:26Z</time>
      </trkpt>
      <trkpt lat="47.65177" lon="6.19335">
        <ele>271.3</ele>
        <time>2022-01-11T15:22:26Z</time>
      </trkpt>
      <trkpt lat="47.65173" lon="6.1933">
        <ele>271.4</ele>
        <time>2022-01-11T15:22:32Z</time>
      </trkpt>
      <trkpt lat="47.65169" lon="6.19325">
        <ele>271.4</ele>
        <time>2022-01-11T15:22:34Z</time>
      </trkpt>
      <trkpt lat="47.65164" lon="6.19321">
        <ele>271.5</ele>
        <time>2022-01-11T15:22:37Z</time>
      </trkpt>
      <trkpt lat="47.6516" lon="6.19317">
        <ele>271.6</ele>
        <time>2022-01-11T15:22:39Z</time>
      </trkpt>
      <trkpt lat="47.65151" lon="6.19308">
        <ele>271.9</ele>
        <time>2022-01-11T15:22:40Z</time>
      </trkpt>
      <trkpt lat="47.65147" lon="6.19304">
        <ele>272</ele>
        <time>2022-01-11T15:22:45Z</time>
      </trkpt>
      <trkpt lat="47.65143" lon="6.19299">
        <ele>272</ele>
        <time>2022-01-11T15:22:47Z</time>
      </trkpt>
      <trkpt lat="47.65138" lon="6.19295">
        <ele>272</ele>
        <time>2022-01-11T15:22:49Z</time>
      </trkpt>
      <trkpt lat="47.65128" lon="6.19284">
        <ele>271.5</ele>
        <time>2022-01-11T15:22:53Z</time>
      </trkpt>
      <trkpt lat="47.65124" lon="6.19278">
        <ele>271.5</ele>
        <time>2022-01-11T15:22:55Z</time>
      </trkpt>
      <trkpt lat="47.6512" lon="6.19273">
        <ele>271.3</ele>
        <time>2022-01-11T15:22:57Z</time>
      </trkpt>
      <trkpt lat="47.65108" lon="6.19258">
        <ele>270.8</ele>
        <time>2022-01-11T15:22:58Z</time>
      </trkpt>
      <trkpt lat="47.65102" lon="6.1925">
        <ele>270.7</ele>
        <time>2022-01-11T15:23:01Z</time>
      </trkpt>
      <trkpt lat="47.65096" lon="6.19243">
        <ele>270.5</ele>
        <time>2022-01-11T15:23:03Z</time>
      </trkpt>
      <trkpt lat="47.65091" lon="6.19234">
        <ele>270.3</ele>
        <time>2022-01-11T15:23:05Z</time>
      </trkpt>
      <trkpt lat="47.65086" lon="6.19226">
        <ele>270.1</ele>
        <time>2022-01-11T15:23:07Z</time>
      </trkpt>
      <trkpt lat="47.65082" lon="6.19221">
        <ele>269.9</ele>
        <time>2022-01-11T15:23:11Z</time>
      </trkpt>
      <trkpt lat="47.65076" lon="6.19212">
        <ele>269.5</ele>
        <time>2022-01-11T15:23:13Z</time>
      </trkpt>
      <trkpt lat="47.65072" lon="6.19207">
        <ele>269.4</ele>
        <time>2022-01-11T15:23:14Z</time>
      </trkpt>
      <trkpt lat="47.65068" lon="6.19201">
        <ele>269.3</ele>
        <time>2022-01-11T15:23:16Z</time>
      </trkpt>
      <trkpt lat="47.65064" lon="6.19195">
        <ele>269.3</ele>
        <time>2022-01-11T15:23:17Z</time>
      </trkpt>
      <trkpt lat="47.65059" lon="6.19187">
        <ele>269.3</ele>
        <time>2022-01-11T15:23:19Z</time>
      </trkpt>
      <trkpt lat="47.65054" lon="6.19179">
        <ele>269.5</ele>
        <time>2022-01-11T15:23:21Z</time>
      </trkpt>
      <trkpt lat="47.6505" lon="6.19172">
        <ele>269.4</ele>
        <time>2022-01-11T15:23:23Z</time>
      </trkpt>
      <trkpt lat="47.65046" lon="6.19166">
        <ele>269.3</ele>
        <time>2022-01-11T15:23:24Z</time>
      </trkpt>
      <trkpt lat="47.65042" lon="6.19159">
        <ele>269.2</ele>
        <time>2022-01-11T15:23:26Z</time>
      </trkpt>
      <trkpt lat="47.65034" lon="6.19145">
        <ele>269</ele>
        <time>2022-01-11T15:23:29Z</time>
      </trkpt>
      <trkpt lat="47.6503" lon="6.19137">
        <ele>269.1</ele>
        <time>2022-01-11T15:23:31Z</time>
      </trkpt>
      <trkpt lat="47.65025" lon="6.1913">
        <ele>268.8</ele>
        <time>2022-01-11T15:23:32Z</time>
      </trkpt>
      <trkpt lat="47.65014" lon="6.19111">
        <ele>268</ele>
        <time>2022-01-11T15:23:36Z</time>
      </trkpt>
      <trkpt lat="47.65011" lon="6.19105">
        <ele>267.9</ele>
        <time>2022-01-11T15:23:37Z</time>
      </trkpt>
      <trkpt lat="47.65004" lon="6.19092">
        <ele>267.9</ele>
        <time>2022-01-11T15:23:40Z</time>
      </trkpt>
      <trkpt lat="47.64999" lon="6.19085">
        <ele>267.9</ele>
        <time>2022-01-11T15:23:41Z</time>
      </trkpt>
      <trkpt lat="47.64994" lon="6.19076">
        <ele>267.6</ele>
        <time>2022-01-11T15:23:43Z</time>
      </trkpt>
      <trkpt lat="47.64987" lon="6.19064">
        <ele>267.4</ele>
        <time>2022-01-11T15:23:46Z</time>
      </trkpt>
      <trkpt lat="47.64985" lon="6.19058">
        <ele>267.4</ele>
        <time>2022-01-11T15:23:47Z</time>
      </trkpt>
      <trkpt lat="47.64989" lon="6.1904">
        <ele>267.6</ele>
        <time>2022-01-11T15:23:50Z</time>
      </trkpt>
      <trkpt lat="47.64994" lon="6.19033">
        <ele>267.8</ele>
        <time>2022-01-11T15:23:52Z</time>
      </trkpt>
      <trkpt lat="47.64998" lon="6.1903">
        <ele>267.9</ele>
        <time>2022-01-11T15:23:53Z</time>
      </trkpt>
      <trkpt lat="47.65003" lon="6.19028">
        <ele>268.2</ele>
        <time>2022-01-11T15:23:55Z</time>
      </trkpt>
      <trkpt lat="47.65007" lon="6.19023">
        <ele>268.6</ele>
        <time>2022-01-11T15:23:57Z</time>
      </trkpt>
      <trkpt lat="47.65012" lon="6.19019">
        <ele>269</ele>
        <time>2022-01-11T15:23:59Z</time>
      </trkpt>
      <trkpt lat="47.65016" lon="6.19017">
        <ele>269.3</ele>
        <time>2022-01-11T15:24:03Z</time>
      </trkpt>
      <trkpt lat="47.6502" lon="6.19013">
        <ele>269.6</ele>
        <time>2022-01-11T15:24:08Z</time>
      </trkpt>
      <trkpt lat="47.65024" lon="6.19009">
        <ele>269.8</ele>
        <time>2022-01-11T15:24:13Z</time>
      </trkpt>
      <trkpt lat="47.65029" lon="6.19005">
        <ele>270.1</ele>
        <time>2022-01-11T15:24:17Z</time>
      </trkpt>
      <trkpt lat="47.65033" lon="6.19002">
        <ele>270.4</ele>
        <time>2022-01-11T15:24:21Z</time>
      </trkpt>
      <trkpt lat="47.65037" lon="6.18998">
        <ele>270.7</ele>
        <time>2022-01-11T15:24:25Z</time>
      </trkpt>
      <trkpt lat="47.65042" lon="6.18995">
        <ele>271.1</ele>
        <time>2022-01-11T15:24:29Z</time>
      </trkpt>
      <trkpt lat="47.65045" lon="6.1899">
        <ele>271.4</ele>
        <time>2022-01-11T15:24:32Z</time>
      </trkpt>
      <trkpt lat="47.65049" lon="6.18986">
        <ele>271.7</ele>
        <time>2022-01-11T15:24:35Z</time>
      </trkpt>
      <trkpt lat="47.65054" lon="6.18982">
        <ele>271.9</ele>
        <time>2022-01-11T15:24:36Z</time>
      </trkpt>
      <trkpt lat="47.65058" lon="6.18979">
        <ele>272.1</ele>
        <time>2022-01-11T15:24:41Z</time>
      </trkpt>
      <trkpt lat="47.65062" lon="6.18974">
        <ele>272.2</ele>
        <time>2022-01-11T15:24:44Z</time>
      </trkpt>
      <trkpt lat="47.65066" lon="6.1897">
        <ele>272.4</ele>
        <time>2022-01-11T15:24:47Z</time>
      </trkpt>
      <trkpt lat="47.65074" lon="6.18962">
        <ele>272.4</ele>
        <time>2022-01-11T15:24:52Z</time>
      </trkpt>
      <trkpt lat="47.65078" lon="6.18957">
        <ele>272.4</ele>
        <time>2022-01-11T15:24:55Z</time>
      </trkpt>
      <trkpt lat="47.65083" lon="6.18953">
        <ele>272.3</ele>
        <time>2022-01-11T15:24:58Z</time>
      </trkpt>
      <trkpt lat="47.65087" lon="6.18948">
        <ele>272</ele>
        <time>2022-01-11T15:25:01Z</time>
      </trkpt>
      <trkpt lat="47.65091" lon="6.18944">
        <ele>271.7</ele>
        <time>2022-01-11T15:25:03Z</time>
      </trkpt>
      <trkpt lat="47.65097" lon="6.18938">
        <ele>271.3</ele>
        <time>2022-01-11T15:25:05Z</time>
      </trkpt>
      <trkpt lat="47.65101" lon="6.18934">
        <ele>271</ele>
        <time>2022-01-11T15:25:06Z</time>
      </trkpt>
      <trkpt lat="47.65106" lon="6.18929">
        <ele>270.6</ele>
        <time>2022-01-11T15:25:07Z</time>
      </trkpt>
      <trkpt lat="47.65111" lon="6.18924">
        <ele>270.3</ele>
        <time>2022-01-11T15:25:08Z</time>
      </trkpt>
      <trkpt lat="47.65115" lon="6.1892">
        <ele>270.1</ele>
        <time>2022-01-11T15:25:09Z</time>
      </trkpt>
      <trkpt lat="47.65124" lon="6.1891">
        <ele>270</ele>
        <time>2022-01-11T15:25:11Z</time>
      </trkpt>
      <trkpt lat="47.65129" lon="6.18904">
        <ele>270</ele>
        <time>2022-01-11T15:25:12Z</time>
      </trkpt>
      <trkpt lat="47.65141" lon="6.18891">
        <ele>270.1</ele>
        <time>2022-01-11T15:25:13Z</time>
      </trkpt>
      <trkpt lat="47.65146" lon="6.18885">
        <ele>270.4</ele>
        <time>2022-01-11T15:25:17Z</time>
      </trkpt>
      <trkpt lat="47.6515" lon="6.18882">
        <ele>270.6</ele>
        <time>2022-01-11T15:25:19Z</time>
      </trkpt>
      <trkpt lat="47.65154" lon="6.18876">
        <ele>270.8</ele>
        <time>2022-01-11T15:25:22Z</time>
      </trkpt>
      <trkpt lat="47.65159" lon="6.18872">
        <ele>270.9</ele>
        <time>2022-01-11T15:25:26Z</time>
      </trkpt>
      <trkpt lat="47.65163" lon="6.18869">
        <ele>271</ele>
        <time>2022-01-11T15:25:30Z</time>
      </trkpt>
      <trkpt lat="47.65167" lon="6.18865">
        <ele>271</ele>
        <time>2022-01-11T15:25:33Z</time>
      </trkpt>
      <trkpt lat="47.65175" lon="6.18857">
        <ele>270.7</ele>
        <time>2022-01-11T15:25:37Z</time>
      </trkpt>
      <trkpt lat="47.65179" lon="6.18852">
        <ele>270.6</ele>
        <time>2022-01-11T15:25:39Z</time>
      </trkpt>
      <trkpt lat="47.65183" lon="6.18849">
        <ele>270.4</ele>
        <time>2022-01-11T15:25:41Z</time>
      </trkpt>
      <trkpt lat="47.65187" lon="6.18845">
        <ele>270.3</ele>
        <time>2022-01-11T15:25:42Z</time>
      </trkpt>
      <trkpt lat="47.65192" lon="6.18839">
        <ele>270.1</ele>
        <time>2022-01-11T15:25:45Z</time>
      </trkpt>
      <trkpt lat="47.65201" lon="6.18829">
        <ele>270</ele>
        <time>2022-01-11T15:25:49Z</time>
      </trkpt>
      <trkpt lat="47.65206" lon="6.18824">
        <ele>270</ele>
        <time>2022-01-11T15:25:51Z</time>
      </trkpt>
      <trkpt lat="47.65211" lon="6.18819">
        <ele>270</ele>
        <time>2022-01-11T15:25:53Z</time>
      </trkpt>
      <trkpt lat="47.65216" lon="6.18813">
        <ele>270</ele>
        <time>2022-01-11T15:25:55Z</time>
      </trkpt>
      <trkpt lat="47.65221" lon="6.18807">
        <ele>270</ele>
        <time>2022-01-11T15:25:57Z</time>
      </trkpt>
      <trkpt lat="47.65225" lon="6.18801">
        <ele>270.1</ele>
        <time>2022-01-11T15:25:59Z</time>
      </trkpt>
      <trkpt lat="47.65232" lon="6.18794">
        <ele>270.3</ele>
        <time>2022-01-11T15:26:01Z</time>
      </trkpt>
      <trkpt lat="47.65236" lon="6.18789">
        <ele>270.5</ele>
        <time>2022-01-11T15:26:03Z</time>
      </trkpt>
      <trkpt lat="47.65241" lon="6.18784">
        <ele>270.7</ele>
        <time>2022-01-11T15:26:05Z</time>
      </trkpt>
      <trkpt lat="47.65249" lon="6.18775">
        <ele>270.9</ele>
        <time>2022-01-11T15:26:06Z</time>
      </trkpt>
      <trkpt lat="47.65255" lon="6.18768">
        <ele>270.9</ele>
        <time>2022-01-11T15:26:09Z</time>
      </trkpt>
      <trkpt lat="47.65259" lon="6.18765">
        <ele>271</ele>
        <time>2022-01-11T15:26:11Z</time>
      </trkpt>
      <trkpt lat="47.65263" lon="6.18761">
        <ele>271.1</ele>
        <time>2022-01-11T15:26:13Z</time>
      </trkpt>
      <trkpt lat="47.65267" lon="6.18757">
        <ele>271.3</ele>
        <time>2022-01-11T15:26:17Z</time>
      </trkpt>
      <trkpt lat="47.6527" lon="6.18752">
        <ele>271.5</ele>
        <time>2022-01-11T15:26:19Z</time>
      </trkpt>
      <trkpt lat="47.65276" lon="6.18746">
        <ele>271.9</ele>
        <time>2022-01-11T15:26:22Z</time>
      </trkpt>
      <trkpt lat="47.6528" lon="6.18742">
        <ele>272.1</ele>
        <time>2022-01-11T15:26:24Z</time>
      </trkpt>
      <trkpt lat="47.65288" lon="6.18731">
        <ele>272.8</ele>
        <time>2022-01-11T15:26:27Z</time>
      </trkpt>
      <trkpt lat="47.65293" lon="6.18726">
        <ele>273.1</ele>
        <time>2022-01-11T15:26:30Z</time>
      </trkpt>
      <trkpt lat="47.65296" lon="6.18721">
        <ele>273.3</ele>
        <time>2022-01-11T15:26:33Z</time>
      </trkpt>
      <trkpt lat="47.653" lon="6.18717">
        <ele>273.4</ele>
        <time>2022-01-11T15:26:39Z</time>
      </trkpt>
      <trkpt lat="47.65304" lon="6.18713">
        <ele>273.6</ele>
        <time>2022-01-11T15:26:42Z</time>
      </trkpt>
      <trkpt lat="47.65308" lon="6.18708">
        <ele>273.6</ele>
        <time>2022-01-11T15:26:43Z</time>
      </trkpt>
      <trkpt lat="47.65312" lon="6.18705">
        <ele>273.6</ele>
        <time>2022-01-11T15:26:49Z</time>
      </trkpt>
      <trkpt lat="47.65316" lon="6.18699">
        <ele>273.5</ele>
        <time>2022-01-11T15:26:52Z</time>
      </trkpt>
      <trkpt lat="47.6532" lon="6.18694">
        <ele>273.5</ele>
        <time>2022-01-11T15:26:55Z</time>
      </trkpt>
      <trkpt lat="47.65326" lon="6.18692">
        <ele>273.7</ele>
        <time>2022-01-11T15:26:58Z</time>
      </trkpt>
      <trkpt lat="47.6533" lon="6.18695">
        <ele>273.9</ele>
        <time>2022-01-11T15:27:01Z</time>
      </trkpt>
      <trkpt lat="47.65333" lon="6.18701">
        <ele>274.2</ele>
        <time>2022-01-11T15:27:04Z</time>
      </trkpt>
      <trkpt lat="47.65337" lon="6.18705">
        <ele>274.5</ele>
        <time>2022-01-11T15:27:07Z</time>
      </trkpt>
      <trkpt lat="47.6534" lon="6.18712">
        <ele>274.9</ele>
        <time>2022-01-11T15:27:10Z</time>
      </trkpt>
      <trkpt lat="47.65344" lon="6.18719">
        <ele>275.2</ele>
        <time>2022-01-11T15:27:14Z</time>
      </trkpt>
      <trkpt lat="47.65347" lon="6.18725">
        <ele>275.5</ele>
        <time>2022-01-11T15:27:18Z</time>
      </trkpt>
      <trkpt lat="47.65351" lon="6.18729">
        <ele>275.6</ele>
        <time>2022-01-11T15:27:19Z</time>
      </trkpt>
      <trkpt lat="47.65349" lon="6.18723">
        <ele>275.6</ele>
        <time>2022-01-11T15:28:04Z</time>
      </trkpt>
      <trkpt lat="47.65346" lon="6.18729">
        <ele>275.5</ele>
        <time>2022-01-11T15:29:17Z</time>
      </trkpt>
      <trkpt lat="47.65343" lon="6.18723">
        <ele>275.4</ele>
        <time>2022-01-11T15:29:20Z</time>
      </trkpt>
      <trkpt lat="47.65342" lon="6.18716">
        <ele>275.1</ele>
        <time>2022-01-11T15:29:21Z</time>
      </trkpt>
      <trkpt lat="47.65335" lon="6.18698">
        <ele>274.2</ele>
        <time>2022-01-11T15:29:25Z</time>
      </trkpt>
      <trkpt lat="47.65328" lon="6.18684">
        <ele>273.8</ele>
        <time>2022-01-11T15:29:28Z</time>
      </trkpt>
      <trkpt lat="47.65323" lon="6.18675">
        <ele>273.6</ele>
        <time>2022-01-11T15:29:30Z</time>
      </trkpt>
      <trkpt lat="47.65319" lon="6.18669">
        <ele>273.5</ele>
        <time>2022-01-11T15:29:31Z</time>
      </trkpt>
      <trkpt lat="47.65313" lon="6.1866">
        <ele>273</ele>
        <time>2022-01-11T15:29:33Z</time>
      </trkpt>
      <trkpt lat="47.65309" lon="6.18654">
        <ele>272.7</ele>
        <time>2022-01-11T15:29:34Z</time>
      </trkpt>
      <trkpt lat="47.65304" lon="6.18648">
        <ele>272.3</ele>
        <time>2022-01-11T15:29:35Z</time>
      </trkpt>
      <trkpt lat="47.65293" lon="6.18633">
        <ele>271.4</ele>
        <time>2022-01-11T15:29:38Z</time>
      </trkpt>
      <trkpt lat="47.65276" lon="6.1861">
        <ele>270.9</ele>
        <time>2022-01-11T15:29:39Z</time>
      </trkpt>
      <trkpt lat="47.65272" lon="6.18604">
        <ele>270.4</ele>
        <time>2022-01-11T15:29:40Z</time>
      </trkpt>
      <trkpt lat="47.65269" lon="6.18597">
        <ele>270</ele>
        <time>2022-01-11T15:29:41Z</time>
      </trkpt>
      <trkpt lat="47.65265" lon="6.1859">
        <ele>269.7</ele>
        <time>2022-01-11T15:29:42Z</time>
      </trkpt>
      <trkpt lat="47.65261" lon="6.18584">
        <ele>269.4</ele>
        <time>2022-01-11T15:29:43Z</time>
      </trkpt>
      <trkpt lat="47.65257" lon="6.18577">
        <ele>269.2</ele>
        <time>2022-01-11T15:29:44Z</time>
      </trkpt>
      <trkpt lat="47.65253" lon="6.1857">
        <ele>269.1</ele>
        <time>2022-01-11T15:29:45Z</time>
      </trkpt>
      <trkpt lat="47.6525" lon="6.18563">
        <ele>269</ele>
        <time>2022-01-11T15:29:46Z</time>
      </trkpt>
      <trkpt lat="47.65246" lon="6.18557">
        <ele>268.7</ele>
        <time>2022-01-11T15:29:47Z</time>
      </trkpt>
      <trkpt lat="47.65242" lon="6.1855">
        <ele>268.3</ele>
        <time>2022-01-11T15:29:48Z</time>
      </trkpt>
      <trkpt lat="47.65239" lon="6.18544">
        <ele>268</ele>
        <time>2022-01-11T15:29:49Z</time>
      </trkpt>
      <trkpt lat="47.65236" lon="6.18537">
        <ele>267.7</ele>
        <time>2022-01-11T15:29:50Z</time>
      </trkpt>
      <trkpt lat="47.65233" lon="6.1853">
        <ele>267.4</ele>
        <time>2022-01-11T15:29:51Z</time>
      </trkpt>
      <trkpt lat="47.65229" lon="6.18523">
        <ele>267.2</ele>
        <time>2022-01-11T15:29:52Z</time>
      </trkpt>
      <trkpt lat="47.65226" lon="6.18516">
        <ele>267.1</ele>
        <time>2022-01-11T15:29:53Z</time>
      </trkpt>
      <trkpt lat="47.65222" lon="6.18508">
        <ele>267</ele>
        <time>2022-01-11T15:29:54Z</time>
      </trkpt>
      <trkpt lat="47.65218" lon="6.185">
        <ele>266.7</ele>
        <time>2022-01-11T15:29:55Z</time>
      </trkpt>
      <trkpt lat="47.65214" lon="6.18492">
        <ele>266.2</ele>
        <time>2022-01-11T15:29:56Z</time>
      </trkpt>
      <trkpt lat="47.6521" lon="6.18485">
        <ele>265.8</ele>
        <time>2022-01-11T15:29:57Z</time>
      </trkpt>
      <trkpt lat="47.65206" lon="6.18477">
        <ele>265.5</ele>
        <time>2022-01-11T15:29:58Z</time>
      </trkpt>
      <trkpt lat="47.65201" lon="6.18469">
        <ele>265.1</ele>
        <time>2022-01-11T15:29:59Z</time>
      </trkpt>
      <trkpt lat="47.65196" lon="6.18462">
        <ele>264.7</ele>
        <time>2022-01-11T15:30:00Z</time>
      </trkpt>
      <trkpt lat="47.65191" lon="6.18454">
        <ele>264.2</ele>
        <time>2022-01-11T15:30:01Z</time>
      </trkpt>
      <trkpt lat="47.65186" lon="6.18447">
        <ele>263.8</ele>
        <time>2022-01-11T15:30:02Z</time>
      </trkpt>
      <trkpt lat="47.65181" lon="6.1844">
        <ele>263.5</ele>
        <time>2022-01-11T15:30:03Z</time>
      </trkpt>
      <trkpt lat="47.65176" lon="6.18433">
        <ele>263.4</ele>
        <time>2022-01-11T15:30:04Z</time>
      </trkpt>
      <trkpt lat="47.65171" lon="6.18427">
        <ele>263.2</ele>
        <time>2022-01-11T15:30:05Z</time>
      </trkpt>
      <trkpt lat="47.65166" lon="6.18421">
        <ele>263</ele>
        <time>2022-01-11T15:30:06Z</time>
      </trkpt>
      <trkpt lat="47.65161" lon="6.18416">
        <ele>262.8</ele>
        <time>2022-01-11T15:30:07Z</time>
      </trkpt>
      <trkpt lat="47.65155" lon="6.18412">
        <ele>262.5</ele>
        <time>2022-01-11T15:30:08Z</time>
      </trkpt>
      <trkpt lat="47.65149" lon="6.18408">
        <ele>262.3</ele>
        <time>2022-01-11T15:30:09Z</time>
      </trkpt>
      <trkpt lat="47.65143" lon="6.18405">
        <ele>262.1</ele>
        <time>2022-01-11T15:30:10Z</time>
      </trkpt>
      <trkpt lat="47.65137" lon="6.18403">
        <ele>261.8</ele>
        <time>2022-01-11T15:30:11Z</time>
      </trkpt>
      <trkpt lat="47.65131" lon="6.18401">
        <ele>261.4</ele>
        <time>2022-01-11T15:30:12Z</time>
      </trkpt>
      <trkpt lat="47.65126" lon="6.18398">
        <ele>261</ele>
        <time>2022-01-11T15:30:13Z</time>
      </trkpt>
      <trkpt lat="47.65121" lon="6.18392">
        <ele>260.7</ele>
        <time>2022-01-11T15:30:14Z</time>
      </trkpt>
      <trkpt lat="47.65116" lon="6.18387">
        <ele>260.4</ele>
        <time>2022-01-11T15:30:15Z</time>
      </trkpt>
      <trkpt lat="47.65111" lon="6.18381">
        <ele>260</ele>
        <time>2022-01-11T15:30:16Z</time>
      </trkpt>
      <trkpt lat="47.65106" lon="6.18376">
        <ele>259.8</ele>
        <time>2022-01-11T15:30:17Z</time>
      </trkpt>
      <trkpt lat="47.65101" lon="6.1837">
        <ele>259.7</ele>
        <time>2022-01-11T15:30:18Z</time>
      </trkpt>
      <trkpt lat="47.65096" lon="6.18365">
        <ele>259.5</ele>
        <time>2022-01-11T15:30:19Z</time>
      </trkpt>
      <trkpt lat="47.65091" lon="6.1836">
        <ele>259.2</ele>
        <time>2022-01-11T15:30:20Z</time>
      </trkpt>
      <trkpt lat="47.65085" lon="6.18355">
        <ele>258.8</ele>
        <time>2022-01-11T15:30:21Z</time>
      </trkpt>
      <trkpt lat="47.6508" lon="6.18349">
        <ele>258.5</ele>
        <time>2022-01-11T15:30:22Z</time>
      </trkpt>
      <trkpt lat="47.65075" lon="6.18343">
        <ele>258.2</ele>
        <time>2022-01-11T15:30:23Z</time>
      </trkpt>
      <trkpt lat="47.6507" lon="6.18337">
        <ele>258.1</ele>
        <time>2022-01-11T15:30:24Z</time>
      </trkpt>
      <trkpt lat="47.65065" lon="6.18331">
        <ele>257.7</ele>
        <time>2022-01-11T15:30:25Z</time>
      </trkpt>
      <trkpt lat="47.6506" lon="6.18325">
        <ele>257.2</ele>
        <time>2022-01-11T15:30:26Z</time>
      </trkpt>
      <trkpt lat="47.65055" lon="6.18321">
        <ele>256.7</ele>
        <time>2022-01-11T15:30:27Z</time>
      </trkpt>
      <trkpt lat="47.65049" lon="6.18318">
        <ele>256.2</ele>
        <time>2022-01-11T15:30:28Z</time>
      </trkpt>
      <trkpt lat="47.65043" lon="6.18315">
        <ele>255.8</ele>
        <time>2022-01-11T15:30:29Z</time>
      </trkpt>
      <trkpt lat="47.65037" lon="6.18312">
        <ele>255.6</ele>
        <time>2022-01-11T15:30:30Z</time>
      </trkpt>
      <trkpt lat="47.65031" lon="6.1831">
        <ele>255.4</ele>
        <time>2022-01-11T15:30:31Z</time>
      </trkpt>
      <trkpt lat="47.65025" lon="6.18308">
        <ele>255.2</ele>
        <time>2022-01-11T15:30:32Z</time>
      </trkpt>
      <trkpt lat="47.65019" lon="6.18307">
        <ele>255.1</ele>
        <time>2022-01-11T15:30:33Z</time>
      </trkpt>
      <trkpt lat="47.65013" lon="6.18307">
        <ele>255.1</ele>
        <time>2022-01-11T15:30:34Z</time>
      </trkpt>
      <trkpt lat="47.65007" lon="6.18307">
        <ele>255</ele>
        <time>2022-01-11T15:30:35Z</time>
      </trkpt>
      <trkpt lat="47.65002" lon="6.18306">
        <ele>255</ele>
        <time>2022-01-11T15:30:36Z</time>
      </trkpt>
      <trkpt lat="47.64996" lon="6.18304">
        <ele>254.8</ele>
        <time>2022-01-11T15:30:37Z</time>
      </trkpt>
      <trkpt lat="47.64991" lon="6.18303">
        <ele>254.5</ele>
        <time>2022-01-11T15:30:38Z</time>
      </trkpt>
      <trkpt lat="47.64986" lon="6.18302">
        <ele>254.2</ele>
        <time>2022-01-11T15:30:39Z</time>
      </trkpt>
      <trkpt lat="47.64981" lon="6.18301">
        <ele>254</ele>
        <time>2022-01-11T15:30:40Z</time>
      </trkpt>
      <trkpt lat="47.64976" lon="6.183">
        <ele>253.8</ele>
        <time>2022-01-11T15:30:41Z</time>
      </trkpt>
      <trkpt lat="47.64971" lon="6.18299">
        <ele>253.6</ele>
        <time>2022-01-11T15:30:42Z</time>
      </trkpt>
      <trkpt lat="47.64962" lon="6.18298">
        <ele>253.4</ele>
        <time>2022-01-11T15:30:44Z</time>
      </trkpt>
      <trkpt lat="47.64953" lon="6.18297">
        <ele>253.4</ele>
        <time>2022-01-11T15:30:46Z</time>
      </trkpt>
      <trkpt lat="47.64949" lon="6.18296">
        <ele>253.3</ele>
        <time>2022-01-11T15:30:47Z</time>
      </trkpt>
      <trkpt lat="47.6494" lon="6.18294">
        <ele>253.1</ele>
        <time>2022-01-11T15:30:49Z</time>
      </trkpt>
      <trkpt lat="47.64933" lon="6.18292">
        <ele>253</ele>
        <time>2022-01-11T15:30:51Z</time>
      </trkpt>
      <trkpt lat="47.64927" lon="6.1829">
        <ele>252.8</ele>
        <time>2022-01-11T15:30:53Z</time>
      </trkpt>
      <trkpt lat="47.64919" lon="6.18286">
        <ele>252.6</ele>
        <time>2022-01-11T15:30:55Z</time>
      </trkpt>
      <trkpt lat="47.64908" lon="6.18282">
        <ele>252.3</ele>
        <time>2022-01-11T15:30:57Z</time>
      </trkpt>
      <trkpt lat="47.64903" lon="6.1828">
        <ele>252.2</ele>
        <time>2022-01-11T15:31:01Z</time>
      </trkpt>
      <trkpt lat="47.64889" lon="6.18269">
        <ele>250.8</ele>
        <time>2022-01-11T15:31:02Z</time>
      </trkpt>
      <trkpt lat="47.64882" lon="6.18266">
        <ele>250.7</ele>
        <time>2022-01-11T15:31:03Z</time>
      </trkpt>
      <trkpt lat="47.64876" lon="6.18263">
        <ele>250.6</ele>
        <time>2022-01-11T15:31:04Z</time>
      </trkpt>
      <trkpt lat="47.64869" lon="6.1826">
        <ele>250.6</ele>
        <time>2022-01-11T15:31:05Z</time>
      </trkpt>
      <trkpt lat="47.64863" lon="6.18257">
        <ele>250.7</ele>
        <time>2022-01-11T15:31:06Z</time>
      </trkpt>
      <trkpt lat="47.64858" lon="6.18255">
        <ele>250.7</ele>
        <time>2022-01-11T15:31:07Z</time>
      </trkpt>
      <trkpt lat="47.64852" lon="6.18253">
        <ele>250.6</ele>
        <time>2022-01-11T15:31:08Z</time>
      </trkpt>
      <trkpt lat="47.64846" lon="6.1825">
        <ele>250.5</ele>
        <time>2022-01-11T15:31:09Z</time>
      </trkpt>
      <trkpt lat="47.64841" lon="6.18247">
        <ele>250.3</ele>
        <time>2022-01-11T15:31:10Z</time>
      </trkpt>
      <trkpt lat="47.64836" lon="6.18244">
        <ele>250.1</ele>
        <time>2022-01-11T15:31:11Z</time>
      </trkpt>
      <trkpt lat="47.64831" lon="6.18241">
        <ele>250</ele>
        <time>2022-01-11T15:31:12Z</time>
      </trkpt>
      <trkpt lat="47.64826" lon="6.18238">
        <ele>250</ele>
        <time>2022-01-11T15:31:13Z</time>
      </trkpt>
      <trkpt lat="47.64821" lon="6.18235">
        <ele>250</ele>
        <time>2022-01-11T15:31:14Z</time>
      </trkpt>
      <trkpt lat="47.64816" lon="6.18232">
        <ele>250.1</ele>
        <time>2022-01-11T15:31:15Z</time>
      </trkpt>
      <trkpt lat="47.64811" lon="6.18229">
        <ele>250.2</ele>
        <time>2022-01-11T15:31:16Z</time>
      </trkpt>
      <trkpt lat="47.64806" lon="6.18226">
        <ele>250.3</ele>
        <time>2022-01-11T15:31:17Z</time>
      </trkpt>
      <trkpt lat="47.64802" lon="6.18222">
        <ele>250.4</ele>
        <time>2022-01-11T15:31:18Z</time>
      </trkpt>
      <trkpt lat="47.64797" lon="6.18219">
        <ele>250.4</ele>
        <time>2022-01-11T15:31:19Z</time>
      </trkpt>
      <trkpt lat="47.64793" lon="6.18216">
        <ele>250.4</ele>
        <time>2022-01-11T15:31:20Z</time>
      </trkpt>
      <trkpt lat="47.64787" lon="6.18211">
        <ele>250.4</ele>
        <time>2022-01-11T15:31:22Z</time>
      </trkpt>
      <trkpt lat="47.64782" lon="6.18206">
        <ele>250.7</ele>
        <time>2022-01-11T15:31:24Z</time>
      </trkpt>
      <trkpt lat="47.64776" lon="6.18201">
        <ele>250.9</ele>
        <time>2022-01-11T15:31:26Z</time>
      </trkpt>
      <trkpt lat="47.64774" lon="6.18208">
        <ele>252</ele>
        <time>2022-01-11T15:31:28Z</time>
      </trkpt>
      <trkpt lat="47.64768" lon="6.182">
        <ele>251.9</ele>
        <time>2022-01-11T15:31:29Z</time>
      </trkpt>
      <trkpt lat="47.64763" lon="6.18193">
        <ele>252</ele>
        <time>2022-01-11T15:31:31Z</time>
      </trkpt>
      <trkpt lat="47.64759" lon="6.18188">
        <ele>251.9</ele>
        <time>2022-01-11T15:31:33Z</time>
      </trkpt>
      <trkpt lat="47.64755" lon="6.18181">
        <ele>251.7</ele>
        <time>2022-01-11T15:31:36Z</time>
      </trkpt>
      <trkpt lat="47.64752" lon="6.18174">
        <ele>251.6</ele>
        <time>2022-01-11T15:31:39Z</time>
      </trkpt>
      <trkpt lat="47.64748" lon="6.18168">
        <ele>251.4</ele>
        <time>2022-01-11T15:31:42Z</time>
      </trkpt>
      <trkpt lat="47.64742" lon="6.18159">
        <ele>251.2</ele>
        <time>2022-01-11T15:31:45Z</time>
      </trkpt>
      <trkpt lat="47.64739" lon="6.18154">
        <ele>251.1</ele>
        <time>2022-01-11T15:31:47Z</time>
      </trkpt>
      <trkpt lat="47.64736" lon="6.18148">
        <ele>251.2</ele>
        <time>2022-01-11T15:31:49Z</time>
      </trkpt>
      <trkpt lat="47.64732" lon="6.18143">
        <ele>251.5</ele>
        <time>2022-01-11T15:31:55Z</time>
      </trkpt>
      <trkpt lat="47.64723" lon="6.18131">
        <ele>252</ele>
        <time>2022-01-11T15:31:56Z</time>
      </trkpt>
      <trkpt lat="47.64718" lon="6.18127">
        <ele>252</ele>
        <time>2022-01-11T15:32:01Z</time>
      </trkpt>
      <trkpt lat="47.64713" lon="6.18124">
        <ele>252</ele>
        <time>2022-01-11T15:32:03Z</time>
      </trkpt>
      <trkpt lat="47.64704" lon="6.18113">
        <ele>252.1</ele>
        <time>2022-01-11T15:32:04Z</time>
      </trkpt>
      <trkpt lat="47.647" lon="6.18107">
        <ele>252</ele>
        <time>2022-01-11T15:32:09Z</time>
      </trkpt>
      <trkpt lat="47.64696" lon="6.18101">
        <ele>252.1</ele>
        <time>2022-01-11T15:32:10Z</time>
      </trkpt>
      <trkpt lat="47.64692" lon="6.18096">
        <ele>251.9</ele>
        <time>2022-01-11T15:32:12Z</time>
      </trkpt>
      <trkpt lat="47.64681" lon="6.18083">
        <ele>251</ele>
        <time>2022-01-11T15:32:12Z</time>
      </trkpt>
      <trkpt lat="47.64675" lon="6.18077">
        <ele>250.7</ele>
        <time>2022-01-11T15:32:17Z</time>
      </trkpt>
      <trkpt lat="47.64669" lon="6.18071">
        <ele>250.9</ele>
        <time>2022-01-11T15:32:19Z</time>
      </trkpt>
      <trkpt lat="47.64665" lon="6.18066">
        <ele>250.9</ele>
        <time>2022-01-11T15:32:20Z</time>
      </trkpt>
      <trkpt lat="47.64659" lon="6.18059">
        <ele>250.7</ele>
        <time>2022-01-11T15:32:21Z</time>
      </trkpt>
      <trkpt lat="47.64652" lon="6.18052">
        <ele>250</ele>
        <time>2022-01-11T15:32:23Z</time>
      </trkpt>
      <trkpt lat="47.64635" lon="6.18034">
        <ele>246.9</ele>
        <time>2022-01-11T15:32:27Z</time>
      </trkpt>
      <trkpt lat="47.6463" lon="6.18031">
        <ele>245.4</ele>
        <time>2022-01-11T15:32:28Z</time>
      </trkpt>
      <trkpt lat="47.64625" lon="6.18029">
        <ele>244.1</ele>
        <time>2022-01-11T15:32:30Z</time>
      </trkpt>
      <trkpt lat="47.64619" lon="6.18027">
        <ele>242.6</ele>
        <time>2022-01-11T15:32:31Z</time>
      </trkpt>
      <trkpt lat="47.64614" lon="6.18028">
        <ele>241.7</ele>
        <time>2022-01-11T15:32:32Z</time>
      </trkpt>
      <trkpt lat="47.64605" lon="6.18033">
        <ele>240.3</ele>
        <time>2022-01-11T15:32:34Z</time>
      </trkpt>
      <trkpt lat="47.646" lon="6.18037">
        <ele>239.5</ele>
        <time>2022-01-11T15:32:36Z</time>
      </trkpt>
      <trkpt lat="47.64596" lon="6.1804">
        <ele>238.9</ele>
        <time>2022-01-11T15:32:37Z</time>
      </trkpt>
      <trkpt lat="47.64587" lon="6.18051">
        <ele>237.4</ele>
        <time>2022-01-11T15:32:40Z</time>
      </trkpt>
      <trkpt lat="47.64583" lon="6.18055">
        <ele>237</ele>
        <time>2022-01-11T15:32:41Z</time>
      </trkpt>
      <trkpt lat="47.64579" lon="6.18061">
        <ele>236.6</ele>
        <time>2022-01-11T15:32:42Z</time>
      </trkpt>
      <trkpt lat="47.64569" lon="6.18083">
        <ele>236</ele>
        <time>2022-01-11T15:32:46Z</time>
      </trkpt>
      <trkpt lat="47.64565" lon="6.18091">
        <ele>235.5</ele>
        <time>2022-01-11T15:32:47Z</time>
      </trkpt>
      <trkpt lat="47.64562" lon="6.18097">
        <ele>235.1</ele>
        <time>2022-01-11T15:32:48Z</time>
      </trkpt>
      <trkpt lat="47.64558" lon="6.18104">
        <ele>234.4</ele>
        <time>2022-01-11T15:32:50Z</time>
      </trkpt>
      <trkpt lat="47.64549" lon="6.18102">
        <ele>232.2</ele>
        <time>2022-01-11T15:32:53Z</time>
      </trkpt>
      <trkpt lat="47.64542" lon="6.1809">
        <ele>230.3</ele>
        <time>2022-01-11T15:32:56Z</time>
      </trkpt>
      <trkpt lat="47.64542" lon="6.18082">
        <ele>230</ele>
        <time>2022-01-11T15:32:58Z</time>
      </trkpt>
      <trkpt lat="47.64541" lon="6.18063">
        <ele>228.7</ele>
        <time>2022-01-11T15:33:01Z</time>
      </trkpt>
      <trkpt lat="47.64538" lon="6.18054">
        <ele>227.8</ele>
        <time>2022-01-11T15:33:03Z</time>
      </trkpt>
      <trkpt lat="47.64537" lon="6.18048">
        <ele>227.2</ele>
        <time>2022-01-11T15:33:04Z</time>
      </trkpt>
      <trkpt lat="47.64529" lon="6.18039">
        <ele>225.5</ele>
        <time>2022-01-11T15:33:08Z</time>
      </trkpt>
      <trkpt lat="47.64515" lon="6.18047">
        <ele>224.8</ele>
        <time>2022-01-11T15:33:11Z</time>
      </trkpt>
      <trkpt lat="47.6451" lon="6.18048">
        <ele>224.4</ele>
        <time>2022-01-11T15:33:12Z</time>
      </trkpt>
      <trkpt lat="47.64499" lon="6.18048">
        <ele>223.7</ele>
        <time>2022-01-11T15:33:14Z</time>
      </trkpt>
      <trkpt lat="47.64492" lon="6.18045">
        <ele>223.4</ele>
        <time>2022-01-11T15:33:16Z</time>
      </trkpt>
      <trkpt lat="47.64485" lon="6.18041">
        <ele>223.2</ele>
        <time>2022-01-11T15:33:17Z</time>
      </trkpt>
      <trkpt lat="47.64463" lon="6.18025">
        <ele>223</ele>
        <time>2022-01-11T15:33:18Z</time>
      </trkpt>
      <trkpt lat="47.64459" lon="6.18021">
        <ele>223</ele>
        <time>2022-01-11T15:33:19Z</time>
      </trkpt>
      <trkpt lat="47.64454" lon="6.18015">
        <ele>223</ele>
        <time>2022-01-11T15:33:24Z</time>
      </trkpt>
      <trkpt lat="47.64446" lon="6.18005">
        <ele>223</ele>
        <time>2022-01-11T15:33:27Z</time>
      </trkpt>
      <trkpt lat="47.64443" lon="6.18">
        <ele>222.9</ele>
        <time>2022-01-11T15:33:28Z</time>
      </trkpt>
      <trkpt lat="47.64434" lon="6.17995">
        <ele>222.5</ele>
        <time>2022-01-11T15:33:31Z</time>
      </trkpt>
      <trkpt lat="47.6444" lon="6.18001">
        <ele>222.8</ele>
        <time>2022-01-11T15:33:33Z</time>
      </trkpt>
      <trkpt lat="47.64444" lon="6.18006">
        <ele>223</ele>
        <time>2022-01-11T15:33:35Z</time>
      </trkpt>
      <trkpt lat="47.64448" lon="6.18009">
        <ele>223</ele>
        <time>2022-01-11T15:33:40Z</time>
      </trkpt>
      <trkpt lat="47.64457" lon="6.1802">
        <ele>223</ele>
        <time>2022-01-11T15:33:44Z</time>
      </trkpt>
      <trkpt lat="47.64465" lon="6.18031">
        <ele>223</ele>
        <time>2022-01-11T15:33:45Z</time>
      </trkpt>
      <trkpt lat="47.64464" lon="6.18039">
        <ele>222.9</ele>
        <time>2022-01-11T15:33:51Z</time>
      </trkpt>
      <trkpt lat="47.64463" lon="6.18047">
        <ele>222.8</ele>
        <time>2022-01-11T15:33:51Z</time>
      </trkpt>
      <trkpt lat="47.64465" lon="6.18053">
        <ele>222.8</ele>
        <time>2022-01-11T15:33:55Z</time>
      </trkpt>
      <trkpt lat="47.6447" lon="6.18056">
        <ele>222.9</ele>
        <time>2022-01-11T15:34:13Z</time>
      </trkpt>
      <trkpt lat="47.64474" lon="6.18053">
        <ele>223</ele>
        <time>2022-01-11T15:34:21Z</time>
      </trkpt>
      <trkpt lat="47.64475" lon="6.18046">
        <ele>223.1</ele>
        <time>2022-01-11T15:34:45Z</time>
      </trkpt>
      <trkpt lat="47.6448" lon="6.18045">
        <ele>223.2</ele>
        <time>2022-01-11T15:34:49Z</time>
      </trkpt>
      <trkpt lat="47.64486" lon="6.18045">
        <ele>223.3</ele>
        <time>2022-01-11T15:34:52Z</time>
      </trkpt>
      <trkpt lat="47.64491" lon="6.18048">
        <ele>223.5</ele>
        <time>2022-01-11T15:34:58Z</time>
      </trkpt>
      <trkpt lat="47.64495" lon="6.18052">
        <ele>223.7</ele>
        <time>2022-01-11T15:35:00Z</time>
      </trkpt>
      <trkpt lat="47.64504" lon="6.18054">
        <ele>224.2</ele>
        <time>2022-01-11T15:35:01Z</time>
      </trkpt>
      <trkpt lat="47.6451" lon="6.18058">
        <ele>224.7</ele>
        <time>2022-01-11T15:35:04Z</time>
      </trkpt>
      <trkpt lat="47.64511" lon="6.18067">
        <ele>224.7</ele>
        <time>2022-01-11T15:35:07Z</time>
      </trkpt>
      <trkpt lat="47.64508" lon="6.18073">
        <ele>224.3</ele>
        <time>2022-01-11T15:35:09Z</time>
      </trkpt>
      <trkpt lat="47.64506" lon="6.18079">
        <ele>224</ele>
        <time>2022-01-11T15:35:11Z</time>
      </trkpt>
      <trkpt lat="47.64503" lon="6.18087">
        <ele>223.4</ele>
        <time>2022-01-11T15:35:16Z</time>
      </trkpt>
      <trkpt lat="47.64501" lon="6.18093">
        <ele>223.2</ele>
        <time>2022-01-11T15:35:18Z</time>
      </trkpt>
      <trkpt lat="47.64498" lon="6.18101">
        <ele>223</ele>
        <time>2022-01-11T15:35:20Z</time>
      </trkpt>
      <trkpt lat="47.64497" lon="6.18108">
        <ele>222.9</ele>
        <time>2022-01-11T15:35:21Z</time>
      </trkpt>
      <trkpt lat="47.64493" lon="6.18127">
        <ele>222.9</ele>
        <time>2022-01-11T15:35:24Z</time>
      </trkpt>
      <trkpt lat="47.64492" lon="6.18135">
        <ele>223</ele>
        <time>2022-01-11T15:35:26Z</time>
      </trkpt>
      <trkpt lat="47.64489" lon="6.18153">
        <ele>222.8</ele>
        <time>2022-01-11T15:35:26Z</time>
      </trkpt>
      <trkpt lat="47.64491" lon="6.18161">
        <ele>222.7</ele>
        <time>2022-01-11T15:35:31Z</time>
      </trkpt>
      <trkpt lat="47.64493" lon="6.18168">
        <ele>222.8</ele>
        <time>2022-01-11T15:35:33Z</time>
      </trkpt>
      <trkpt lat="47.64496" lon="6.18175">
        <ele>223.1</ele>
        <time>2022-01-11T15:35:35Z</time>
      </trkpt>
      <trkpt lat="47.64495" lon="6.18184">
        <ele>223.3</ele>
        <time>2022-01-11T15:35:35Z</time>
      </trkpt>
      <trkpt lat="47.64491" lon="6.18191">
        <ele>223.3</ele>
        <time>2022-01-11T15:35:37Z</time>
      </trkpt>
      <trkpt lat="47.64488" lon="6.18197">
        <ele>223.3</ele>
        <time>2022-01-11T15:35:39Z</time>
      </trkpt>
      <trkpt lat="47.64485" lon="6.18204">
        <ele>223.4</ele>
        <time>2022-01-11T15:35:41Z</time>
      </trkpt>
      <trkpt lat="47.64482" lon="6.18209">
        <ele>223.4</ele>
        <time>2022-01-11T15:35:46Z</time>
      </trkpt>
      <trkpt lat="47.64478" lon="6.18225">
        <ele>223.7</ele>
        <time>2022-01-11T15:35:48Z</time>
      </trkpt>
      <trkpt lat="47.64476" lon="6.18233">
        <ele>223.5</ele>
        <time>2022-01-11T15:35:50Z</time>
      </trkpt>
      <trkpt lat="47.64473" lon="6.18241">
        <ele>223.2</ele>
        <time>2022-01-11T15:35:55Z</time>
      </trkpt>
      <trkpt lat="47.64466" lon="6.18256">
        <ele>223.1</ele>
        <time>2022-01-11T15:35:59Z</time>
      </trkpt>
      <trkpt lat="47.64457" lon="6.18267">
        <ele>223.4</ele>
        <time>2022-01-11T15:36:01Z</time>
      </trkpt>
      <trkpt lat="47.64454" lon="6.18272">
        <ele>223.4</ele>
        <time>2022-01-11T15:36:04Z</time>
      </trkpt>
      <trkpt lat="47.64451" lon="6.18278">
        <ele>223.4</ele>
        <time>2022-01-11T15:36:07Z</time>
      </trkpt>
      <trkpt lat="47.64446" lon="6.18284">
        <ele>223.4</ele>
        <time>2022-01-11T15:36:10Z</time>
      </trkpt>
      <trkpt lat="47.64443" lon="6.18289">
        <ele>223.3</ele>
        <time>2022-01-11T15:36:15Z</time>
      </trkpt>
      <trkpt lat="47.64438" lon="6.18295">
        <ele>223.4</ele>
        <time>2022-01-11T15:36:17Z</time>
      </trkpt>
      <trkpt lat="47.64439" lon="6.18304">
        <ele>223.8</ele>
        <time>2022-01-11T15:36:19Z</time>
      </trkpt>
      <trkpt lat="47.6444" lon="6.1832">
        <ele>224.8</ele>
        <time>2022-01-11T15:36:20Z</time>
      </trkpt>
      <trkpt lat="47.64435" lon="6.18325">
        <ele>224.8</ele>
        <time>2022-01-11T15:36:23Z</time>
      </trkpt>
      <trkpt lat="47.64428" lon="6.18323">
        <ele>224.3</ele>
        <time>2022-01-11T15:37:04Z</time>
      </trkpt>
    </trkseg>
  </trk>
</gpx>